<?xml version="1.0" encoding="UTF-8" standalone="no" ?>
<gpx xmlns="http://www.topografix.com/GPX/1/1" xmlns:xsi="http://www.w3.org/2001/XMLSchema-instance" xsi:schemaLocation="http://www.topografix.com/GPX/1/1 http://www.topografix.com/GPX/1/1/gpx.xsd" version="1.1" creator="VisuGPX - https://www.visugpx.com">
  <metadata>
    <name>Azillanet La Ramière et les hauteurs de Marceau</name>
    <desc><![CDATA[Des petits chemins à suivre... pour de jolies vues sur le Minervois!]]></desc>
  </metadata>
  <trk>
    <name><![CDATA[Tracé 002]]></name>
    <trkseg>
      <trkpt lat="43.32445" lon="2.73894">
        <ele>97.71</ele>
        <time>2012-11-19T12:48:42Z</time>
      </trkpt>
      <trkpt lat="43.32445" lon="2.73896">
        <ele>101.56</ele>
        <time>2012-11-19T12:48:54Z</time>
      </trkpt>
      <trkpt lat="43.32446" lon="2.73896">
        <ele>95.31</ele>
        <time>2012-11-19T12:49:01Z</time>
      </trkpt>
      <trkpt lat="43.32446" lon="2.73896">
        <ele>104.44</ele>
        <time>2012-11-19T12:49:02Z</time>
      </trkpt>
      <trkpt lat="43.32447" lon="2.73902">
        <ele>97.23</ele>
        <time>2012-11-19T12:49:12Z</time>
      </trkpt>
      <trkpt lat="43.32447" lon="2.73903">
        <ele>107.81</ele>
        <time>2012-11-19T12:49:13Z</time>
      </trkpt>
      <trkpt lat="43.32447" lon="2.73904">
        <ele>103.96</ele>
        <time>2012-11-19T12:49:14Z</time>
      </trkpt>
      <trkpt lat="43.32448" lon="2.73912">
        <ele>103.48</ele>
        <time>2012-11-19T12:49:28Z</time>
      </trkpt>
      <trkpt lat="43.32447" lon="2.73925">
        <ele>103.96</ele>
        <time>2012-11-19T12:49:44Z</time>
      </trkpt>
      <trkpt lat="43.32441" lon="2.73936">
        <ele>104.92</ele>
        <time>2012-11-19T12:49:55Z</time>
      </trkpt>
      <trkpt lat="43.32438" lon="2.73948">
        <ele>105.88</ele>
        <time>2012-11-19T12:50:05Z</time>
      </trkpt>
      <trkpt lat="43.32435" lon="2.73962">
        <ele>107.32</ele>
        <time>2012-11-19T12:50:17Z</time>
      </trkpt>
      <trkpt lat="43.32436" lon="2.73975">
        <ele>106.84</ele>
        <time>2012-11-19T12:50:27Z</time>
      </trkpt>
      <trkpt lat="43.32435" lon="2.73981">
        <ele>107.32</ele>
        <time>2012-11-19T12:50:32Z</time>
      </trkpt>
      <trkpt lat="43.32433" lon="2.73984">
        <ele>106.84</ele>
        <time>2012-11-19T12:50:34Z</time>
      </trkpt>
      <trkpt lat="43.32427" lon="2.73995">
        <ele>106.84</ele>
        <time>2012-11-19T12:50:46Z</time>
      </trkpt>
      <trkpt lat="43.32422" lon="2.74011">
        <ele>106.36</ele>
        <time>2012-11-19T12:50:58Z</time>
      </trkpt>
      <trkpt lat="43.32421" lon="2.74016">
        <ele>106.36</ele>
        <time>2012-11-19T12:51:03Z</time>
      </trkpt>
      <trkpt lat="43.32417" lon="2.74025">
        <ele>105.88</ele>
        <time>2012-11-19T12:51:15Z</time>
      </trkpt>
      <trkpt lat="43.32416" lon="2.74029">
        <ele>106.36</ele>
        <time>2012-11-19T12:51:23Z</time>
      </trkpt>
      <trkpt lat="43.32406" lon="2.74045">
        <ele>105.88</ele>
        <time>2012-11-19T12:51:37Z</time>
      </trkpt>
      <trkpt lat="43.32395" lon="2.74056">
        <ele>105.4</ele>
        <time>2012-11-19T12:51:49Z</time>
      </trkpt>
      <trkpt lat="43.32382" lon="2.74068">
        <ele>105.4</ele>
        <time>2012-11-19T12:52:02Z</time>
      </trkpt>
      <trkpt lat="43.32372" lon="2.74078">
        <ele>106.36</ele>
        <time>2012-11-19T12:52:13Z</time>
      </trkpt>
      <trkpt lat="43.3237" lon="2.74081">
        <ele>106.36</ele>
        <time>2012-11-19T12:52:16Z</time>
      </trkpt>
      <trkpt lat="43.32368" lon="2.74083">
        <ele>106.84</ele>
        <time>2012-11-19T12:52:18Z</time>
      </trkpt>
      <trkpt lat="43.32358" lon="2.74096">
        <ele>106.84</ele>
        <time>2012-11-19T12:52:31Z</time>
      </trkpt>
      <trkpt lat="43.32348" lon="2.74108">
        <ele>107.81</ele>
        <time>2012-11-19T12:52:43Z</time>
      </trkpt>
      <trkpt lat="43.32341" lon="2.74121">
        <ele>107.32</ele>
        <time>2012-11-19T12:52:54Z</time>
      </trkpt>
      <trkpt lat="43.32338" lon="2.74128">
        <ele>107.81</ele>
        <time>2012-11-19T12:53:00Z</time>
      </trkpt>
      <trkpt lat="43.32328" lon="2.74144">
        <ele>106.84</ele>
        <time>2012-11-19T12:53:15Z</time>
      </trkpt>
      <trkpt lat="43.32322" lon="2.7416">
        <ele>106.84</ele>
        <time>2012-11-19T12:53:26Z</time>
      </trkpt>
      <trkpt lat="43.32319" lon="2.74164">
        <ele>106.84</ele>
        <time>2012-11-19T12:53:30Z</time>
      </trkpt>
      <trkpt lat="43.32313" lon="2.7418">
        <ele>105.88</ele>
        <time>2012-11-19T12:53:42Z</time>
      </trkpt>
      <trkpt lat="43.32311" lon="2.74184">
        <ele>105.4</ele>
        <time>2012-11-19T12:53:45Z</time>
      </trkpt>
      <trkpt lat="43.32309" lon="2.74189">
        <ele>105.88</ele>
        <time>2012-11-19T12:53:49Z</time>
      </trkpt>
      <trkpt lat="43.32302" lon="2.74203">
        <ele>105.4</ele>
        <time>2012-11-19T12:54:01Z</time>
      </trkpt>
      <trkpt lat="43.32292" lon="2.74213">
        <ele>104.44</ele>
        <time>2012-11-19T12:54:12Z</time>
      </trkpt>
      <trkpt lat="43.32281" lon="2.74222">
        <ele>103.96</ele>
        <time>2012-11-19T12:54:25Z</time>
      </trkpt>
      <trkpt lat="43.32277" lon="2.74223">
        <ele>103.96</ele>
        <time>2012-11-19T12:54:37Z</time>
      </trkpt>
      <trkpt lat="43.32278" lon="2.74224">
        <ele>104.44</ele>
        <time>2012-11-19T12:54:45Z</time>
      </trkpt>
      <trkpt lat="43.32264" lon="2.74235">
        <ele>103</ele>
        <time>2012-11-19T12:54:56Z</time>
      </trkpt>
      <trkpt lat="43.32256" lon="2.74246">
        <ele>100.6</ele>
        <time>2012-11-19T12:55:09Z</time>
      </trkpt>
      <trkpt lat="43.32253" lon="2.74253">
        <ele>101.08</ele>
        <time>2012-11-19T12:55:13Z</time>
      </trkpt>
      <trkpt lat="43.32252" lon="2.74256">
        <ele>100.11</ele>
        <time>2012-11-19T12:55:15Z</time>
      </trkpt>
      <trkpt lat="43.3225" lon="2.74263">
        <ele>99.63</ele>
        <time>2012-11-19T12:55:20Z</time>
      </trkpt>
      <trkpt lat="43.32247" lon="2.74273">
        <ele>99.63</ele>
        <time>2012-11-19T12:55:26Z</time>
      </trkpt>
      <trkpt lat="43.32242" lon="2.7429">
        <ele>98.67</ele>
        <time>2012-11-19T12:55:37Z</time>
      </trkpt>
      <trkpt lat="43.32239" lon="2.74307">
        <ele>97.71</ele>
        <time>2012-11-19T12:55:47Z</time>
      </trkpt>
      <trkpt lat="43.32235" lon="2.7432">
        <ele>97.71</ele>
        <time>2012-11-19T12:55:58Z</time>
      </trkpt>
      <trkpt lat="43.32234" lon="2.74319">
        <ele>97.23</ele>
        <time>2012-11-19T12:56:06Z</time>
      </trkpt>
      <trkpt lat="43.32235" lon="2.74324">
        <ele>97.23</ele>
        <time>2012-11-19T12:56:09Z</time>
      </trkpt>
      <trkpt lat="43.3223" lon="2.74338">
        <ele>96.75</ele>
        <time>2012-11-19T12:56:18Z</time>
      </trkpt>
      <trkpt lat="43.32219" lon="2.74357">
        <ele>95.31</ele>
        <time>2012-11-19T12:56:31Z</time>
      </trkpt>
      <trkpt lat="43.32208" lon="2.74376">
        <ele>95.79</ele>
        <time>2012-11-19T12:56:43Z</time>
      </trkpt>
      <trkpt lat="43.32207" lon="2.74376">
        <ele>95.31</ele>
        <time>2012-11-19T12:56:44Z</time>
      </trkpt>
      <trkpt lat="43.32201" lon="2.74377">
        <ele>95.31</ele>
        <time>2012-11-19T12:56:50Z</time>
      </trkpt>
      <trkpt lat="43.32195" lon="2.74364">
        <ele>94.35</ele>
        <time>2012-11-19T12:57:01Z</time>
      </trkpt>
      <trkpt lat="43.3219" lon="2.74352">
        <ele>93.87</ele>
        <time>2012-11-19T12:57:11Z</time>
      </trkpt>
      <trkpt lat="43.32186" lon="2.7435">
        <ele>93.87</ele>
        <time>2012-11-19T12:57:15Z</time>
      </trkpt>
      <trkpt lat="43.32181" lon="2.74352">
        <ele>93.39</ele>
        <time>2012-11-19T12:57:20Z</time>
      </trkpt>
      <trkpt lat="43.32174" lon="2.74359">
        <ele>93.39</ele>
        <time>2012-11-19T12:57:29Z</time>
      </trkpt>
      <trkpt lat="43.32165" lon="2.74365">
        <ele>93.39</ele>
        <time>2012-11-19T12:57:38Z</time>
      </trkpt>
      <trkpt lat="43.32162" lon="2.74367">
        <ele>93.87</ele>
        <time>2012-11-19T12:57:41Z</time>
      </trkpt>
      <trkpt lat="43.32158" lon="2.7437">
        <ele>93.87</ele>
        <time>2012-11-19T12:57:46Z</time>
      </trkpt>
      <trkpt lat="43.32153" lon="2.74374">
        <ele>93.87</ele>
        <time>2012-11-19T12:57:51Z</time>
      </trkpt>
      <trkpt lat="43.32151" lon="2.74376">
        <ele>93.87</ele>
        <time>2012-11-19T12:57:54Z</time>
      </trkpt>
      <trkpt lat="43.32137" lon="2.74382">
        <ele>94.35</ele>
        <time>2012-11-19T12:58:07Z</time>
      </trkpt>
      <trkpt lat="43.32129" lon="2.74387">
        <ele>94.83</ele>
        <time>2012-11-19T12:58:17Z</time>
      </trkpt>
      <trkpt lat="43.32122" lon="2.7439">
        <ele>95.31</ele>
        <time>2012-11-19T12:58:25Z</time>
      </trkpt>
      <trkpt lat="43.32118" lon="2.74393">
        <ele>95.31</ele>
        <time>2012-11-19T12:58:29Z</time>
      </trkpt>
      <trkpt lat="43.32113" lon="2.74397">
        <ele>96.75</ele>
        <time>2012-11-19T12:58:34Z</time>
      </trkpt>
      <trkpt lat="43.32111" lon="2.74399">
        <ele>96.27</ele>
        <time>2012-11-19T12:58:36Z</time>
      </trkpt>
      <trkpt lat="43.32103" lon="2.74407">
        <ele>96.75</ele>
        <time>2012-11-19T12:58:45Z</time>
      </trkpt>
      <trkpt lat="43.32101" lon="2.74409">
        <ele>96.75</ele>
        <time>2012-11-19T12:58:48Z</time>
      </trkpt>
      <trkpt lat="43.32088" lon="2.74418">
        <ele>97.23</ele>
        <time>2012-11-19T12:59:00Z</time>
      </trkpt>
      <trkpt lat="43.32076" lon="2.74426">
        <ele>97.23</ele>
        <time>2012-11-19T12:59:12Z</time>
      </trkpt>
      <trkpt lat="43.32064" lon="2.74434">
        <ele>96.75</ele>
        <time>2012-11-19T12:59:23Z</time>
      </trkpt>
      <trkpt lat="43.32061" lon="2.74436">
        <ele>96.27</ele>
        <time>2012-11-19T12:59:27Z</time>
      </trkpt>
      <trkpt lat="43.32056" lon="2.7444">
        <ele>96.75</ele>
        <time>2012-11-19T12:59:32Z</time>
      </trkpt>
      <trkpt lat="43.32054" lon="2.74441">
        <ele>96.75</ele>
        <time>2012-11-19T12:59:34Z</time>
      </trkpt>
      <trkpt lat="43.3204" lon="2.74452">
        <ele>97.23</ele>
        <time>2012-11-19T12:59:47Z</time>
      </trkpt>
      <trkpt lat="43.3203" lon="2.7446">
        <ele>96.75</ele>
        <time>2012-11-19T12:59:57Z</time>
      </trkpt>
      <trkpt lat="43.32025" lon="2.74465">
        <ele>96.75</ele>
        <time>2012-11-19T13:00:03Z</time>
      </trkpt>
      <trkpt lat="43.32014" lon="2.74474">
        <ele>97.23</ele>
        <time>2012-11-19T13:00:14Z</time>
      </trkpt>
      <trkpt lat="43.31999" lon="2.74479">
        <ele>97.23</ele>
        <time>2012-11-19T13:00:28Z</time>
      </trkpt>
      <trkpt lat="43.31999" lon="2.7448">
        <ele>97.71</ele>
        <time>2012-11-19T13:00:29Z</time>
      </trkpt>
      <trkpt lat="43.31985" lon="2.74481">
        <ele>97.23</ele>
        <time>2012-11-19T13:00:41Z</time>
      </trkpt>
      <trkpt lat="43.31972" lon="2.74486">
        <ele>96.75</ele>
        <time>2012-11-19T13:00:54Z</time>
      </trkpt>
      <trkpt lat="43.3196" lon="2.74493">
        <ele>96.75</ele>
        <time>2012-11-19T13:01:05Z</time>
      </trkpt>
      <trkpt lat="43.31947" lon="2.74497">
        <ele>96.75</ele>
        <time>2012-11-19T13:01:16Z</time>
      </trkpt>
      <trkpt lat="43.3194" lon="2.74501">
        <ele>96.75</ele>
        <time>2012-11-19T13:01:23Z</time>
      </trkpt>
      <trkpt lat="43.31937" lon="2.74503">
        <ele>96.75</ele>
        <time>2012-11-19T13:01:26Z</time>
      </trkpt>
      <trkpt lat="43.31928" lon="2.74508">
        <ele>96.75</ele>
        <time>2012-11-19T13:01:34Z</time>
      </trkpt>
      <trkpt lat="43.31922" lon="2.74511">
        <ele>97.23</ele>
        <time>2012-11-19T13:01:40Z</time>
      </trkpt>
      <trkpt lat="43.3192" lon="2.74512">
        <ele>97.23</ele>
        <time>2012-11-19T13:01:51Z</time>
      </trkpt>
      <trkpt lat="43.31918" lon="2.74514">
        <ele>97.71</ele>
        <time>2012-11-19T13:02:03Z</time>
      </trkpt>
      <trkpt lat="43.31904" lon="2.74521">
        <ele>97.71</ele>
        <time>2012-11-19T13:02:17Z</time>
      </trkpt>
      <trkpt lat="43.31903" lon="2.74521">
        <ele>97.71</ele>
        <time>2012-11-19T13:02:18Z</time>
      </trkpt>
      <trkpt lat="43.31889" lon="2.74527">
        <ele>97.23</ele>
        <time>2012-11-19T13:02:31Z</time>
      </trkpt>
      <trkpt lat="43.31879" lon="2.74535">
        <ele>96.75</ele>
        <time>2012-11-19T13:02:42Z</time>
      </trkpt>
      <trkpt lat="43.31875" lon="2.74538">
        <ele>96.27</ele>
        <time>2012-11-19T13:02:47Z</time>
      </trkpt>
      <trkpt lat="43.3187" lon="2.74539">
        <ele>95.79</ele>
        <time>2012-11-19T13:03:01Z</time>
      </trkpt>
      <trkpt lat="43.3187" lon="2.74539">
        <ele>96.27</ele>
        <time>2012-11-19T13:03:08Z</time>
      </trkpt>
      <trkpt lat="43.31867" lon="2.74545">
        <ele>95.79</ele>
        <time>2012-11-19T13:03:14Z</time>
      </trkpt>
      <trkpt lat="43.31851" lon="2.74568">
        <ele>93.87</ele>
        <time>2012-11-19T13:03:29Z</time>
      </trkpt>
      <trkpt lat="43.31848" lon="2.74573">
        <ele>93.39</ele>
        <time>2012-11-19T13:03:34Z</time>
      </trkpt>
      <trkpt lat="43.31843" lon="2.7458">
        <ele>93.39</ele>
        <time>2012-11-19T13:03:41Z</time>
      </trkpt>
      <trkpt lat="43.31841" lon="2.74583">
        <ele>92.9</ele>
        <time>2012-11-19T13:03:44Z</time>
      </trkpt>
      <trkpt lat="43.31833" lon="2.74597">
        <ele>92.42</ele>
        <time>2012-11-19T13:03:56Z</time>
      </trkpt>
      <trkpt lat="43.31833" lon="2.74599">
        <ele>92.42</ele>
        <time>2012-11-19T13:03:57Z</time>
      </trkpt>
      <trkpt lat="43.31827" lon="2.74614">
        <ele>91.94</ele>
        <time>2012-11-19T13:04:10Z</time>
      </trkpt>
      <trkpt lat="43.31824" lon="2.74619">
        <ele>91.46</ele>
        <time>2012-11-19T13:04:16Z</time>
      </trkpt>
      <trkpt lat="43.31822" lon="2.74621">
        <ele>91.46</ele>
        <time>2012-11-19T13:04:20Z</time>
      </trkpt>
      <trkpt lat="43.31816" lon="2.74631">
        <ele>91.46</ele>
        <time>2012-11-19T13:04:27Z</time>
      </trkpt>
      <trkpt lat="43.31811" lon="2.7464">
        <ele>90.5</ele>
        <time>2012-11-19T13:04:34Z</time>
      </trkpt>
      <trkpt lat="43.31802" lon="2.74653">
        <ele>90.02</ele>
        <time>2012-11-19T13:04:45Z</time>
      </trkpt>
      <trkpt lat="43.31793" lon="2.74668">
        <ele>89.54</ele>
        <time>2012-11-19T13:04:57Z</time>
      </trkpt>
      <trkpt lat="43.3179" lon="2.74672">
        <ele>88.58</ele>
        <time>2012-11-19T13:05:01Z</time>
      </trkpt>
      <trkpt lat="43.31788" lon="2.74677">
        <ele>88.58</ele>
        <time>2012-11-19T13:05:06Z</time>
      </trkpt>
      <trkpt lat="43.31785" lon="2.74682">
        <ele>88.1</ele>
        <time>2012-11-19T13:05:10Z</time>
      </trkpt>
      <trkpt lat="43.31778" lon="2.74699">
        <ele>87.62</ele>
        <time>2012-11-19T13:05:22Z</time>
      </trkpt>
      <trkpt lat="43.31777" lon="2.74702">
        <ele>87.62</ele>
        <time>2012-11-19T13:05:25Z</time>
      </trkpt>
      <trkpt lat="43.31774" lon="2.74707">
        <ele>87.14</ele>
        <time>2012-11-19T13:05:29Z</time>
      </trkpt>
      <trkpt lat="43.31773" lon="2.74711">
        <ele>87.14</ele>
        <time>2012-11-19T13:05:32Z</time>
      </trkpt>
      <trkpt lat="43.3177" lon="2.74716">
        <ele>87.14</ele>
        <time>2012-11-19T13:05:37Z</time>
      </trkpt>
      <trkpt lat="43.31766" lon="2.74725">
        <ele>87.14</ele>
        <time>2012-11-19T13:05:44Z</time>
      </trkpt>
      <trkpt lat="43.31761" lon="2.74732">
        <ele>86.66</ele>
        <time>2012-11-19T13:05:50Z</time>
      </trkpt>
      <trkpt lat="43.3176" lon="2.74734">
        <ele>87.14</ele>
        <time>2012-11-19T13:05:54Z</time>
      </trkpt>
      <trkpt lat="43.31758" lon="2.74738">
        <ele>86.18</ele>
        <time>2012-11-19T13:05:57Z</time>
      </trkpt>
      <trkpt lat="43.31753" lon="2.74744">
        <ele>86.66</ele>
        <time>2012-11-19T13:06:10Z</time>
      </trkpt>
      <trkpt lat="43.3175" lon="2.7475">
        <ele>86.18</ele>
        <time>2012-11-19T13:06:14Z</time>
      </trkpt>
      <trkpt lat="43.31739" lon="2.74768">
        <ele>84.25</ele>
        <time>2012-11-19T13:06:24Z</time>
      </trkpt>
      <trkpt lat="43.31736" lon="2.74772">
        <ele>83.29</ele>
        <time>2012-11-19T13:06:29Z</time>
      </trkpt>
      <trkpt lat="43.31731" lon="2.7478">
        <ele>83.29</ele>
        <time>2012-11-19T13:06:35Z</time>
      </trkpt>
      <trkpt lat="43.31724" lon="2.74784">
        <ele>82.81</ele>
        <time>2012-11-19T13:06:44Z</time>
      </trkpt>
      <trkpt lat="43.3172" lon="2.74788">
        <ele>82.33</ele>
        <time>2012-11-19T13:06:48Z</time>
      </trkpt>
      <trkpt lat="43.31704" lon="2.7479">
        <ele>81.37</ele>
        <time>2012-11-19T13:07:02Z</time>
      </trkpt>
      <trkpt lat="43.31691" lon="2.74795">
        <ele>80.41</ele>
        <time>2012-11-19T13:07:14Z</time>
      </trkpt>
      <trkpt lat="43.31685" lon="2.74809">
        <ele>80.41</ele>
        <time>2012-11-19T13:07:23Z</time>
      </trkpt>
      <trkpt lat="43.31687" lon="2.74821">
        <ele>80.89</ele>
        <time>2012-11-19T13:07:30Z</time>
      </trkpt>
      <trkpt lat="43.31689" lon="2.74826">
        <ele>80.89</ele>
        <time>2012-11-19T13:07:33Z</time>
      </trkpt>
      <trkpt lat="43.31688" lon="2.74835">
        <ele>80.89</ele>
        <time>2012-11-19T13:07:38Z</time>
      </trkpt>
      <trkpt lat="43.31687" lon="2.74852">
        <ele>80.89</ele>
        <time>2012-11-19T13:07:50Z</time>
      </trkpt>
      <trkpt lat="43.31685" lon="2.74861">
        <ele>80.41</ele>
        <time>2012-11-19T13:07:55Z</time>
      </trkpt>
      <trkpt lat="43.31682" lon="2.74873">
        <ele>80.41</ele>
        <time>2012-11-19T13:08:07Z</time>
      </trkpt>
      <trkpt lat="43.31677" lon="2.74881">
        <ele>81.37</ele>
        <time>2012-11-19T13:08:16Z</time>
      </trkpt>
      <trkpt lat="43.31677" lon="2.74885">
        <ele>81.85</ele>
        <time>2012-11-19T13:08:19Z</time>
      </trkpt>
      <trkpt lat="43.31674" lon="2.74892">
        <ele>82.33</ele>
        <time>2012-11-19T13:08:23Z</time>
      </trkpt>
      <trkpt lat="43.31671" lon="2.74902">
        <ele>82.81</ele>
        <time>2012-11-19T13:08:29Z</time>
      </trkpt>
      <trkpt lat="43.31665" lon="2.74922">
        <ele>83.29</ele>
        <time>2012-11-19T13:08:44Z</time>
      </trkpt>
      <trkpt lat="43.31661" lon="2.74931">
        <ele>83.77</ele>
        <time>2012-11-19T13:08:49Z</time>
      </trkpt>
      <trkpt lat="43.31647" lon="2.74948">
        <ele>84.73</ele>
        <time>2012-11-19T13:09:00Z</time>
      </trkpt>
      <trkpt lat="43.31638" lon="2.74955">
        <ele>85.69</ele>
        <time>2012-11-19T13:09:10Z</time>
      </trkpt>
      <trkpt lat="43.31636" lon="2.74959">
        <ele>86.66</ele>
        <time>2012-11-19T13:09:24Z</time>
      </trkpt>
      <trkpt lat="43.31635" lon="2.7496">
        <ele>86.66</ele>
        <time>2012-11-19T13:09:25Z</time>
      </trkpt>
      <trkpt lat="43.31633" lon="2.74963">
        <ele>86.66</ele>
        <time>2012-11-19T13:09:29Z</time>
      </trkpt>
      <trkpt lat="43.31634" lon="2.74969">
        <ele>87.14</ele>
        <time>2012-11-19T13:09:42Z</time>
      </trkpt>
      <trkpt lat="43.31639" lon="2.74977">
        <ele>87.14</ele>
        <time>2012-11-19T13:09:57Z</time>
      </trkpt>
      <trkpt lat="43.31644" lon="2.74986">
        <ele>89.06</ele>
        <time>2012-11-19T13:10:08Z</time>
      </trkpt>
      <trkpt lat="43.31649" lon="2.7499">
        <ele>90.02</ele>
        <time>2012-11-19T13:10:18Z</time>
      </trkpt>
      <trkpt lat="43.31657" lon="2.74997">
        <ele>90.98</ele>
        <time>2012-11-19T13:10:29Z</time>
      </trkpt>
      <trkpt lat="43.31658" lon="2.75">
        <ele>91.46</ele>
        <time>2012-11-19T13:10:32Z</time>
      </trkpt>
      <trkpt lat="43.31663" lon="2.75005">
        <ele>91.46</ele>
        <time>2012-11-19T13:10:37Z</time>
      </trkpt>
      <trkpt lat="43.31667" lon="2.75008">
        <ele>91.94</ele>
        <time>2012-11-19T13:10:42Z</time>
      </trkpt>
      <trkpt lat="43.3167" lon="2.75011">
        <ele>91.46</ele>
        <time>2012-11-19T13:10:45Z</time>
      </trkpt>
      <trkpt lat="43.31675" lon="2.75014">
        <ele>92.42</ele>
        <time>2012-11-19T13:10:51Z</time>
      </trkpt>
      <trkpt lat="43.3168" lon="2.75021">
        <ele>93.39</ele>
        <time>2012-11-19T13:11:02Z</time>
      </trkpt>
      <trkpt lat="43.31686" lon="2.75028">
        <ele>94.83</ele>
        <time>2012-11-19T13:11:14Z</time>
      </trkpt>
      <trkpt lat="43.3169" lon="2.75033">
        <ele>96.75</ele>
        <time>2012-11-19T13:11:25Z</time>
      </trkpt>
      <trkpt lat="43.31692" lon="2.75041">
        <ele>96.75</ele>
        <time>2012-11-19T13:11:30Z</time>
      </trkpt>
      <trkpt lat="43.31694" lon="2.75049">
        <ele>97.23</ele>
        <time>2012-11-19T13:11:43Z</time>
      </trkpt>
      <trkpt lat="43.31694" lon="2.75049">
        <ele>96.75</ele>
        <time>2012-11-19T13:11:44Z</time>
      </trkpt>
      <trkpt lat="43.31696" lon="2.75055">
        <ele>97.23</ele>
        <time>2012-11-19T13:11:48Z</time>
      </trkpt>
      <trkpt lat="43.31698" lon="2.75063">
        <ele>97.23</ele>
        <time>2012-11-19T13:11:56Z</time>
      </trkpt>
      <trkpt lat="43.31702" lon="2.75072">
        <ele>96.75</ele>
        <time>2012-11-19T13:12:08Z</time>
      </trkpt>
      <trkpt lat="43.31705" lon="2.75083">
        <ele>96.27</ele>
        <time>2012-11-19T13:12:19Z</time>
      </trkpt>
      <trkpt lat="43.31708" lon="2.75097">
        <ele>96.27</ele>
        <time>2012-11-19T13:12:33Z</time>
      </trkpt>
      <trkpt lat="43.31708" lon="2.751">
        <ele>96.27</ele>
        <time>2012-11-19T13:12:39Z</time>
      </trkpt>
      <trkpt lat="43.31704" lon="2.75107">
        <ele>96.75</ele>
        <time>2012-11-19T13:12:46Z</time>
      </trkpt>
      <trkpt lat="43.31703" lon="2.75112">
        <ele>96.27</ele>
        <time>2012-11-19T13:13:00Z</time>
      </trkpt>
      <trkpt lat="43.31702" lon="2.75112">
        <ele>96.27</ele>
        <time>2012-11-19T13:13:14Z</time>
      </trkpt>
      <trkpt lat="43.317" lon="2.75114">
        <ele>96.27</ele>
        <time>2012-11-19T13:13:26Z</time>
      </trkpt>
      <trkpt lat="43.31698" lon="2.75117">
        <ele>96.27</ele>
        <time>2012-11-19T13:13:41Z</time>
      </trkpt>
      <trkpt lat="43.31697" lon="2.75122">
        <ele>96.75</ele>
        <time>2012-11-19T13:13:53Z</time>
      </trkpt>
      <trkpt lat="43.31694" lon="2.75131">
        <ele>96.75</ele>
        <time>2012-11-19T13:14:06Z</time>
      </trkpt>
      <trkpt lat="43.31693" lon="2.75132">
        <ele>97.23</ele>
        <time>2012-11-19T13:14:23Z</time>
      </trkpt>
      <trkpt lat="43.31691" lon="2.75137">
        <ele>96.75</ele>
        <time>2012-11-19T13:14:38Z</time>
      </trkpt>
      <trkpt lat="43.31691" lon="2.75139">
        <ele>97.23</ele>
        <time>2012-11-19T13:14:40Z</time>
      </trkpt>
      <trkpt lat="43.31691" lon="2.7515">
        <ele>98.19</ele>
        <time>2012-11-19T13:14:51Z</time>
      </trkpt>
      <trkpt lat="43.31691" lon="2.75154">
        <ele>98.67</ele>
        <time>2012-11-19T13:14:54Z</time>
      </trkpt>
      <trkpt lat="43.3169" lon="2.75162">
        <ele>99.15</ele>
        <time>2012-11-19T13:15:00Z</time>
      </trkpt>
      <trkpt lat="43.31697" lon="2.75173">
        <ele>98.67</ele>
        <time>2012-11-19T13:15:09Z</time>
      </trkpt>
      <trkpt lat="43.31705" lon="2.75188">
        <ele>98.19</ele>
        <time>2012-11-19T13:15:21Z</time>
      </trkpt>
      <trkpt lat="43.31708" lon="2.75197">
        <ele>97.71</ele>
        <time>2012-11-19T13:15:33Z</time>
      </trkpt>
      <trkpt lat="43.31713" lon="2.75209">
        <ele>96.75</ele>
        <time>2012-11-19T13:15:46Z</time>
      </trkpt>
      <trkpt lat="43.31714" lon="2.7521">
        <ele>96.75</ele>
        <time>2012-11-19T13:15:48Z</time>
      </trkpt>
      <trkpt lat="43.31717" lon="2.75213">
        <ele>95.79</ele>
        <time>2012-11-19T13:16:00Z</time>
      </trkpt>
      <trkpt lat="43.31717" lon="2.75213">
        <ele>95.79</ele>
        <time>2012-11-19T13:16:10Z</time>
      </trkpt>
      <trkpt lat="43.3172" lon="2.75213">
        <ele>96.27</ele>
        <time>2012-11-19T13:16:13Z</time>
      </trkpt>
      <trkpt lat="43.31728" lon="2.75211">
        <ele>96.27</ele>
        <time>2012-11-19T13:16:25Z</time>
      </trkpt>
      <trkpt lat="43.31734" lon="2.7521">
        <ele>97.23</ele>
        <time>2012-11-19T13:16:37Z</time>
      </trkpt>
      <trkpt lat="43.31739" lon="2.75214">
        <ele>97.71</ele>
        <time>2012-11-19T13:16:48Z</time>
      </trkpt>
      <trkpt lat="43.31741" lon="2.75215">
        <ele>97.71</ele>
        <time>2012-11-19T13:17:06Z</time>
      </trkpt>
      <trkpt lat="43.31744" lon="2.75218">
        <ele>98.67</ele>
        <time>2012-11-19T13:17:09Z</time>
      </trkpt>
      <trkpt lat="43.31748" lon="2.75222">
        <ele>98.19</ele>
        <time>2012-11-19T13:17:15Z</time>
      </trkpt>
      <trkpt lat="43.31754" lon="2.75223">
        <ele>98.19</ele>
        <time>2012-11-19T13:17:19Z</time>
      </trkpt>
      <trkpt lat="43.31761" lon="2.75222">
        <ele>96.75</ele>
        <time>2012-11-19T13:17:24Z</time>
      </trkpt>
      <trkpt lat="43.31764" lon="2.75219">
        <ele>95.79</ele>
        <time>2012-11-19T13:17:28Z</time>
      </trkpt>
      <trkpt lat="43.3178" lon="2.75224">
        <ele>95.79</ele>
        <time>2012-11-19T13:17:41Z</time>
      </trkpt>
      <trkpt lat="43.31781" lon="2.75224">
        <ele>96.27</ele>
        <time>2012-11-19T13:17:42Z</time>
      </trkpt>
      <trkpt lat="43.31784" lon="2.75224">
        <ele>96.27</ele>
        <time>2012-11-19T13:17:44Z</time>
      </trkpt>
      <trkpt lat="43.31788" lon="2.75226">
        <ele>96.27</ele>
        <time>2012-11-19T13:17:46Z</time>
      </trkpt>
      <trkpt lat="43.31801" lon="2.75226">
        <ele>95.79</ele>
        <time>2012-11-19T13:17:57Z</time>
      </trkpt>
      <trkpt lat="43.31805" lon="2.75226">
        <ele>95.79</ele>
        <time>2012-11-19T13:18:00Z</time>
      </trkpt>
      <trkpt lat="43.31813" lon="2.75226">
        <ele>94.83</ele>
        <time>2012-11-19T13:18:07Z</time>
      </trkpt>
      <trkpt lat="43.31824" lon="2.75227">
        <ele>94.35</ele>
        <time>2012-11-19T13:18:21Z</time>
      </trkpt>
      <trkpt lat="43.31833" lon="2.75228">
        <ele>93.39</ele>
        <time>2012-11-19T13:18:32Z</time>
      </trkpt>
      <trkpt lat="43.31838" lon="2.75234">
        <ele>93.87</ele>
        <time>2012-11-19T13:18:39Z</time>
      </trkpt>
      <trkpt lat="43.31845" lon="2.75248">
        <ele>93.39</ele>
        <time>2012-11-19T13:18:52Z</time>
      </trkpt>
      <trkpt lat="43.31855" lon="2.75258">
        <ele>92.9</ele>
        <time>2012-11-19T13:19:05Z</time>
      </trkpt>
      <trkpt lat="43.31864" lon="2.75264">
        <ele>92.9</ele>
        <time>2012-11-19T13:19:14Z</time>
      </trkpt>
      <trkpt lat="43.31872" lon="2.75274">
        <ele>92.42</ele>
        <time>2012-11-19T13:19:24Z</time>
      </trkpt>
      <trkpt lat="43.31883" lon="2.75283">
        <ele>92.9</ele>
        <time>2012-11-19T13:19:37Z</time>
      </trkpt>
      <trkpt lat="43.31888" lon="2.75291">
        <ele>92.9</ele>
        <time>2012-11-19T13:19:46Z</time>
      </trkpt>
      <trkpt lat="43.31899" lon="2.75305">
        <ele>92.9</ele>
        <time>2012-11-19T13:20:01Z</time>
      </trkpt>
      <trkpt lat="43.31907" lon="2.75319">
        <ele>93.39</ele>
        <time>2012-11-19T13:20:14Z</time>
      </trkpt>
      <trkpt lat="43.31911" lon="2.75328">
        <ele>93.87</ele>
        <time>2012-11-19T13:20:22Z</time>
      </trkpt>
      <trkpt lat="43.31914" lon="2.75347">
        <ele>94.83</ele>
        <time>2012-11-19T13:20:37Z</time>
      </trkpt>
      <trkpt lat="43.31918" lon="2.75363">
        <ele>95.79</ele>
        <time>2012-11-19T13:20:49Z</time>
      </trkpt>
      <trkpt lat="43.31918" lon="2.75366">
        <ele>95.79</ele>
        <time>2012-11-19T13:20:52Z</time>
      </trkpt>
      <trkpt lat="43.31917" lon="2.75384">
        <ele>96.27</ele>
        <time>2012-11-19T13:21:04Z</time>
      </trkpt>
      <trkpt lat="43.31919" lon="2.75402">
        <ele>97.23</ele>
        <time>2012-11-19T13:21:18Z</time>
      </trkpt>
      <trkpt lat="43.31919" lon="2.75416">
        <ele>97.71</ele>
        <time>2012-11-19T13:21:28Z</time>
      </trkpt>
      <trkpt lat="43.3192" lon="2.75418">
        <ele>97.71</ele>
        <time>2012-11-19T13:21:30Z</time>
      </trkpt>
      <trkpt lat="43.31921" lon="2.75425">
        <ele>97.71</ele>
        <time>2012-11-19T13:21:35Z</time>
      </trkpt>
      <trkpt lat="43.31923" lon="2.75442">
        <ele>98.67</ele>
        <time>2012-11-19T13:21:48Z</time>
      </trkpt>
      <trkpt lat="43.3193" lon="2.75444">
        <ele>98.19</ele>
        <time>2012-11-19T13:22:00Z</time>
      </trkpt>
      <trkpt lat="43.31935" lon="2.75441">
        <ele>98.19</ele>
        <time>2012-11-19T13:22:07Z</time>
      </trkpt>
      <trkpt lat="43.31941" lon="2.75441">
        <ele>98.19</ele>
        <time>2012-11-19T13:22:14Z</time>
      </trkpt>
      <trkpt lat="43.31945" lon="2.7545">
        <ele>99.15</ele>
        <time>2012-11-19T13:22:20Z</time>
      </trkpt>
      <trkpt lat="43.31945" lon="2.75453">
        <ele>99.15</ele>
        <time>2012-11-19T13:22:22Z</time>
      </trkpt>
      <trkpt lat="43.31944" lon="2.75455">
        <ele>99.15</ele>
        <time>2012-11-19T13:22:38Z</time>
      </trkpt>
      <trkpt lat="43.31944" lon="2.75455">
        <ele>99.15</ele>
        <time>2012-11-19T13:22:48Z</time>
      </trkpt>
      <trkpt lat="43.31946" lon="2.75457">
        <ele>99.63</ele>
        <time>2012-11-19T13:22:50Z</time>
      </trkpt>
      <trkpt lat="43.31948" lon="2.75476">
        <ele>99.63</ele>
        <time>2012-11-19T13:23:01Z</time>
      </trkpt>
      <trkpt lat="43.31946" lon="2.75485">
        <ele>100.11</ele>
        <time>2012-11-19T13:23:06Z</time>
      </trkpt>
      <trkpt lat="43.31943" lon="2.75497">
        <ele>100.6</ele>
        <time>2012-11-19T13:23:14Z</time>
      </trkpt>
      <trkpt lat="43.31941" lon="2.75501">
        <ele>100.6</ele>
        <time>2012-11-19T13:23:17Z</time>
      </trkpt>
      <trkpt lat="43.31939" lon="2.75505">
        <ele>101.08</ele>
        <time>2012-11-19T13:23:34Z</time>
      </trkpt>
      <trkpt lat="43.31938" lon="2.75506">
        <ele>100.6</ele>
        <time>2012-11-19T13:23:38Z</time>
      </trkpt>
      <trkpt lat="43.31934" lon="2.75516">
        <ele>101.08</ele>
        <time>2012-11-19T13:23:45Z</time>
      </trkpt>
      <trkpt lat="43.31933" lon="2.75522">
        <ele>102.04</ele>
        <time>2012-11-19T13:23:48Z</time>
      </trkpt>
      <trkpt lat="43.31931" lon="2.75528">
        <ele>102.52</ele>
        <time>2012-11-19T13:23:52Z</time>
      </trkpt>
      <trkpt lat="43.31924" lon="2.75546">
        <ele>104.44</ele>
        <time>2012-11-19T13:24:05Z</time>
      </trkpt>
      <trkpt lat="43.31918" lon="2.75561">
        <ele>105.88</ele>
        <time>2012-11-19T13:24:16Z</time>
      </trkpt>
      <trkpt lat="43.31913" lon="2.75576">
        <ele>107.32</ele>
        <time>2012-11-19T13:24:27Z</time>
      </trkpt>
      <trkpt lat="43.31906" lon="2.75594">
        <ele>109.25</ele>
        <time>2012-11-19T13:24:39Z</time>
      </trkpt>
      <trkpt lat="43.31905" lon="2.75597">
        <ele>109.25</ele>
        <time>2012-11-19T13:24:42Z</time>
      </trkpt>
      <trkpt lat="43.31902" lon="2.75602">
        <ele>109.73</ele>
        <time>2012-11-19T13:24:45Z</time>
      </trkpt>
      <trkpt lat="43.31895" lon="2.75618">
        <ele>111.17</ele>
        <time>2012-11-19T13:24:57Z</time>
      </trkpt>
      <trkpt lat="43.31893" lon="2.75626">
        <ele>112.13</ele>
        <time>2012-11-19T13:25:04Z</time>
      </trkpt>
      <trkpt lat="43.31891" lon="2.75631">
        <ele>112.13</ele>
        <time>2012-11-19T13:25:08Z</time>
      </trkpt>
      <trkpt lat="43.3189" lon="2.75633">
        <ele>112.61</ele>
        <time>2012-11-19T13:25:10Z</time>
      </trkpt>
      <trkpt lat="43.31888" lon="2.75639">
        <ele>113.09</ele>
        <time>2012-11-19T13:25:15Z</time>
      </trkpt>
      <trkpt lat="43.31883" lon="2.75647">
        <ele>113.57</ele>
        <time>2012-11-19T13:25:24Z</time>
      </trkpt>
      <trkpt lat="43.31875" lon="2.7566">
        <ele>115.5</ele>
        <time>2012-11-19T13:25:35Z</time>
      </trkpt>
      <trkpt lat="43.31872" lon="2.75665">
        <ele>116.46</ele>
        <time>2012-11-19T13:25:41Z</time>
      </trkpt>
      <trkpt lat="43.3187" lon="2.75668">
        <ele>116.94</ele>
        <time>2012-11-19T13:25:45Z</time>
      </trkpt>
      <trkpt lat="43.31862" lon="2.75683">
        <ele>119.82</ele>
        <time>2012-11-19T13:25:58Z</time>
      </trkpt>
      <trkpt lat="43.31859" lon="2.75686">
        <ele>120.3</ele>
        <time>2012-11-19T13:26:01Z</time>
      </trkpt>
      <trkpt lat="43.31857" lon="2.75694">
        <ele>120.3</ele>
        <time>2012-11-19T13:26:07Z</time>
      </trkpt>
      <trkpt lat="43.31856" lon="2.75698">
        <ele>120.78</ele>
        <time>2012-11-19T13:26:10Z</time>
      </trkpt>
      <trkpt lat="43.31855" lon="2.75702">
        <ele>121.26</ele>
        <time>2012-11-19T13:26:13Z</time>
      </trkpt>
      <trkpt lat="43.31855" lon="2.75711">
        <ele>121.74</ele>
        <time>2012-11-19T13:26:20Z</time>
      </trkpt>
      <trkpt lat="43.31852" lon="2.75723">
        <ele>122.71</ele>
        <time>2012-11-19T13:26:34Z</time>
      </trkpt>
      <trkpt lat="43.31852" lon="2.75725">
        <ele>122.71</ele>
        <time>2012-11-19T13:26:54Z</time>
      </trkpt>
      <trkpt lat="43.3185" lon="2.75726">
        <ele>123.19</ele>
        <time>2012-11-19T13:27:10Z</time>
      </trkpt>
      <trkpt lat="43.31849" lon="2.75729">
        <ele>123.67</ele>
        <time>2012-11-19T13:27:23Z</time>
      </trkpt>
      <trkpt lat="43.31849" lon="2.75731">
        <ele>123.19</ele>
        <time>2012-11-19T13:27:32Z</time>
      </trkpt>
      <trkpt lat="43.31845" lon="2.75736">
        <ele>123.67</ele>
        <time>2012-11-19T13:27:44Z</time>
      </trkpt>
      <trkpt lat="43.31845" lon="2.75735">
        <ele>123.67</ele>
        <time>2012-11-19T13:27:47Z</time>
      </trkpt>
      <trkpt lat="43.31846" lon="2.75733">
        <ele>123.67</ele>
        <time>2012-11-19T13:27:49Z</time>
      </trkpt>
      <trkpt lat="43.31846" lon="2.75732">
        <ele>123.19</ele>
        <time>2012-11-19T13:28:01Z</time>
      </trkpt>
      <trkpt lat="43.31847" lon="2.75731">
        <ele>123.19</ele>
        <time>2012-11-19T13:28:31Z</time>
      </trkpt>
      <trkpt lat="43.31846" lon="2.75731">
        <ele>123.67</ele>
        <time>2012-11-19T13:29:05Z</time>
      </trkpt>
      <trkpt lat="43.31847" lon="2.75731">
        <ele>123.67</ele>
        <time>2012-11-19T13:29:14Z</time>
      </trkpt>
      <trkpt lat="43.31846" lon="2.75734">
        <ele>123.67</ele>
        <time>2012-11-19T13:29:16Z</time>
      </trkpt>
      <trkpt lat="43.31841" lon="2.75747">
        <ele>123.67</ele>
        <time>2012-11-19T13:29:26Z</time>
      </trkpt>
      <trkpt lat="43.31836" lon="2.75756">
        <ele>123.19</ele>
        <time>2012-11-19T13:29:34Z</time>
      </trkpt>
      <trkpt lat="43.3183" lon="2.7577">
        <ele>123.67</ele>
        <time>2012-11-19T13:29:44Z</time>
      </trkpt>
      <trkpt lat="43.31828" lon="2.75774">
        <ele>124.15</ele>
        <time>2012-11-19T13:29:48Z</time>
      </trkpt>
      <trkpt lat="43.31828" lon="2.75784">
        <ele>124.63</ele>
        <time>2012-11-19T13:29:56Z</time>
      </trkpt>
      <trkpt lat="43.31826" lon="2.75802">
        <ele>125.59</ele>
        <time>2012-11-19T13:30:09Z</time>
      </trkpt>
      <trkpt lat="43.31826" lon="2.75802">
        <ele>125.59</ele>
        <time>2012-11-19T13:30:11Z</time>
      </trkpt>
      <trkpt lat="43.31824" lon="2.75803">
        <ele>125.59</ele>
        <time>2012-11-19T13:30:24Z</time>
      </trkpt>
      <trkpt lat="43.31815" lon="2.75818">
        <ele>125.59</ele>
        <time>2012-11-19T13:30:36Z</time>
      </trkpt>
      <trkpt lat="43.31811" lon="2.75823">
        <ele>125.59</ele>
        <time>2012-11-19T13:30:48Z</time>
      </trkpt>
      <trkpt lat="43.31811" lon="2.75824">
        <ele>126.07</ele>
        <time>2012-11-19T13:30:49Z</time>
      </trkpt>
      <trkpt lat="43.31807" lon="2.75828">
        <ele>126.07</ele>
        <time>2012-11-19T13:30:53Z</time>
      </trkpt>
      <trkpt lat="43.31793" lon="2.75841">
        <ele>126.55</ele>
        <time>2012-11-19T13:31:08Z</time>
      </trkpt>
      <trkpt lat="43.31783" lon="2.75847">
        <ele>127.51</ele>
        <time>2012-11-19T13:31:18Z</time>
      </trkpt>
      <trkpt lat="43.31775" lon="2.75847">
        <ele>127.51</ele>
        <time>2012-11-19T13:31:30Z</time>
      </trkpt>
      <trkpt lat="43.31773" lon="2.75848">
        <ele>127.99</ele>
        <time>2012-11-19T13:31:59Z</time>
      </trkpt>
      <trkpt lat="43.3177" lon="2.7585">
        <ele>127.99</ele>
        <time>2012-11-19T13:32:02Z</time>
      </trkpt>
      <trkpt lat="43.31768" lon="2.75853">
        <ele>128.47</ele>
        <time>2012-11-19T13:32:05Z</time>
      </trkpt>
      <trkpt lat="43.31765" lon="2.75856">
        <ele>128.95</ele>
        <time>2012-11-19T13:32:08Z</time>
      </trkpt>
      <trkpt lat="43.31753" lon="2.75862">
        <ele>129.92</ele>
        <time>2012-11-19T13:32:20Z</time>
      </trkpt>
      <trkpt lat="43.31747" lon="2.75867">
        <ele>131.36</ele>
        <time>2012-11-19T13:32:31Z</time>
      </trkpt>
      <trkpt lat="43.31742" lon="2.75872">
        <ele>132.8</ele>
        <time>2012-11-19T13:32:44Z</time>
      </trkpt>
      <trkpt lat="43.31741" lon="2.7588">
        <ele>133.76</ele>
        <time>2012-11-19T13:32:50Z</time>
      </trkpt>
      <trkpt lat="43.31744" lon="2.75899">
        <ele>135.68</ele>
        <time>2012-11-19T13:33:02Z</time>
      </trkpt>
      <trkpt lat="43.31747" lon="2.75918">
        <ele>137.61</ele>
        <time>2012-11-19T13:33:15Z</time>
      </trkpt>
      <trkpt lat="43.31747" lon="2.75923">
        <ele>137.61</ele>
        <time>2012-11-19T13:33:21Z</time>
      </trkpt>
      <trkpt lat="43.31745" lon="2.75919">
        <ele>137.13</ele>
        <time>2012-11-19T13:33:34Z</time>
      </trkpt>
      <trkpt lat="43.31744" lon="2.7592">
        <ele>137.61</ele>
        <time>2012-11-19T13:33:46Z</time>
      </trkpt>
      <trkpt lat="43.31746" lon="2.75939">
        <ele>138.57</ele>
        <time>2012-11-19T13:33:58Z</time>
      </trkpt>
      <trkpt lat="43.31747" lon="2.75946">
        <ele>139.53</ele>
        <time>2012-11-19T13:34:03Z</time>
      </trkpt>
      <trkpt lat="43.31747" lon="2.75952">
        <ele>139.53</ele>
        <time>2012-11-19T13:34:07Z</time>
      </trkpt>
      <trkpt lat="43.31748" lon="2.75956">
        <ele>140.01</ele>
        <time>2012-11-19T13:34:10Z</time>
      </trkpt>
      <trkpt lat="43.31743" lon="2.75962">
        <ele>140.49</ele>
        <time>2012-11-19T13:34:23Z</time>
      </trkpt>
      <trkpt lat="43.31743" lon="2.75962">
        <ele>140.49</ele>
        <time>2012-11-19T13:34:24Z</time>
      </trkpt>
      <trkpt lat="43.31741" lon="2.7597">
        <ele>140.49</ele>
        <time>2012-11-19T13:34:29Z</time>
      </trkpt>
      <trkpt lat="43.3174" lon="2.75972">
        <ele>141.45</ele>
        <time>2012-11-19T13:34:31Z</time>
      </trkpt>
      <trkpt lat="43.31735" lon="2.75988">
        <ele>142.89</ele>
        <time>2012-11-19T13:34:44Z</time>
      </trkpt>
      <trkpt lat="43.31734" lon="2.76001">
        <ele>143.37</ele>
        <time>2012-11-19T13:34:56Z</time>
      </trkpt>
      <trkpt lat="43.31734" lon="2.76001">
        <ele>143.37</ele>
        <time>2012-11-19T13:35:08Z</time>
      </trkpt>
      <trkpt lat="43.31733" lon="2.76007">
        <ele>144.34</ele>
        <time>2012-11-19T13:35:12Z</time>
      </trkpt>
      <trkpt lat="43.31733" lon="2.7601">
        <ele>143.85</ele>
        <time>2012-11-19T13:35:14Z</time>
      </trkpt>
      <trkpt lat="43.31733" lon="2.76018">
        <ele>145.3</ele>
        <time>2012-11-19T13:35:23Z</time>
      </trkpt>
      <trkpt lat="43.31733" lon="2.76025">
        <ele>146.26</ele>
        <time>2012-11-19T13:35:29Z</time>
      </trkpt>
      <trkpt lat="43.31734" lon="2.76045">
        <ele>146.26</ele>
        <time>2012-11-19T13:35:41Z</time>
      </trkpt>
      <trkpt lat="43.31735" lon="2.76059">
        <ele>146.74</ele>
        <time>2012-11-19T13:35:49Z</time>
      </trkpt>
      <trkpt lat="43.31737" lon="2.76069">
        <ele>147.22</ele>
        <time>2012-11-19T13:35:56Z</time>
      </trkpt>
      <trkpt lat="43.31739" lon="2.7609">
        <ele>148.66</ele>
        <time>2012-11-19T13:36:09Z</time>
      </trkpt>
      <trkpt lat="43.31738" lon="2.76096">
        <ele>149.14</ele>
        <time>2012-11-19T13:36:13Z</time>
      </trkpt>
      <trkpt lat="43.31737" lon="2.76102">
        <ele>149.62</ele>
        <time>2012-11-19T13:36:17Z</time>
      </trkpt>
      <trkpt lat="43.31731" lon="2.76121">
        <ele>151.54</ele>
        <time>2012-11-19T13:36:30Z</time>
      </trkpt>
      <trkpt lat="43.31728" lon="2.76127">
        <ele>152.03</ele>
        <time>2012-11-19T13:36:34Z</time>
      </trkpt>
      <trkpt lat="43.31723" lon="2.76138">
        <ele>152.99</ele>
        <time>2012-11-19T13:36:42Z</time>
      </trkpt>
      <trkpt lat="43.31714" lon="2.76156">
        <ele>153.47</ele>
        <time>2012-11-19T13:36:55Z</time>
      </trkpt>
      <trkpt lat="43.31712" lon="2.7616">
        <ele>153.95</ele>
        <time>2012-11-19T13:36:58Z</time>
      </trkpt>
      <trkpt lat="43.31711" lon="2.76168">
        <ele>154.91</ele>
        <time>2012-11-19T13:37:04Z</time>
      </trkpt>
      <trkpt lat="43.31707" lon="2.76178">
        <ele>154.91</ele>
        <time>2012-11-19T13:37:11Z</time>
      </trkpt>
      <trkpt lat="43.31701" lon="2.76194">
        <ele>156.83</ele>
        <time>2012-11-19T13:37:23Z</time>
      </trkpt>
      <trkpt lat="43.31699" lon="2.76197">
        <ele>156.35</ele>
        <time>2012-11-19T13:37:30Z</time>
      </trkpt>
      <trkpt lat="43.31697" lon="2.762">
        <ele>156.83</ele>
        <time>2012-11-19T13:37:36Z</time>
      </trkpt>
      <trkpt lat="43.31696" lon="2.76205">
        <ele>157.31</ele>
        <time>2012-11-19T13:37:39Z</time>
      </trkpt>
      <trkpt lat="43.31694" lon="2.76206">
        <ele>157.79</ele>
        <time>2012-11-19T13:37:52Z</time>
      </trkpt>
      <trkpt lat="43.31694" lon="2.76206">
        <ele>157.31</ele>
        <time>2012-11-19T13:38:02Z</time>
      </trkpt>
      <trkpt lat="43.31694" lon="2.76207">
        <ele>157.79</ele>
        <time>2012-11-19T13:38:04Z</time>
      </trkpt>
      <trkpt lat="43.31692" lon="2.76217">
        <ele>158.27</ele>
        <time>2012-11-19T13:38:11Z</time>
      </trkpt>
      <trkpt lat="43.31688" lon="2.7622">
        <ele>158.75</ele>
        <time>2012-11-19T13:38:16Z</time>
      </trkpt>
      <trkpt lat="43.31684" lon="2.7623">
        <ele>160.68</ele>
        <time>2012-11-19T13:38:27Z</time>
      </trkpt>
      <trkpt lat="43.31681" lon="2.76232">
        <ele>160.68</ele>
        <time>2012-11-19T13:38:30Z</time>
      </trkpt>
      <trkpt lat="43.31677" lon="2.76235">
        <ele>161.16</ele>
        <time>2012-11-19T13:38:44Z</time>
      </trkpt>
      <trkpt lat="43.31672" lon="2.76238">
        <ele>162.12</ele>
        <time>2012-11-19T13:38:58Z</time>
      </trkpt>
      <trkpt lat="43.31668" lon="2.76238">
        <ele>162.12</ele>
        <time>2012-11-19T13:39:02Z</time>
      </trkpt>
      <trkpt lat="43.31662" lon="2.7624">
        <ele>163.08</ele>
        <time>2012-11-19T13:39:14Z</time>
      </trkpt>
      <trkpt lat="43.31659" lon="2.76238">
        <ele>164.04</ele>
        <time>2012-11-19T13:39:31Z</time>
      </trkpt>
      <trkpt lat="43.31657" lon="2.76238">
        <ele>164.04</ele>
        <time>2012-11-19T13:39:33Z</time>
      </trkpt>
      <trkpt lat="43.31656" lon="2.76239">
        <ele>164.52</ele>
        <time>2012-11-19T13:39:35Z</time>
      </trkpt>
      <trkpt lat="43.31652" lon="2.7624">
        <ele>165</ele>
        <time>2012-11-19T13:39:39Z</time>
      </trkpt>
      <trkpt lat="43.3165" lon="2.76243">
        <ele>165.48</ele>
        <time>2012-11-19T13:39:43Z</time>
      </trkpt>
      <trkpt lat="43.31649" lon="2.76243">
        <ele>165.96</ele>
        <time>2012-11-19T13:40:00Z</time>
      </trkpt>
      <trkpt lat="43.31649" lon="2.76245">
        <ele>165.96</ele>
        <time>2012-11-19T13:40:22Z</time>
      </trkpt>
      <trkpt lat="43.31647" lon="2.76251">
        <ele>166.45</ele>
        <time>2012-11-19T13:40:37Z</time>
      </trkpt>
      <trkpt lat="43.31644" lon="2.76253">
        <ele>167.41</ele>
        <time>2012-11-19T13:40:49Z</time>
      </trkpt>
      <trkpt lat="43.31644" lon="2.76253">
        <ele>167.41</ele>
        <time>2012-11-19T13:41:04Z</time>
      </trkpt>
      <trkpt lat="43.31642" lon="2.76254">
        <ele>166.93</ele>
        <time>2012-11-19T13:41:34Z</time>
      </trkpt>
      <trkpt lat="43.31644" lon="2.76253">
        <ele>166.93</ele>
        <time>2012-11-19T13:42:03Z</time>
      </trkpt>
      <trkpt lat="43.31645" lon="2.76252">
        <ele>166.93</ele>
        <time>2012-11-19T13:42:06Z</time>
      </trkpt>
      <trkpt lat="43.3165" lon="2.76252">
        <ele>166.93</ele>
        <time>2012-11-19T13:42:12Z</time>
      </trkpt>
      <trkpt lat="43.31655" lon="2.76256">
        <ele>166.93</ele>
        <time>2012-11-19T13:42:16Z</time>
      </trkpt>
      <trkpt lat="43.31656" lon="2.76258">
        <ele>166.93</ele>
        <time>2012-11-19T13:42:18Z</time>
      </trkpt>
      <trkpt lat="43.31659" lon="2.76261">
        <ele>166.93</ele>
        <time>2012-11-19T13:42:21Z</time>
      </trkpt>
      <trkpt lat="43.31664" lon="2.76264">
        <ele>166.93</ele>
        <time>2012-11-19T13:42:26Z</time>
      </trkpt>
      <trkpt lat="43.31668" lon="2.76265">
        <ele>166.93</ele>
        <time>2012-11-19T13:42:30Z</time>
      </trkpt>
      <trkpt lat="43.31678" lon="2.76267">
        <ele>165.96</ele>
        <time>2012-11-19T13:42:38Z</time>
      </trkpt>
      <trkpt lat="43.31682" lon="2.76268">
        <ele>166.45</ele>
        <time>2012-11-19T13:42:41Z</time>
      </trkpt>
      <trkpt lat="43.31688" lon="2.76269">
        <ele>166.45</ele>
        <time>2012-11-19T13:42:47Z</time>
      </trkpt>
      <trkpt lat="43.31698" lon="2.76271">
        <ele>167.41</ele>
        <time>2012-11-19T13:42:55Z</time>
      </trkpt>
      <trkpt lat="43.31702" lon="2.7627">
        <ele>168.37</ele>
        <time>2012-11-19T13:42:59Z</time>
      </trkpt>
      <trkpt lat="43.31716" lon="2.76275">
        <ele>169.33</ele>
        <time>2012-11-19T13:43:12Z</time>
      </trkpt>
      <trkpt lat="43.31719" lon="2.76276">
        <ele>169.81</ele>
        <time>2012-11-19T13:43:15Z</time>
      </trkpt>
      <trkpt lat="43.31721" lon="2.76277">
        <ele>170.77</ele>
        <time>2012-11-19T13:43:17Z</time>
      </trkpt>
      <trkpt lat="43.31722" lon="2.76281">
        <ele>171.25</ele>
        <time>2012-11-19T13:43:21Z</time>
      </trkpt>
      <trkpt lat="43.31722" lon="2.76289">
        <ele>171.25</ele>
        <time>2012-11-19T13:43:25Z</time>
      </trkpt>
      <trkpt lat="43.3172" lon="2.76293">
        <ele>171.25</ele>
        <time>2012-11-19T13:43:32Z</time>
      </trkpt>
      <trkpt lat="43.31717" lon="2.76305">
        <ele>171.73</ele>
        <time>2012-11-19T13:43:40Z</time>
      </trkpt>
      <trkpt lat="43.31714" lon="2.76319">
        <ele>173.17</ele>
        <time>2012-11-19T13:43:50Z</time>
      </trkpt>
      <trkpt lat="43.3171" lon="2.76335">
        <ele>174.14</ele>
        <time>2012-11-19T13:44:02Z</time>
      </trkpt>
      <trkpt lat="43.31706" lon="2.7634">
        <ele>175.1</ele>
        <time>2012-11-19T13:44:12Z</time>
      </trkpt>
      <trkpt lat="43.31705" lon="2.76341">
        <ele>175.58</ele>
        <time>2012-11-19T13:44:14Z</time>
      </trkpt>
      <trkpt lat="43.31705" lon="2.76342">
        <ele>175.58</ele>
        <time>2012-11-19T13:44:16Z</time>
      </trkpt>
      <trkpt lat="43.31705" lon="2.76345">
        <ele>175.58</ele>
        <time>2012-11-19T13:44:18Z</time>
      </trkpt>
      <trkpt lat="43.31704" lon="2.7635">
        <ele>176.06</ele>
        <time>2012-11-19T13:44:21Z</time>
      </trkpt>
      <trkpt lat="43.31702" lon="2.76356">
        <ele>176.54</ele>
        <time>2012-11-19T13:44:25Z</time>
      </trkpt>
      <trkpt lat="43.31699" lon="2.76365">
        <ele>177.98</ele>
        <time>2012-11-19T13:44:37Z</time>
      </trkpt>
      <trkpt lat="43.31699" lon="2.76368">
        <ele>177.98</ele>
        <time>2012-11-19T13:44:40Z</time>
      </trkpt>
      <trkpt lat="43.31696" lon="2.76376">
        <ele>179.42</ele>
        <time>2012-11-19T13:44:47Z</time>
      </trkpt>
      <trkpt lat="43.31696" lon="2.76384">
        <ele>180.38</ele>
        <time>2012-11-19T13:44:54Z</time>
      </trkpt>
      <trkpt lat="43.31696" lon="2.76388">
        <ele>180.38</ele>
        <time>2012-11-19T13:44:58Z</time>
      </trkpt>
      <trkpt lat="43.31693" lon="2.76388">
        <ele>180.87</ele>
        <time>2012-11-19T13:45:13Z</time>
      </trkpt>
      <trkpt lat="43.31695" lon="2.76388">
        <ele>180.38</ele>
        <time>2012-11-19T13:45:24Z</time>
      </trkpt>
      <trkpt lat="43.31701" lon="2.76395">
        <ele>180.87</ele>
        <time>2012-11-19T13:45:34Z</time>
      </trkpt>
      <trkpt lat="43.31702" lon="2.76395">
        <ele>180.87</ele>
        <time>2012-11-19T13:45:35Z</time>
      </trkpt>
      <trkpt lat="43.31707" lon="2.76402">
        <ele>181.83</ele>
        <time>2012-11-19T13:45:44Z</time>
      </trkpt>
      <trkpt lat="43.3171" lon="2.76404">
        <ele>182.31</ele>
        <time>2012-11-19T13:45:47Z</time>
      </trkpt>
      <trkpt lat="43.31715" lon="2.76416">
        <ele>182.79</ele>
        <time>2012-11-19T13:45:57Z</time>
      </trkpt>
      <trkpt lat="43.31715" lon="2.76417">
        <ele>183.27</ele>
        <time>2012-11-19T13:45:58Z</time>
      </trkpt>
      <trkpt lat="43.31725" lon="2.76427">
        <ele>183.75</ele>
        <time>2012-11-19T13:46:11Z</time>
      </trkpt>
      <trkpt lat="43.31726" lon="2.76429">
        <ele>184.23</ele>
        <time>2012-11-19T13:46:14Z</time>
      </trkpt>
      <trkpt lat="43.31726" lon="2.76432">
        <ele>184.23</ele>
        <time>2012-11-19T13:46:16Z</time>
      </trkpt>
      <trkpt lat="43.3173" lon="2.76443">
        <ele>184.71</ele>
        <time>2012-11-19T13:46:25Z</time>
      </trkpt>
      <trkpt lat="43.31732" lon="2.76448">
        <ele>185.19</ele>
        <time>2012-11-19T13:46:29Z</time>
      </trkpt>
      <trkpt lat="43.31734" lon="2.76454">
        <ele>185.67</ele>
        <time>2012-11-19T13:46:33Z</time>
      </trkpt>
      <trkpt lat="43.31735" lon="2.76458">
        <ele>186.15</ele>
        <time>2012-11-19T13:46:36Z</time>
      </trkpt>
      <trkpt lat="43.31737" lon="2.7646">
        <ele>186.15</ele>
        <time>2012-11-19T13:46:38Z</time>
      </trkpt>
      <trkpt lat="43.31739" lon="2.76464">
        <ele>185.67</ele>
        <time>2012-11-19T13:46:43Z</time>
      </trkpt>
      <trkpt lat="43.31746" lon="2.76478">
        <ele>187.11</ele>
        <time>2012-11-19T13:46:55Z</time>
      </trkpt>
      <trkpt lat="43.31746" lon="2.76481">
        <ele>187.11</ele>
        <time>2012-11-19T13:46:57Z</time>
      </trkpt>
      <trkpt lat="43.3175" lon="2.76489">
        <ele>187.59</ele>
        <time>2012-11-19T13:47:04Z</time>
      </trkpt>
      <trkpt lat="43.31756" lon="2.76504">
        <ele>188.08</ele>
        <time>2012-11-19T13:47:17Z</time>
      </trkpt>
      <trkpt lat="43.31758" lon="2.76509">
        <ele>188.56</ele>
        <time>2012-11-19T13:47:21Z</time>
      </trkpt>
      <trkpt lat="43.3176" lon="2.76513">
        <ele>189.04</ele>
        <time>2012-11-19T13:47:25Z</time>
      </trkpt>
      <trkpt lat="43.31761" lon="2.76516">
        <ele>189.04</ele>
        <time>2012-11-19T13:47:28Z</time>
      </trkpt>
      <trkpt lat="43.31764" lon="2.7652">
        <ele>189.04</ele>
        <time>2012-11-19T13:47:32Z</time>
      </trkpt>
      <trkpt lat="43.31771" lon="2.7653">
        <ele>190</ele>
        <time>2012-11-19T13:47:43Z</time>
      </trkpt>
      <trkpt lat="43.31774" lon="2.76532">
        <ele>190</ele>
        <time>2012-11-19T13:47:47Z</time>
      </trkpt>
      <trkpt lat="43.31778" lon="2.76538">
        <ele>190</ele>
        <time>2012-11-19T13:47:56Z</time>
      </trkpt>
      <trkpt lat="43.31782" lon="2.76542">
        <ele>189.52</ele>
        <time>2012-11-19T13:48:02Z</time>
      </trkpt>
      <trkpt lat="43.31784" lon="2.76546">
        <ele>190</ele>
        <time>2012-11-19T13:48:06Z</time>
      </trkpt>
      <trkpt lat="43.31796" lon="2.76559">
        <ele>190</ele>
        <time>2012-11-19T13:48:19Z</time>
      </trkpt>
      <trkpt lat="43.31796" lon="2.76559">
        <ele>190</ele>
        <time>2012-11-19T13:48:20Z</time>
      </trkpt>
      <trkpt lat="43.31798" lon="2.76562">
        <ele>189.52</ele>
        <time>2012-11-19T13:48:23Z</time>
      </trkpt>
      <trkpt lat="43.31803" lon="2.7657">
        <ele>190</ele>
        <time>2012-11-19T13:48:30Z</time>
      </trkpt>
      <trkpt lat="43.31813" lon="2.7658">
        <ele>190.48</ele>
        <time>2012-11-19T13:48:43Z</time>
      </trkpt>
      <trkpt lat="43.31816" lon="2.76585">
        <ele>190.96</ele>
        <time>2012-11-19T13:48:48Z</time>
      </trkpt>
      <trkpt lat="43.31818" lon="2.76587">
        <ele>190.48</ele>
        <time>2012-11-19T13:48:50Z</time>
      </trkpt>
      <trkpt lat="43.31823" lon="2.76592">
        <ele>190.96</ele>
        <time>2012-11-19T13:48:57Z</time>
      </trkpt>
      <trkpt lat="43.31825" lon="2.76595">
        <ele>191.44</ele>
        <time>2012-11-19T13:49:01Z</time>
      </trkpt>
      <trkpt lat="43.31835" lon="2.76605">
        <ele>192.4</ele>
        <time>2012-11-19T13:49:14Z</time>
      </trkpt>
      <trkpt lat="43.31837" lon="2.76607">
        <ele>192.4</ele>
        <time>2012-11-19T13:49:16Z</time>
      </trkpt>
      <trkpt lat="43.3184" lon="2.76609">
        <ele>192.88</ele>
        <time>2012-11-19T13:49:21Z</time>
      </trkpt>
      <trkpt lat="43.31847" lon="2.7662">
        <ele>193.36</ele>
        <time>2012-11-19T13:49:34Z</time>
      </trkpt>
      <trkpt lat="43.31847" lon="2.76624">
        <ele>193.36</ele>
        <time>2012-11-19T13:49:37Z</time>
      </trkpt>
      <trkpt lat="43.31849" lon="2.76647">
        <ele>193.36</ele>
        <time>2012-11-19T13:49:50Z</time>
      </trkpt>
      <trkpt lat="43.31851" lon="2.7666">
        <ele>193.36</ele>
        <time>2012-11-19T13:50:03Z</time>
      </trkpt>
      <trkpt lat="43.31848" lon="2.76672">
        <ele>192.4</ele>
        <time>2012-11-19T13:50:11Z</time>
      </trkpt>
      <trkpt lat="43.31844" lon="2.76685">
        <ele>191.92</ele>
        <time>2012-11-19T13:50:22Z</time>
      </trkpt>
      <trkpt lat="43.31844" lon="2.76688">
        <ele>191.92</ele>
        <time>2012-11-19T13:50:28Z</time>
      </trkpt>
      <trkpt lat="43.31845" lon="2.76694">
        <ele>191.44</ele>
        <time>2012-11-19T13:50:33Z</time>
      </trkpt>
      <trkpt lat="43.31848" lon="2.76697">
        <ele>190.96</ele>
        <time>2012-11-19T13:50:37Z</time>
      </trkpt>
      <trkpt lat="43.31852" lon="2.76697">
        <ele>190.96</ele>
        <time>2012-11-19T13:50:41Z</time>
      </trkpt>
      <trkpt lat="43.31859" lon="2.76698">
        <ele>191.44</ele>
        <time>2012-11-19T13:50:47Z</time>
      </trkpt>
      <trkpt lat="43.31866" lon="2.76698">
        <ele>190.96</ele>
        <time>2012-11-19T13:50:56Z</time>
      </trkpt>
      <trkpt lat="43.31868" lon="2.76699">
        <ele>190.48</ele>
        <time>2012-11-19T13:50:58Z</time>
      </trkpt>
      <trkpt lat="43.31873" lon="2.767">
        <ele>190.48</ele>
        <time>2012-11-19T13:51:05Z</time>
      </trkpt>
      <trkpt lat="43.31879" lon="2.76703">
        <ele>190.48</ele>
        <time>2012-11-19T13:51:11Z</time>
      </trkpt>
      <trkpt lat="43.31886" lon="2.76704">
        <ele>190</ele>
        <time>2012-11-19T13:51:19Z</time>
      </trkpt>
      <trkpt lat="43.31889" lon="2.76705">
        <ele>190</ele>
        <time>2012-11-19T13:51:22Z</time>
      </trkpt>
      <trkpt lat="43.31893" lon="2.76706">
        <ele>190</ele>
        <time>2012-11-19T13:51:25Z</time>
      </trkpt>
      <trkpt lat="43.31898" lon="2.76708">
        <ele>190</ele>
        <time>2012-11-19T13:51:29Z</time>
      </trkpt>
      <trkpt lat="43.31906" lon="2.76712">
        <ele>190.48</ele>
        <time>2012-11-19T13:51:41Z</time>
      </trkpt>
      <trkpt lat="43.31908" lon="2.76713">
        <ele>190.48</ele>
        <time>2012-11-19T13:51:44Z</time>
      </trkpt>
      <trkpt lat="43.3191" lon="2.76715">
        <ele>190.48</ele>
        <time>2012-11-19T13:51:46Z</time>
      </trkpt>
      <trkpt lat="43.31913" lon="2.76717">
        <ele>190.96</ele>
        <time>2012-11-19T13:51:49Z</time>
      </trkpt>
      <trkpt lat="43.31915" lon="2.76718">
        <ele>190.48</ele>
        <time>2012-11-19T13:51:52Z</time>
      </trkpt>
      <trkpt lat="43.31932" lon="2.76729">
        <ele>191.44</ele>
        <time>2012-11-19T13:52:07Z</time>
      </trkpt>
      <trkpt lat="43.31933" lon="2.7673">
        <ele>190.96</ele>
        <time>2012-11-19T13:52:09Z</time>
      </trkpt>
      <trkpt lat="43.31937" lon="2.7673">
        <ele>191.44</ele>
        <time>2012-11-19T13:52:13Z</time>
      </trkpt>
      <trkpt lat="43.31947" lon="2.76732">
        <ele>191.44</ele>
        <time>2012-11-19T13:52:25Z</time>
      </trkpt>
      <trkpt lat="43.31947" lon="2.76731">
        <ele>190.96</ele>
        <time>2012-11-19T13:52:42Z</time>
      </trkpt>
      <trkpt lat="43.31947" lon="2.76731">
        <ele>190.96</ele>
        <time>2012-11-19T13:52:50Z</time>
      </trkpt>
      <trkpt lat="43.3195" lon="2.76731">
        <ele>190.96</ele>
        <time>2012-11-19T13:52:54Z</time>
      </trkpt>
      <trkpt lat="43.31953" lon="2.76733">
        <ele>190.96</ele>
        <time>2012-11-19T13:52:57Z</time>
      </trkpt>
      <trkpt lat="43.31962" lon="2.76745">
        <ele>191.44</ele>
        <time>2012-11-19T13:53:06Z</time>
      </trkpt>
      <trkpt lat="43.31964" lon="2.76753">
        <ele>191.92</ele>
        <time>2012-11-19T13:53:10Z</time>
      </trkpt>
      <trkpt lat="43.31967" lon="2.76758">
        <ele>191.92</ele>
        <time>2012-11-19T13:53:14Z</time>
      </trkpt>
      <trkpt lat="43.31971" lon="2.76771">
        <ele>192.88</ele>
        <time>2012-11-19T13:53:26Z</time>
      </trkpt>
      <trkpt lat="43.31972" lon="2.76774">
        <ele>193.36</ele>
        <time>2012-11-19T13:53:28Z</time>
      </trkpt>
      <trkpt lat="43.31973" lon="2.76786">
        <ele>194.32</ele>
        <time>2012-11-19T13:53:39Z</time>
      </trkpt>
      <trkpt lat="43.3197" lon="2.76798">
        <ele>195.28</ele>
        <time>2012-11-19T13:53:49Z</time>
      </trkpt>
      <trkpt lat="43.31969" lon="2.76803">
        <ele>195.77</ele>
        <time>2012-11-19T13:53:53Z</time>
      </trkpt>
      <trkpt lat="43.31969" lon="2.7681">
        <ele>196.25</ele>
        <time>2012-11-19T13:53:58Z</time>
      </trkpt>
      <trkpt lat="43.31963" lon="2.76825">
        <ele>197.21</ele>
        <time>2012-11-19T13:54:11Z</time>
      </trkpt>
      <trkpt lat="43.31962" lon="2.76825">
        <ele>198.17</ele>
        <time>2012-11-19T13:54:24Z</time>
      </trkpt>
      <trkpt lat="43.31962" lon="2.76825">
        <ele>197.69</ele>
        <time>2012-11-19T13:54:36Z</time>
      </trkpt>
      <trkpt lat="43.3196" lon="2.76829">
        <ele>197.69</ele>
        <time>2012-11-19T13:54:40Z</time>
      </trkpt>
      <trkpt lat="43.31952" lon="2.76843">
        <ele>197.69</ele>
        <time>2012-11-19T13:54:52Z</time>
      </trkpt>
      <trkpt lat="43.31947" lon="2.76852">
        <ele>198.17</ele>
        <time>2012-11-19T13:54:58Z</time>
      </trkpt>
      <trkpt lat="43.31944" lon="2.7686">
        <ele>198.17</ele>
        <time>2012-11-19T13:55:03Z</time>
      </trkpt>
      <trkpt lat="43.31934" lon="2.76879">
        <ele>198.65</ele>
        <time>2012-11-19T13:55:16Z</time>
      </trkpt>
      <trkpt lat="43.31933" lon="2.76883">
        <ele>198.65</ele>
        <time>2012-11-19T13:55:19Z</time>
      </trkpt>
      <trkpt lat="43.31917" lon="2.76897">
        <ele>199.13</ele>
        <time>2012-11-19T13:55:33Z</time>
      </trkpt>
      <trkpt lat="43.31914" lon="2.76899">
        <ele>199.13</ele>
        <time>2012-11-19T13:55:44Z</time>
      </trkpt>
      <trkpt lat="43.31907" lon="2.76903">
        <ele>199.13</ele>
        <time>2012-11-19T13:55:50Z</time>
      </trkpt>
      <trkpt lat="43.31904" lon="2.76906">
        <ele>199.13</ele>
        <time>2012-11-19T13:55:53Z</time>
      </trkpt>
      <trkpt lat="43.31896" lon="2.76913">
        <ele>198.65</ele>
        <time>2012-11-19T13:56:01Z</time>
      </trkpt>
      <trkpt lat="43.31893" lon="2.76915">
        <ele>198.65</ele>
        <time>2012-11-19T13:56:04Z</time>
      </trkpt>
      <trkpt lat="43.31883" lon="2.76925">
        <ele>196.73</ele>
        <time>2012-11-19T13:56:14Z</time>
      </trkpt>
      <trkpt lat="43.31879" lon="2.7693">
        <ele>196.25</ele>
        <time>2012-11-19T13:56:19Z</time>
      </trkpt>
      <trkpt lat="43.31877" lon="2.76937">
        <ele>195.28</ele>
        <time>2012-11-19T13:56:33Z</time>
      </trkpt>
      <trkpt lat="43.31877" lon="2.7694">
        <ele>194.8</ele>
        <time>2012-11-19T13:56:35Z</time>
      </trkpt>
      <trkpt lat="43.31882" lon="2.76959">
        <ele>192.88</ele>
        <time>2012-11-19T13:56:48Z</time>
      </trkpt>
      <trkpt lat="43.31891" lon="2.76974">
        <ele>191.44</ele>
        <time>2012-11-19T13:56:59Z</time>
      </trkpt>
      <trkpt lat="43.31893" lon="2.76978">
        <ele>190.96</ele>
        <time>2012-11-19T13:57:03Z</time>
      </trkpt>
      <trkpt lat="43.31898" lon="2.76987">
        <ele>190.48</ele>
        <time>2012-11-19T13:57:10Z</time>
      </trkpt>
      <trkpt lat="43.31901" lon="2.7699">
        <ele>190</ele>
        <time>2012-11-19T13:57:13Z</time>
      </trkpt>
      <trkpt lat="43.31905" lon="2.76992">
        <ele>190.48</ele>
        <time>2012-11-19T13:57:16Z</time>
      </trkpt>
      <trkpt lat="43.31914" lon="2.7699">
        <ele>189.04</ele>
        <time>2012-11-19T13:57:25Z</time>
      </trkpt>
      <trkpt lat="43.31918" lon="2.76989">
        <ele>189.52</ele>
        <time>2012-11-19T13:57:29Z</time>
      </trkpt>
      <trkpt lat="43.31919" lon="2.7699">
        <ele>189.52</ele>
        <time>2012-11-19T13:57:31Z</time>
      </trkpt>
      <trkpt lat="43.31924" lon="2.76988">
        <ele>190</ele>
        <time>2012-11-19T13:57:36Z</time>
      </trkpt>
      <trkpt lat="43.31931" lon="2.76991">
        <ele>190</ele>
        <time>2012-11-19T13:57:43Z</time>
      </trkpt>
      <trkpt lat="43.31934" lon="2.77001">
        <ele>190</ele>
        <time>2012-11-19T13:57:48Z</time>
      </trkpt>
      <trkpt lat="43.31932" lon="2.7701">
        <ele>190</ele>
        <time>2012-11-19T13:57:53Z</time>
      </trkpt>
      <trkpt lat="43.3193" lon="2.77022">
        <ele>190.48</ele>
        <time>2012-11-19T13:58:01Z</time>
      </trkpt>
      <trkpt lat="43.31932" lon="2.77026">
        <ele>190.48</ele>
        <time>2012-11-19T13:58:05Z</time>
      </trkpt>
      <trkpt lat="43.31934" lon="2.77033">
        <ele>190.96</ele>
        <time>2012-11-19T13:58:10Z</time>
      </trkpt>
      <trkpt lat="43.31933" lon="2.77054">
        <ele>190.96</ele>
        <time>2012-11-19T13:58:24Z</time>
      </trkpt>
      <trkpt lat="43.31932" lon="2.7706">
        <ele>191.44</ele>
        <time>2012-11-19T13:58:28Z</time>
      </trkpt>
      <trkpt lat="43.31921" lon="2.77075">
        <ele>191.44</ele>
        <time>2012-11-19T13:58:42Z</time>
      </trkpt>
      <trkpt lat="43.31911" lon="2.77088">
        <ele>192.4</ele>
        <time>2012-11-19T13:58:55Z</time>
      </trkpt>
      <trkpt lat="43.31908" lon="2.77106">
        <ele>192.88</ele>
        <time>2012-11-19T13:59:08Z</time>
      </trkpt>
      <trkpt lat="43.31905" lon="2.77122">
        <ele>193.36</ele>
        <time>2012-11-19T13:59:20Z</time>
      </trkpt>
      <trkpt lat="43.31901" lon="2.77136">
        <ele>193.36</ele>
        <time>2012-11-19T13:59:31Z</time>
      </trkpt>
      <trkpt lat="43.319" lon="2.77145">
        <ele>194.32</ele>
        <time>2012-11-19T13:59:39Z</time>
      </trkpt>
      <trkpt lat="43.31899" lon="2.77151">
        <ele>194.8</ele>
        <time>2012-11-19T13:59:43Z</time>
      </trkpt>
      <trkpt lat="43.31896" lon="2.77161">
        <ele>194.8</ele>
        <time>2012-11-19T13:59:53Z</time>
      </trkpt>
      <trkpt lat="43.31887" lon="2.77173">
        <ele>195.77</ele>
        <time>2012-11-19T14:00:05Z</time>
      </trkpt>
      <trkpt lat="43.31884" lon="2.77176">
        <ele>196.25</ele>
        <time>2012-11-19T14:00:09Z</time>
      </trkpt>
      <trkpt lat="43.31876" lon="2.77191">
        <ele>196.25</ele>
        <time>2012-11-19T14:00:22Z</time>
      </trkpt>
      <trkpt lat="43.31875" lon="2.77195">
        <ele>196.73</ele>
        <time>2012-11-19T14:00:25Z</time>
      </trkpt>
      <trkpt lat="43.31867" lon="2.77211">
        <ele>197.21</ele>
        <time>2012-11-19T14:00:38Z</time>
      </trkpt>
      <trkpt lat="43.31865" lon="2.77216">
        <ele>197.21</ele>
        <time>2012-11-19T14:00:42Z</time>
      </trkpt>
      <trkpt lat="43.31863" lon="2.77221">
        <ele>197.69</ele>
        <time>2012-11-19T14:00:45Z</time>
      </trkpt>
      <trkpt lat="43.31861" lon="2.7723">
        <ele>197.69</ele>
        <time>2012-11-19T14:00:52Z</time>
      </trkpt>
      <trkpt lat="43.31856" lon="2.77245">
        <ele>197.69</ele>
        <time>2012-11-19T14:01:03Z</time>
      </trkpt>
      <trkpt lat="43.31852" lon="2.77259">
        <ele>198.65</ele>
        <time>2012-11-19T14:01:14Z</time>
      </trkpt>
      <trkpt lat="43.31852" lon="2.7726">
        <ele>199.13</ele>
        <time>2012-11-19T14:01:15Z</time>
      </trkpt>
      <trkpt lat="43.31851" lon="2.77264">
        <ele>199.13</ele>
        <time>2012-11-19T14:01:18Z</time>
      </trkpt>
      <trkpt lat="43.31849" lon="2.77272">
        <ele>198.65</ele>
        <time>2012-11-19T14:01:23Z</time>
      </trkpt>
      <trkpt lat="43.31846" lon="2.77294">
        <ele>197.69</ele>
        <time>2012-11-19T14:01:37Z</time>
      </trkpt>
      <trkpt lat="43.31846" lon="2.77295">
        <ele>197.69</ele>
        <time>2012-11-19T14:01:38Z</time>
      </trkpt>
      <trkpt lat="43.31846" lon="2.77301">
        <ele>197.69</ele>
        <time>2012-11-19T14:01:42Z</time>
      </trkpt>
      <trkpt lat="43.31847" lon="2.77307">
        <ele>197.21</ele>
        <time>2012-11-19T14:01:47Z</time>
      </trkpt>
      <trkpt lat="43.31854" lon="2.77319">
        <ele>197.21</ele>
        <time>2012-11-19T14:01:59Z</time>
      </trkpt>
      <trkpt lat="43.31858" lon="2.77327">
        <ele>196.73</ele>
        <time>2012-11-19T14:02:05Z</time>
      </trkpt>
      <trkpt lat="43.31862" lon="2.77334">
        <ele>196.73</ele>
        <time>2012-11-19T14:02:11Z</time>
      </trkpt>
      <trkpt lat="43.31863" lon="2.77338">
        <ele>196.73</ele>
        <time>2012-11-19T14:02:14Z</time>
      </trkpt>
      <trkpt lat="43.31867" lon="2.77346">
        <ele>196.73</ele>
        <time>2012-11-19T14:02:24Z</time>
      </trkpt>
      <trkpt lat="43.31879" lon="2.77359">
        <ele>196.73</ele>
        <time>2012-11-19T14:02:37Z</time>
      </trkpt>
      <trkpt lat="43.3188" lon="2.77361">
        <ele>196.73</ele>
        <time>2012-11-19T14:02:39Z</time>
      </trkpt>
      <trkpt lat="43.31887" lon="2.77374">
        <ele>196.73</ele>
        <time>2012-11-19T14:02:51Z</time>
      </trkpt>
      <trkpt lat="43.319" lon="2.77382">
        <ele>197.21</ele>
        <time>2012-11-19T14:03:05Z</time>
      </trkpt>
      <trkpt lat="43.31911" lon="2.77387">
        <ele>197.69</ele>
        <time>2012-11-19T14:03:16Z</time>
      </trkpt>
      <trkpt lat="43.31922" lon="2.77392">
        <ele>198.17</ele>
        <time>2012-11-19T14:03:27Z</time>
      </trkpt>
      <trkpt lat="43.31929" lon="2.77397">
        <ele>198.65</ele>
        <time>2012-11-19T14:03:35Z</time>
      </trkpt>
      <trkpt lat="43.31935" lon="2.77405">
        <ele>199.13</ele>
        <time>2012-11-19T14:03:43Z</time>
      </trkpt>
      <trkpt lat="43.31936" lon="2.7742">
        <ele>199.61</ele>
        <time>2012-11-19T14:03:57Z</time>
      </trkpt>
      <trkpt lat="43.31937" lon="2.77422">
        <ele>200.09</ele>
        <time>2012-11-19T14:03:59Z</time>
      </trkpt>
      <trkpt lat="43.31937" lon="2.77426">
        <ele>199.61</ele>
        <time>2012-11-19T14:04:01Z</time>
      </trkpt>
      <trkpt lat="43.31937" lon="2.77429">
        <ele>200.09</ele>
        <time>2012-11-19T14:04:03Z</time>
      </trkpt>
      <trkpt lat="43.31938" lon="2.77438">
        <ele>200.57</ele>
        <time>2012-11-19T14:04:11Z</time>
      </trkpt>
      <trkpt lat="43.31938" lon="2.77443">
        <ele>200.57</ele>
        <time>2012-11-19T14:04:14Z</time>
      </trkpt>
      <trkpt lat="43.31938" lon="2.77448">
        <ele>200.57</ele>
        <time>2012-11-19T14:04:18Z</time>
      </trkpt>
      <trkpt lat="43.31936" lon="2.77458">
        <ele>200.57</ele>
        <time>2012-11-19T14:04:25Z</time>
      </trkpt>
      <trkpt lat="43.31935" lon="2.77464">
        <ele>200.57</ele>
        <time>2012-11-19T14:04:29Z</time>
      </trkpt>
      <trkpt lat="43.31934" lon="2.77468">
        <ele>201.53</ele>
        <time>2012-11-19T14:04:33Z</time>
      </trkpt>
      <trkpt lat="43.3193" lon="2.77481">
        <ele>202.49</ele>
        <time>2012-11-19T14:04:44Z</time>
      </trkpt>
      <trkpt lat="43.31929" lon="2.77488">
        <ele>202.98</ele>
        <time>2012-11-19T14:04:49Z</time>
      </trkpt>
      <trkpt lat="43.31927" lon="2.77491">
        <ele>203.46</ele>
        <time>2012-11-19T14:04:52Z</time>
      </trkpt>
      <trkpt lat="43.31927" lon="2.77498">
        <ele>203.46</ele>
        <time>2012-11-19T14:04:57Z</time>
      </trkpt>
      <trkpt lat="43.31926" lon="2.77516">
        <ele>204.9</ele>
        <time>2012-11-19T14:05:10Z</time>
      </trkpt>
      <trkpt lat="43.31922" lon="2.7753">
        <ele>205.38</ele>
        <time>2012-11-19T14:05:21Z</time>
      </trkpt>
      <trkpt lat="43.31919" lon="2.77537">
        <ele>206.34</ele>
        <time>2012-11-19T14:05:28Z</time>
      </trkpt>
      <trkpt lat="43.31918" lon="2.77541">
        <ele>206.34</ele>
        <time>2012-11-19T14:05:31Z</time>
      </trkpt>
      <trkpt lat="43.31908" lon="2.77554">
        <ele>207.78</ele>
        <time>2012-11-19T14:05:44Z</time>
      </trkpt>
      <trkpt lat="43.31905" lon="2.77558">
        <ele>207.78</ele>
        <time>2012-11-19T14:05:57Z</time>
      </trkpt>
      <trkpt lat="43.31904" lon="2.77559">
        <ele>207.3</ele>
        <time>2012-11-19T14:06:07Z</time>
      </trkpt>
      <trkpt lat="43.31903" lon="2.77561">
        <ele>207.78</ele>
        <time>2012-11-19T14:06:09Z</time>
      </trkpt>
      <trkpt lat="43.31902" lon="2.77566">
        <ele>207.78</ele>
        <time>2012-11-19T14:06:12Z</time>
      </trkpt>
      <trkpt lat="43.31903" lon="2.77575">
        <ele>208.26</ele>
        <time>2012-11-19T14:06:18Z</time>
      </trkpt>
      <trkpt lat="43.31904" lon="2.77579">
        <ele>207.78</ele>
        <time>2012-11-19T14:06:21Z</time>
      </trkpt>
      <trkpt lat="43.31906" lon="2.77588">
        <ele>207.3</ele>
        <time>2012-11-19T14:06:28Z</time>
      </trkpt>
      <trkpt lat="43.31904" lon="2.77605">
        <ele>207.78</ele>
        <time>2012-11-19T14:06:40Z</time>
      </trkpt>
      <trkpt lat="43.31904" lon="2.7761">
        <ele>207.78</ele>
        <time>2012-11-19T14:06:44Z</time>
      </trkpt>
      <trkpt lat="43.31902" lon="2.77614">
        <ele>207.78</ele>
        <time>2012-11-19T14:06:52Z</time>
      </trkpt>
      <trkpt lat="43.31902" lon="2.77616">
        <ele>207.3</ele>
        <time>2012-11-19T14:06:54Z</time>
      </trkpt>
      <trkpt lat="43.31904" lon="2.77636">
        <ele>208.26</ele>
        <time>2012-11-19T14:07:07Z</time>
      </trkpt>
      <trkpt lat="43.31906" lon="2.77644">
        <ele>209.22</ele>
        <time>2012-11-19T14:07:13Z</time>
      </trkpt>
      <trkpt lat="43.31907" lon="2.77646">
        <ele>209.22</ele>
        <time>2012-11-19T14:07:15Z</time>
      </trkpt>
      <trkpt lat="43.31909" lon="2.77658">
        <ele>209.7</ele>
        <time>2012-11-19T14:07:23Z</time>
      </trkpt>
      <trkpt lat="43.31914" lon="2.77677">
        <ele>209.7</ele>
        <time>2012-11-19T14:07:36Z</time>
      </trkpt>
      <trkpt lat="43.31917" lon="2.77689">
        <ele>209.7</ele>
        <time>2012-11-19T14:07:47Z</time>
      </trkpt>
      <trkpt lat="43.31919" lon="2.77694">
        <ele>209.22</ele>
        <time>2012-11-19T14:07:55Z</time>
      </trkpt>
      <trkpt lat="43.31921" lon="2.77697">
        <ele>209.22</ele>
        <time>2012-11-19T14:07:58Z</time>
      </trkpt>
      <trkpt lat="43.31921" lon="2.77701">
        <ele>208.74</ele>
        <time>2012-11-19T14:08:01Z</time>
      </trkpt>
      <trkpt lat="43.31923" lon="2.77709">
        <ele>208.26</ele>
        <time>2012-11-19T14:08:07Z</time>
      </trkpt>
      <trkpt lat="43.31925" lon="2.77722">
        <ele>206.82</ele>
        <time>2012-11-19T14:08:20Z</time>
      </trkpt>
      <trkpt lat="43.31925" lon="2.77723">
        <ele>206.82</ele>
        <time>2012-11-19T14:08:21Z</time>
      </trkpt>
      <trkpt lat="43.31931" lon="2.77739">
        <ele>204.9</ele>
        <time>2012-11-19T14:08:35Z</time>
      </trkpt>
      <trkpt lat="43.31934" lon="2.77754">
        <ele>203.46</ele>
        <time>2012-11-19T14:08:48Z</time>
      </trkpt>
      <trkpt lat="43.31938" lon="2.77769">
        <ele>202.01</ele>
        <time>2012-11-19T14:08:58Z</time>
      </trkpt>
      <trkpt lat="43.31942" lon="2.77778">
        <ele>202.01</ele>
        <time>2012-11-19T14:09:06Z</time>
      </trkpt>
      <trkpt lat="43.31944" lon="2.77784">
        <ele>202.01</ele>
        <time>2012-11-19T14:09:20Z</time>
      </trkpt>
      <trkpt lat="43.31944" lon="2.77785">
        <ele>202.01</ele>
        <time>2012-11-19T14:09:21Z</time>
      </trkpt>
      <trkpt lat="43.31946" lon="2.77795">
        <ele>201.53</ele>
        <time>2012-11-19T14:09:36Z</time>
      </trkpt>
      <trkpt lat="43.31945" lon="2.77798">
        <ele>202.01</ele>
        <time>2012-11-19T14:09:59Z</time>
      </trkpt>
      <trkpt lat="43.31945" lon="2.77799">
        <ele>202.01</ele>
        <time>2012-11-19T14:10:00Z</time>
      </trkpt>
      <trkpt lat="43.31948" lon="2.77808">
        <ele>201.53</ele>
        <time>2012-11-19T14:10:06Z</time>
      </trkpt>
      <trkpt lat="43.31948" lon="2.77811">
        <ele>201.53</ele>
        <time>2012-11-19T14:10:08Z</time>
      </trkpt>
      <trkpt lat="43.3195" lon="2.7782">
        <ele>202.01</ele>
        <time>2012-11-19T14:10:14Z</time>
      </trkpt>
      <trkpt lat="43.3195" lon="2.77823">
        <ele>202.01</ele>
        <time>2012-11-19T14:10:16Z</time>
      </trkpt>
      <trkpt lat="43.31956" lon="2.77837">
        <ele>202.98</ele>
        <time>2012-11-19T14:10:28Z</time>
      </trkpt>
      <trkpt lat="43.31956" lon="2.77839">
        <ele>202.98</ele>
        <time>2012-11-19T14:10:29Z</time>
      </trkpt>
      <trkpt lat="43.31957" lon="2.77845">
        <ele>203.46</ele>
        <time>2012-11-19T14:10:32Z</time>
      </trkpt>
      <trkpt lat="43.31956" lon="2.77865">
        <ele>203.94</ele>
        <time>2012-11-19T14:10:47Z</time>
      </trkpt>
      <trkpt lat="43.31957" lon="2.77869">
        <ele>203.94</ele>
        <time>2012-11-19T14:10:50Z</time>
      </trkpt>
      <trkpt lat="43.31958" lon="2.77876">
        <ele>203.46</ele>
        <time>2012-11-19T14:10:54Z</time>
      </trkpt>
      <trkpt lat="43.31957" lon="2.77885">
        <ele>202.01</ele>
        <time>2012-11-19T14:11:00Z</time>
      </trkpt>
      <trkpt lat="43.31955" lon="2.77888">
        <ele>202.01</ele>
        <time>2012-11-19T14:11:03Z</time>
      </trkpt>
      <trkpt lat="43.31954" lon="2.77906">
        <ele>200.09</ele>
        <time>2012-11-19T14:11:15Z</time>
      </trkpt>
      <trkpt lat="43.31951" lon="2.77919">
        <ele>199.13</ele>
        <time>2012-11-19T14:11:23Z</time>
      </trkpt>
      <trkpt lat="43.31949" lon="2.77934">
        <ele>197.69</ele>
        <time>2012-11-19T14:11:31Z</time>
      </trkpt>
      <trkpt lat="43.3195" lon="2.77949">
        <ele>197.21</ele>
        <time>2012-11-19T14:11:41Z</time>
      </trkpt>
      <trkpt lat="43.31952" lon="2.77953">
        <ele>196.25</ele>
        <time>2012-11-19T14:11:45Z</time>
      </trkpt>
      <trkpt lat="43.31952" lon="2.77956">
        <ele>196.73</ele>
        <time>2012-11-19T14:11:47Z</time>
      </trkpt>
      <trkpt lat="43.31958" lon="2.7797">
        <ele>196.25</ele>
        <time>2012-11-19T14:11:58Z</time>
      </trkpt>
      <trkpt lat="43.31958" lon="2.77971">
        <ele>196.25</ele>
        <time>2012-11-19T14:11:59Z</time>
      </trkpt>
      <trkpt lat="43.31962" lon="2.77979">
        <ele>196.25</ele>
        <time>2012-11-19T14:12:06Z</time>
      </trkpt>
      <trkpt lat="43.31967" lon="2.77987">
        <ele>196.25</ele>
        <time>2012-11-19T14:12:14Z</time>
      </trkpt>
      <trkpt lat="43.31976" lon="2.77994">
        <ele>196.25</ele>
        <time>2012-11-19T14:12:23Z</time>
      </trkpt>
      <trkpt lat="43.3198" lon="2.77997">
        <ele>195.77</ele>
        <time>2012-11-19T14:12:28Z</time>
      </trkpt>
      <trkpt lat="43.31988" lon="2.78001">
        <ele>196.25</ele>
        <time>2012-11-19T14:12:35Z</time>
      </trkpt>
      <trkpt lat="43.31999" lon="2.78008">
        <ele>195.77</ele>
        <time>2012-11-19T14:12:48Z</time>
      </trkpt>
      <trkpt lat="43.32003" lon="2.78007">
        <ele>195.77</ele>
        <time>2012-11-19T14:12:53Z</time>
      </trkpt>
      <trkpt lat="43.32006" lon="2.78008">
        <ele>195.77</ele>
        <time>2012-11-19T14:12:56Z</time>
      </trkpt>
      <trkpt lat="43.32014" lon="2.78021">
        <ele>196.25</ele>
        <time>2012-11-19T14:13:09Z</time>
      </trkpt>
      <trkpt lat="43.32014" lon="2.78021">
        <ele>196.25</ele>
        <time>2012-11-19T14:13:19Z</time>
      </trkpt>
      <trkpt lat="43.32014" lon="2.78022">
        <ele>196.25</ele>
        <time>2012-11-19T14:13:31Z</time>
      </trkpt>
      <trkpt lat="43.32013" lon="2.78022">
        <ele>196.25</ele>
        <time>2012-11-19T14:13:44Z</time>
      </trkpt>
      <trkpt lat="43.32015" lon="2.78029">
        <ele>196.25</ele>
        <time>2012-11-19T14:13:50Z</time>
      </trkpt>
      <trkpt lat="43.32019" lon="2.78037">
        <ele>196.25</ele>
        <time>2012-11-19T14:13:58Z</time>
      </trkpt>
      <trkpt lat="43.32023" lon="2.78045">
        <ele>196.25</ele>
        <time>2012-11-19T14:14:08Z</time>
      </trkpt>
      <trkpt lat="43.32022" lon="2.78047">
        <ele>196.25</ele>
        <time>2012-11-19T14:14:21Z</time>
      </trkpt>
      <trkpt lat="43.32022" lon="2.78048">
        <ele>196.25</ele>
        <time>2012-11-19T14:14:38Z</time>
      </trkpt>
      <trkpt lat="43.32021" lon="2.78052">
        <ele>196.73</ele>
        <time>2012-11-19T14:14:49Z</time>
      </trkpt>
      <trkpt lat="43.32022" lon="2.78055">
        <ele>196.25</ele>
        <time>2012-11-19T14:14:51Z</time>
      </trkpt>
      <trkpt lat="43.32022" lon="2.78073">
        <ele>196.73</ele>
        <time>2012-11-19T14:15:03Z</time>
      </trkpt>
      <trkpt lat="43.32021" lon="2.78091">
        <ele>196.73</ele>
        <time>2012-11-19T14:15:14Z</time>
      </trkpt>
      <trkpt lat="43.3202" lon="2.78094">
        <ele>196.73</ele>
        <time>2012-11-19T14:15:17Z</time>
      </trkpt>
      <trkpt lat="43.32017" lon="2.78111">
        <ele>196.73</ele>
        <time>2012-11-19T14:15:28Z</time>
      </trkpt>
      <trkpt lat="43.32017" lon="2.78114">
        <ele>196.25</ele>
        <time>2012-11-19T14:15:30Z</time>
      </trkpt>
      <trkpt lat="43.32006" lon="2.78128">
        <ele>196.73</ele>
        <time>2012-11-19T14:15:43Z</time>
      </trkpt>
      <trkpt lat="43.31995" lon="2.78139">
        <ele>196.25</ele>
        <time>2012-11-19T14:15:56Z</time>
      </trkpt>
      <trkpt lat="43.3199" lon="2.78144">
        <ele>196.73</ele>
        <time>2012-11-19T14:16:02Z</time>
      </trkpt>
      <trkpt lat="43.31983" lon="2.78153">
        <ele>196.25</ele>
        <time>2012-11-19T14:16:12Z</time>
      </trkpt>
      <trkpt lat="43.31977" lon="2.78158">
        <ele>196.25</ele>
        <time>2012-11-19T14:16:18Z</time>
      </trkpt>
      <trkpt lat="43.31974" lon="2.7816">
        <ele>196.25</ele>
        <time>2012-11-19T14:16:21Z</time>
      </trkpt>
      <trkpt lat="43.31971" lon="2.78162">
        <ele>195.77</ele>
        <time>2012-11-19T14:16:24Z</time>
      </trkpt>
      <trkpt lat="43.31966" lon="2.78164">
        <ele>195.28</ele>
        <time>2012-11-19T14:16:30Z</time>
      </trkpt>
      <trkpt lat="43.31961" lon="2.78167">
        <ele>195.77</ele>
        <time>2012-11-19T14:16:36Z</time>
      </trkpt>
      <trkpt lat="43.31945" lon="2.78173">
        <ele>195.28</ele>
        <time>2012-11-19T14:16:50Z</time>
      </trkpt>
      <trkpt lat="43.31936" lon="2.7818">
        <ele>194.8</ele>
        <time>2012-11-19T14:17:01Z</time>
      </trkpt>
      <trkpt lat="43.31927" lon="2.78189">
        <ele>194.8</ele>
        <time>2012-11-19T14:17:11Z</time>
      </trkpt>
      <trkpt lat="43.3192" lon="2.78201">
        <ele>194.32</ele>
        <time>2012-11-19T14:17:22Z</time>
      </trkpt>
      <trkpt lat="43.31912" lon="2.78215">
        <ele>194.32</ele>
        <time>2012-11-19T14:17:35Z</time>
      </trkpt>
      <trkpt lat="43.31909" lon="2.7823">
        <ele>193.36</ele>
        <time>2012-11-19T14:17:51Z</time>
      </trkpt>
      <trkpt lat="43.3191" lon="2.7823">
        <ele>192.88</ele>
        <time>2012-11-19T14:17:52Z</time>
      </trkpt>
      <trkpt lat="43.31913" lon="2.78233">
        <ele>192.88</ele>
        <time>2012-11-19T14:17:57Z</time>
      </trkpt>
      <trkpt lat="43.31919" lon="2.78232">
        <ele>192.4</ele>
        <time>2012-11-19T14:18:04Z</time>
      </trkpt>
      <trkpt lat="43.31923" lon="2.78233">
        <ele>191.92</ele>
        <time>2012-11-19T14:18:09Z</time>
      </trkpt>
      <trkpt lat="43.31926" lon="2.78232">
        <ele>191.44</ele>
        <time>2012-11-19T14:18:12Z</time>
      </trkpt>
      <trkpt lat="43.31932" lon="2.78233">
        <ele>190.96</ele>
        <time>2012-11-19T14:18:18Z</time>
      </trkpt>
      <trkpt lat="43.31934" lon="2.78233">
        <ele>190.96</ele>
        <time>2012-11-19T14:18:21Z</time>
      </trkpt>
      <trkpt lat="43.31947" lon="2.78233">
        <ele>190.48</ele>
        <time>2012-11-19T14:18:34Z</time>
      </trkpt>
      <trkpt lat="43.31955" lon="2.78231">
        <ele>190</ele>
        <time>2012-11-19T14:18:42Z</time>
      </trkpt>
      <trkpt lat="43.31959" lon="2.78228">
        <ele>190.48</ele>
        <time>2012-11-19T14:18:46Z</time>
      </trkpt>
      <trkpt lat="43.3197" lon="2.78219">
        <ele>189.52</ele>
        <time>2012-11-19T14:18:58Z</time>
      </trkpt>
      <trkpt lat="43.3197" lon="2.78218">
        <ele>189.52</ele>
        <time>2012-11-19T14:18:59Z</time>
      </trkpt>
      <trkpt lat="43.31973" lon="2.78214">
        <ele>189.04</ele>
        <time>2012-11-19T14:19:03Z</time>
      </trkpt>
      <trkpt lat="43.31976" lon="2.7821">
        <ele>189.04</ele>
        <time>2012-11-19T14:19:06Z</time>
      </trkpt>
      <trkpt lat="43.31984" lon="2.78203">
        <ele>188.56</ele>
        <time>2012-11-19T14:19:14Z</time>
      </trkpt>
      <trkpt lat="43.3199" lon="2.78195">
        <ele>188.08</ele>
        <time>2012-11-19T14:19:22Z</time>
      </trkpt>
      <trkpt lat="43.31994" lon="2.78189">
        <ele>187.59</ele>
        <time>2012-11-19T14:19:27Z</time>
      </trkpt>
      <trkpt lat="43.31996" lon="2.78186">
        <ele>187.59</ele>
        <time>2012-11-19T14:19:30Z</time>
      </trkpt>
      <trkpt lat="43.31999" lon="2.78181">
        <ele>187.59</ele>
        <time>2012-11-19T14:19:35Z</time>
      </trkpt>
      <trkpt lat="43.32005" lon="2.78172">
        <ele>187.11</ele>
        <time>2012-11-19T14:19:43Z</time>
      </trkpt>
      <trkpt lat="43.32009" lon="2.78166">
        <ele>186.63</ele>
        <time>2012-11-19T14:19:49Z</time>
      </trkpt>
      <trkpt lat="43.32016" lon="2.78158">
        <ele>186.15</ele>
        <time>2012-11-19T14:19:57Z</time>
      </trkpt>
      <trkpt lat="43.32021" lon="2.78151">
        <ele>186.15</ele>
        <time>2012-11-19T14:20:03Z</time>
      </trkpt>
      <trkpt lat="43.3203" lon="2.78135">
        <ele>185.67</ele>
        <time>2012-11-19T14:20:16Z</time>
      </trkpt>
      <trkpt lat="43.32032" lon="2.78132">
        <ele>185.67</ele>
        <time>2012-11-19T14:20:19Z</time>
      </trkpt>
      <trkpt lat="43.32034" lon="2.78128">
        <ele>185.67</ele>
        <time>2012-11-19T14:20:22Z</time>
      </trkpt>
      <trkpt lat="43.32037" lon="2.78125">
        <ele>185.19</ele>
        <time>2012-11-19T14:20:25Z</time>
      </trkpt>
      <trkpt lat="43.32039" lon="2.78123">
        <ele>185.19</ele>
        <time>2012-11-19T14:20:28Z</time>
      </trkpt>
      <trkpt lat="43.32041" lon="2.7812">
        <ele>185.19</ele>
        <time>2012-11-19T14:20:31Z</time>
      </trkpt>
      <trkpt lat="43.32044" lon="2.78117">
        <ele>184.71</ele>
        <time>2012-11-19T14:20:34Z</time>
      </trkpt>
      <trkpt lat="43.32052" lon="2.78105">
        <ele>184.23</ele>
        <time>2012-11-19T14:20:45Z</time>
      </trkpt>
      <trkpt lat="43.32058" lon="2.78097">
        <ele>184.23</ele>
        <time>2012-11-19T14:20:52Z</time>
      </trkpt>
      <trkpt lat="43.32066" lon="2.78088">
        <ele>183.75</ele>
        <time>2012-11-19T14:21:02Z</time>
      </trkpt>
      <trkpt lat="43.32075" lon="2.78078">
        <ele>182.79</ele>
        <time>2012-11-19T14:21:12Z</time>
      </trkpt>
      <trkpt lat="43.32082" lon="2.78074">
        <ele>182.31</ele>
        <time>2012-11-19T14:21:20Z</time>
      </trkpt>
      <trkpt lat="43.32088" lon="2.78074">
        <ele>181.83</ele>
        <time>2012-11-19T14:21:26Z</time>
      </trkpt>
      <trkpt lat="43.32094" lon="2.78076">
        <ele>181.83</ele>
        <time>2012-11-19T14:21:32Z</time>
      </trkpt>
      <trkpt lat="43.32096" lon="2.78074">
        <ele>181.83</ele>
        <time>2012-11-19T14:21:34Z</time>
      </trkpt>
      <trkpt lat="43.32098" lon="2.78071">
        <ele>181.35</ele>
        <time>2012-11-19T14:21:37Z</time>
      </trkpt>
      <trkpt lat="43.321" lon="2.78068">
        <ele>181.35</ele>
        <time>2012-11-19T14:21:40Z</time>
      </trkpt>
      <trkpt lat="43.32102" lon="2.78066">
        <ele>181.35</ele>
        <time>2012-11-19T14:21:43Z</time>
      </trkpt>
      <trkpt lat="43.32104" lon="2.78062">
        <ele>181.83</ele>
        <time>2012-11-19T14:21:47Z</time>
      </trkpt>
      <trkpt lat="43.32115" lon="2.78051">
        <ele>181.83</ele>
        <time>2012-11-19T14:21:59Z</time>
      </trkpt>
      <trkpt lat="43.32124" lon="2.7804">
        <ele>182.31</ele>
        <time>2012-11-19T14:22:10Z</time>
      </trkpt>
      <trkpt lat="43.32125" lon="2.78039">
        <ele>182.79</ele>
        <time>2012-11-19T14:22:12Z</time>
      </trkpt>
      <trkpt lat="43.32127" lon="2.78036">
        <ele>182.79</ele>
        <time>2012-11-19T14:22:15Z</time>
      </trkpt>
      <trkpt lat="43.32136" lon="2.78025">
        <ele>183.75</ele>
        <time>2012-11-19T14:22:28Z</time>
      </trkpt>
      <trkpt lat="43.32139" lon="2.7802">
        <ele>183.75</ele>
        <time>2012-11-19T14:22:33Z</time>
      </trkpt>
      <trkpt lat="43.32141" lon="2.78018">
        <ele>183.75</ele>
        <time>2012-11-19T14:22:35Z</time>
      </trkpt>
      <trkpt lat="43.32142" lon="2.78015">
        <ele>183.75</ele>
        <time>2012-11-19T14:22:38Z</time>
      </trkpt>
      <trkpt lat="43.32147" lon="2.78001">
        <ele>184.23</ele>
        <time>2012-11-19T14:22:49Z</time>
      </trkpt>
      <trkpt lat="43.32149" lon="2.77997">
        <ele>184.23</ele>
        <time>2012-11-19T14:22:52Z</time>
      </trkpt>
      <trkpt lat="43.3215" lon="2.7799">
        <ele>184.71</ele>
        <time>2012-11-19T14:22:58Z</time>
      </trkpt>
      <trkpt lat="43.32151" lon="2.77984">
        <ele>185.19</ele>
        <time>2012-11-19T14:23:02Z</time>
      </trkpt>
      <trkpt lat="43.32153" lon="2.7798">
        <ele>185.67</ele>
        <time>2012-11-19T14:23:06Z</time>
      </trkpt>
      <trkpt lat="43.32156" lon="2.77974">
        <ele>185.67</ele>
        <time>2012-11-19T14:23:11Z</time>
      </trkpt>
      <trkpt lat="43.32157" lon="2.77969">
        <ele>186.63</ele>
        <time>2012-11-19T14:23:14Z</time>
      </trkpt>
      <trkpt lat="43.32161" lon="2.77961">
        <ele>186.15</ele>
        <time>2012-11-19T14:23:20Z</time>
      </trkpt>
      <trkpt lat="43.32172" lon="2.77951">
        <ele>187.11</ele>
        <time>2012-11-19T14:23:33Z</time>
      </trkpt>
      <trkpt lat="43.3218" lon="2.77941">
        <ele>187.11</ele>
        <time>2012-11-19T14:23:44Z</time>
      </trkpt>
      <trkpt lat="43.32181" lon="2.77932">
        <ele>187.11</ele>
        <time>2012-11-19T14:23:50Z</time>
      </trkpt>
      <trkpt lat="43.32184" lon="2.77926">
        <ele>187.59</ele>
        <time>2012-11-19T14:23:55Z</time>
      </trkpt>
      <trkpt lat="43.32187" lon="2.77919">
        <ele>187.59</ele>
        <time>2012-11-19T14:24:01Z</time>
      </trkpt>
      <trkpt lat="43.32191" lon="2.77902">
        <ele>187.11</ele>
        <time>2012-11-19T14:24:14Z</time>
      </trkpt>
      <trkpt lat="43.32193" lon="2.77897">
        <ele>187.59</ele>
        <time>2012-11-19T14:24:18Z</time>
      </trkpt>
      <trkpt lat="43.32194" lon="2.77893">
        <ele>187.59</ele>
        <time>2012-11-19T14:24:21Z</time>
      </trkpt>
      <trkpt lat="43.32195" lon="2.77887">
        <ele>187.59</ele>
        <time>2012-11-19T14:24:25Z</time>
      </trkpt>
      <trkpt lat="43.32196" lon="2.77883">
        <ele>187.59</ele>
        <time>2012-11-19T14:24:28Z</time>
      </trkpt>
      <trkpt lat="43.32202" lon="2.77863">
        <ele>187.59</ele>
        <time>2012-11-19T14:24:43Z</time>
      </trkpt>
      <trkpt lat="43.32202" lon="2.77862">
        <ele>187.59</ele>
        <time>2012-11-19T14:24:44Z</time>
      </trkpt>
      <trkpt lat="43.32205" lon="2.77857">
        <ele>188.08</ele>
        <time>2012-11-19T14:24:48Z</time>
      </trkpt>
      <trkpt lat="43.32207" lon="2.77851">
        <ele>188.56</ele>
        <time>2012-11-19T14:24:52Z</time>
      </trkpt>
      <trkpt lat="43.32211" lon="2.77837">
        <ele>188.08</ele>
        <time>2012-11-19T14:25:03Z</time>
      </trkpt>
      <trkpt lat="43.32213" lon="2.77832">
        <ele>188.08</ele>
        <time>2012-11-19T14:25:07Z</time>
      </trkpt>
      <trkpt lat="43.32215" lon="2.77825">
        <ele>188.08</ele>
        <time>2012-11-19T14:25:12Z</time>
      </trkpt>
      <trkpt lat="43.32216" lon="2.77822">
        <ele>188.08</ele>
        <time>2012-11-19T14:25:14Z</time>
      </trkpt>
      <trkpt lat="43.32218" lon="2.77813">
        <ele>188.56</ele>
        <time>2012-11-19T14:25:20Z</time>
      </trkpt>
      <trkpt lat="43.32219" lon="2.77809">
        <ele>188.08</ele>
        <time>2012-11-19T14:25:23Z</time>
      </trkpt>
      <trkpt lat="43.32225" lon="2.77795">
        <ele>188.56</ele>
        <time>2012-11-19T14:25:34Z</time>
      </trkpt>
      <trkpt lat="43.32226" lon="2.7779">
        <ele>188.56</ele>
        <time>2012-11-19T14:25:37Z</time>
      </trkpt>
      <trkpt lat="43.32226" lon="2.77788">
        <ele>188.08</ele>
        <time>2012-11-19T14:25:39Z</time>
      </trkpt>
      <trkpt lat="43.32228" lon="2.77784">
        <ele>188.08</ele>
        <time>2012-11-19T14:25:42Z</time>
      </trkpt>
      <trkpt lat="43.32234" lon="2.77771">
        <ele>188.56</ele>
        <time>2012-11-19T14:25:53Z</time>
      </trkpt>
      <trkpt lat="43.32234" lon="2.77769">
        <ele>188.56</ele>
        <time>2012-11-19T14:25:54Z</time>
      </trkpt>
      <trkpt lat="43.32235" lon="2.77764">
        <ele>188.56</ele>
        <time>2012-11-19T14:25:58Z</time>
      </trkpt>
      <trkpt lat="43.32239" lon="2.77749">
        <ele>189.04</ele>
        <time>2012-11-19T14:26:08Z</time>
      </trkpt>
      <trkpt lat="43.32243" lon="2.77737">
        <ele>189.04</ele>
        <time>2012-11-19T14:26:16Z</time>
      </trkpt>
      <trkpt lat="43.32247" lon="2.77735">
        <ele>189.52</ele>
        <time>2012-11-19T14:26:29Z</time>
      </trkpt>
      <trkpt lat="43.32247" lon="2.77735">
        <ele>189.52</ele>
        <time>2012-11-19T14:26:30Z</time>
      </trkpt>
      <trkpt lat="43.32249" lon="2.7773">
        <ele>190</ele>
        <time>2012-11-19T14:26:35Z</time>
      </trkpt>
      <trkpt lat="43.32251" lon="2.77725">
        <ele>189.52</ele>
        <time>2012-11-19T14:26:39Z</time>
      </trkpt>
      <trkpt lat="43.32256" lon="2.77717">
        <ele>190.48</ele>
        <time>2012-11-19T14:26:45Z</time>
      </trkpt>
      <trkpt lat="43.32257" lon="2.77714">
        <ele>190</ele>
        <time>2012-11-19T14:26:47Z</time>
      </trkpt>
      <trkpt lat="43.32261" lon="2.77709">
        <ele>190</ele>
        <time>2012-11-19T14:26:51Z</time>
      </trkpt>
      <trkpt lat="43.32265" lon="2.77705">
        <ele>189.52</ele>
        <time>2012-11-19T14:26:55Z</time>
      </trkpt>
      <trkpt lat="43.32278" lon="2.77704">
        <ele>188.56</ele>
        <time>2012-11-19T14:27:06Z</time>
      </trkpt>
      <trkpt lat="43.32283" lon="2.77704">
        <ele>188.08</ele>
        <time>2012-11-19T14:27:10Z</time>
      </trkpt>
      <trkpt lat="43.32299" lon="2.77706">
        <ele>187.11</ele>
        <time>2012-11-19T14:27:24Z</time>
      </trkpt>
      <trkpt lat="43.32311" lon="2.77706">
        <ele>187.11</ele>
        <time>2012-11-19T14:27:34Z</time>
      </trkpt>
      <trkpt lat="43.32312" lon="2.77706">
        <ele>186.63</ele>
        <time>2012-11-19T14:27:35Z</time>
      </trkpt>
      <trkpt lat="43.32315" lon="2.77703">
        <ele>187.11</ele>
        <time>2012-11-19T14:27:39Z</time>
      </trkpt>
      <trkpt lat="43.32322" lon="2.7769">
        <ele>186.63</ele>
        <time>2012-11-19T14:27:51Z</time>
      </trkpt>
      <trkpt lat="43.32332" lon="2.77683">
        <ele>186.63</ele>
        <time>2012-11-19T14:28:02Z</time>
      </trkpt>
      <trkpt lat="43.32334" lon="2.77683">
        <ele>186.63</ele>
        <time>2012-11-19T14:28:05Z</time>
      </trkpt>
      <trkpt lat="43.32341" lon="2.7768">
        <ele>187.11</ele>
        <time>2012-11-19T14:28:13Z</time>
      </trkpt>
      <trkpt lat="43.32352" lon="2.77678">
        <ele>187.11</ele>
        <time>2012-11-19T14:28:26Z</time>
      </trkpt>
      <trkpt lat="43.32354" lon="2.77677">
        <ele>187.11</ele>
        <time>2012-11-19T14:28:28Z</time>
      </trkpt>
      <trkpt lat="43.32364" lon="2.77677">
        <ele>187.11</ele>
        <time>2012-11-19T14:28:37Z</time>
      </trkpt>
      <trkpt lat="43.32372" lon="2.77677">
        <ele>186.63</ele>
        <time>2012-11-19T14:28:44Z</time>
      </trkpt>
      <trkpt lat="43.32375" lon="2.77678">
        <ele>187.11</ele>
        <time>2012-11-19T14:28:47Z</time>
      </trkpt>
      <trkpt lat="43.3238" lon="2.77677">
        <ele>187.59</ele>
        <time>2012-11-19T14:28:52Z</time>
      </trkpt>
      <trkpt lat="43.32391" lon="2.77676">
        <ele>187.59</ele>
        <time>2012-11-19T14:29:03Z</time>
      </trkpt>
      <trkpt lat="43.32394" lon="2.77675">
        <ele>188.08</ele>
        <time>2012-11-19T14:29:07Z</time>
      </trkpt>
      <trkpt lat="43.32406" lon="2.77674">
        <ele>188.56</ele>
        <time>2012-11-19T14:29:18Z</time>
      </trkpt>
      <trkpt lat="43.32414" lon="2.77676">
        <ele>188.56</ele>
        <time>2012-11-19T14:29:25Z</time>
      </trkpt>
      <trkpt lat="43.32424" lon="2.77676">
        <ele>189.52</ele>
        <time>2012-11-19T14:29:34Z</time>
      </trkpt>
      <trkpt lat="43.32428" lon="2.77677">
        <ele>189.52</ele>
        <time>2012-11-19T14:29:42Z</time>
      </trkpt>
      <trkpt lat="43.32432" lon="2.77674">
        <ele>189.52</ele>
        <time>2012-11-19T14:29:47Z</time>
      </trkpt>
      <trkpt lat="43.32436" lon="2.77663">
        <ele>190</ele>
        <time>2012-11-19T14:29:55Z</time>
      </trkpt>
      <trkpt lat="43.32438" lon="2.7766">
        <ele>189.52</ele>
        <time>2012-11-19T14:29:58Z</time>
      </trkpt>
      <trkpt lat="43.32439" lon="2.77654">
        <ele>189.04</ele>
        <time>2012-11-19T14:30:02Z</time>
      </trkpt>
      <trkpt lat="43.32439" lon="2.77649">
        <ele>189.04</ele>
        <time>2012-11-19T14:30:05Z</time>
      </trkpt>
      <trkpt lat="43.32442" lon="2.77639">
        <ele>189.52</ele>
        <time>2012-11-19T14:30:12Z</time>
      </trkpt>
      <trkpt lat="43.32444" lon="2.77621">
        <ele>189.04</ele>
        <time>2012-11-19T14:30:24Z</time>
      </trkpt>
      <trkpt lat="43.32447" lon="2.77618">
        <ele>189.04</ele>
        <time>2012-11-19T14:30:27Z</time>
      </trkpt>
      <trkpt lat="43.32449" lon="2.77605">
        <ele>188.56</ele>
        <time>2012-11-19T14:30:36Z</time>
      </trkpt>
      <trkpt lat="43.32454" lon="2.7759">
        <ele>189.04</ele>
        <time>2012-11-19T14:30:48Z</time>
      </trkpt>
      <trkpt lat="43.32455" lon="2.77584">
        <ele>189.52</ele>
        <time>2012-11-19T14:30:52Z</time>
      </trkpt>
      <trkpt lat="43.32455" lon="2.77581">
        <ele>189.52</ele>
        <time>2012-11-19T14:30:54Z</time>
      </trkpt>
      <trkpt lat="43.32458" lon="2.77572">
        <ele>190</ele>
        <time>2012-11-19T14:31:02Z</time>
      </trkpt>
      <trkpt lat="43.32461" lon="2.77567">
        <ele>190.48</ele>
        <time>2012-11-19T14:31:06Z</time>
      </trkpt>
      <trkpt lat="43.32462" lon="2.77564">
        <ele>190.96</ele>
        <time>2012-11-19T14:31:08Z</time>
      </trkpt>
      <trkpt lat="43.32465" lon="2.7756">
        <ele>190.96</ele>
        <time>2012-11-19T14:31:13Z</time>
      </trkpt>
      <trkpt lat="43.32473" lon="2.77555">
        <ele>191.44</ele>
        <time>2012-11-19T14:31:21Z</time>
      </trkpt>
      <trkpt lat="43.32476" lon="2.77552">
        <ele>191.92</ele>
        <time>2012-11-19T14:31:25Z</time>
      </trkpt>
      <trkpt lat="43.32479" lon="2.7755">
        <ele>191.92</ele>
        <time>2012-11-19T14:31:28Z</time>
      </trkpt>
      <trkpt lat="43.32481" lon="2.77547">
        <ele>191.92</ele>
        <time>2012-11-19T14:31:31Z</time>
      </trkpt>
      <trkpt lat="43.32485" lon="2.7754">
        <ele>191.92</ele>
        <time>2012-11-19T14:31:37Z</time>
      </trkpt>
      <trkpt lat="43.32487" lon="2.77537">
        <ele>192.4</ele>
        <time>2012-11-19T14:31:40Z</time>
      </trkpt>
      <trkpt lat="43.32495" lon="2.77528">
        <ele>192.4</ele>
        <time>2012-11-19T14:31:51Z</time>
      </trkpt>
      <trkpt lat="43.325" lon="2.77524">
        <ele>192.88</ele>
        <time>2012-11-19T14:31:57Z</time>
      </trkpt>
      <trkpt lat="43.32501" lon="2.77523">
        <ele>193.36</ele>
        <time>2012-11-19T14:31:59Z</time>
      </trkpt>
      <trkpt lat="43.32504" lon="2.7752">
        <ele>193.84</ele>
        <time>2012-11-19T14:32:02Z</time>
      </trkpt>
      <trkpt lat="43.32505" lon="2.77517">
        <ele>193.84</ele>
        <time>2012-11-19T14:32:05Z</time>
      </trkpt>
      <trkpt lat="43.32507" lon="2.77516">
        <ele>193.84</ele>
        <time>2012-11-19T14:32:07Z</time>
      </trkpt>
      <trkpt lat="43.32509" lon="2.77514">
        <ele>193.84</ele>
        <time>2012-11-19T14:32:09Z</time>
      </trkpt>
      <trkpt lat="43.32512" lon="2.77508">
        <ele>194.32</ele>
        <time>2012-11-19T14:32:15Z</time>
      </trkpt>
      <trkpt lat="43.32513" lon="2.77507">
        <ele>194.32</ele>
        <time>2012-11-19T14:32:17Z</time>
      </trkpt>
      <trkpt lat="43.32517" lon="2.77501">
        <ele>194.8</ele>
        <time>2012-11-19T14:32:22Z</time>
      </trkpt>
      <trkpt lat="43.32521" lon="2.77495">
        <ele>195.28</ele>
        <time>2012-11-19T14:32:29Z</time>
      </trkpt>
      <trkpt lat="43.32524" lon="2.7749">
        <ele>195.28</ele>
        <time>2012-11-19T14:32:33Z</time>
      </trkpt>
      <trkpt lat="43.32526" lon="2.77487">
        <ele>195.28</ele>
        <time>2012-11-19T14:32:36Z</time>
      </trkpt>
      <trkpt lat="43.32528" lon="2.77479">
        <ele>194.32</ele>
        <time>2012-11-19T14:32:42Z</time>
      </trkpt>
      <trkpt lat="43.3253" lon="2.77475">
        <ele>194.32</ele>
        <time>2012-11-19T14:32:45Z</time>
      </trkpt>
      <trkpt lat="43.32533" lon="2.77467">
        <ele>194.32</ele>
        <time>2012-11-19T14:32:52Z</time>
      </trkpt>
      <trkpt lat="43.32535" lon="2.77461">
        <ele>194.32</ele>
        <time>2012-11-19T14:32:56Z</time>
      </trkpt>
      <trkpt lat="43.3254" lon="2.77454">
        <ele>194.32</ele>
        <time>2012-11-19T14:33:03Z</time>
      </trkpt>
      <trkpt lat="43.32544" lon="2.77449">
        <ele>194.32</ele>
        <time>2012-11-19T14:33:08Z</time>
      </trkpt>
      <trkpt lat="43.32546" lon="2.77448">
        <ele>194.8</ele>
        <time>2012-11-19T14:33:10Z</time>
      </trkpt>
      <trkpt lat="43.32552" lon="2.77443">
        <ele>195.77</ele>
        <time>2012-11-19T14:33:18Z</time>
      </trkpt>
      <trkpt lat="43.32555" lon="2.77441">
        <ele>195.77</ele>
        <time>2012-11-19T14:33:23Z</time>
      </trkpt>
      <trkpt lat="43.32559" lon="2.77439">
        <ele>195.77</ele>
        <time>2012-11-19T14:33:26Z</time>
      </trkpt>
      <trkpt lat="43.32561" lon="2.77437">
        <ele>196.25</ele>
        <time>2012-11-19T14:33:28Z</time>
      </trkpt>
      <trkpt lat="43.32566" lon="2.77436">
        <ele>196.25</ele>
        <time>2012-11-19T14:33:33Z</time>
      </trkpt>
      <trkpt lat="43.32572" lon="2.77434">
        <ele>197.21</ele>
        <time>2012-11-19T14:33:39Z</time>
      </trkpt>
      <trkpt lat="43.32583" lon="2.77439">
        <ele>198.17</ele>
        <time>2012-11-19T14:33:52Z</time>
      </trkpt>
      <trkpt lat="43.32592" lon="2.77448">
        <ele>198.65</ele>
        <time>2012-11-19T14:34:04Z</time>
      </trkpt>
      <trkpt lat="43.32602" lon="2.77451">
        <ele>199.13</ele>
        <time>2012-11-19T14:34:15Z</time>
      </trkpt>
      <trkpt lat="43.32602" lon="2.77451">
        <ele>198.65</ele>
        <time>2012-11-19T14:34:16Z</time>
      </trkpt>
      <trkpt lat="43.32614" lon="2.77451">
        <ele>199.61</ele>
        <time>2012-11-19T14:34:30Z</time>
      </trkpt>
      <trkpt lat="43.32615" lon="2.77451">
        <ele>199.61</ele>
        <time>2012-11-19T14:34:31Z</time>
      </trkpt>
      <trkpt lat="43.32617" lon="2.7745">
        <ele>199.13</ele>
        <time>2012-11-19T14:34:33Z</time>
      </trkpt>
      <trkpt lat="43.32626" lon="2.77452">
        <ele>199.61</ele>
        <time>2012-11-19T14:34:41Z</time>
      </trkpt>
      <trkpt lat="43.32629" lon="2.77451">
        <ele>199.61</ele>
        <time>2012-11-19T14:34:45Z</time>
      </trkpt>
      <trkpt lat="43.32636" lon="2.7745">
        <ele>199.61</ele>
        <time>2012-11-19T14:34:52Z</time>
      </trkpt>
      <trkpt lat="43.32641" lon="2.77451">
        <ele>199.61</ele>
        <time>2012-11-19T14:34:57Z</time>
      </trkpt>
      <trkpt lat="43.32647" lon="2.77451">
        <ele>200.09</ele>
        <time>2012-11-19T14:35:02Z</time>
      </trkpt>
      <trkpt lat="43.32658" lon="2.77452">
        <ele>200.57</ele>
        <time>2012-11-19T14:35:13Z</time>
      </trkpt>
      <trkpt lat="43.32666" lon="2.77452">
        <ele>200.57</ele>
        <time>2012-11-19T14:35:21Z</time>
      </trkpt>
      <trkpt lat="43.32669" lon="2.77453">
        <ele>200.09</ele>
        <time>2012-11-19T14:35:24Z</time>
      </trkpt>
      <trkpt lat="43.32674" lon="2.77452">
        <ele>200.09</ele>
        <time>2012-11-19T14:35:29Z</time>
      </trkpt>
      <trkpt lat="43.32677" lon="2.77453">
        <ele>200.57</ele>
        <time>2012-11-19T14:35:32Z</time>
      </trkpt>
      <trkpt lat="43.32685" lon="2.77452">
        <ele>201.05</ele>
        <time>2012-11-19T14:35:40Z</time>
      </trkpt>
      <trkpt lat="43.32688" lon="2.77451">
        <ele>200.57</ele>
        <time>2012-11-19T14:35:43Z</time>
      </trkpt>
      <trkpt lat="43.32699" lon="2.77451">
        <ele>202.01</ele>
        <time>2012-11-19T14:35:56Z</time>
      </trkpt>
      <trkpt lat="43.32701" lon="2.77451">
        <ele>202.01</ele>
        <time>2012-11-19T14:36:00Z</time>
      </trkpt>
      <trkpt lat="43.32703" lon="2.77453">
        <ele>202.01</ele>
        <time>2012-11-19T14:36:13Z</time>
      </trkpt>
      <trkpt lat="43.32704" lon="2.77451">
        <ele>202.01</ele>
        <time>2012-11-19T14:36:37Z</time>
      </trkpt>
      <trkpt lat="43.32704" lon="2.77452">
        <ele>202.01</ele>
        <time>2012-11-19T14:37:03Z</time>
      </trkpt>
      <trkpt lat="43.32705" lon="2.77452">
        <ele>202.98</ele>
        <time>2012-11-19T14:37:30Z</time>
      </trkpt>
      <trkpt lat="43.32705" lon="2.77452">
        <ele>202.01</ele>
        <time>2012-11-19T14:37:32Z</time>
      </trkpt>
      <trkpt lat="43.32711" lon="2.77459">
        <ele>202.98</ele>
        <time>2012-11-19T14:37:41Z</time>
      </trkpt>
      <trkpt lat="43.32714" lon="2.77463">
        <ele>202.98</ele>
        <time>2012-11-19T14:37:45Z</time>
      </trkpt>
      <trkpt lat="43.32723" lon="2.77474">
        <ele>204.42</ele>
        <time>2012-11-19T14:37:58Z</time>
      </trkpt>
      <trkpt lat="43.32728" lon="2.77479">
        <ele>204.9</ele>
        <time>2012-11-19T14:38:11Z</time>
      </trkpt>
      <trkpt lat="43.32738" lon="2.77489">
        <ele>205.86</ele>
        <time>2012-11-19T14:38:23Z</time>
      </trkpt>
      <trkpt lat="43.32738" lon="2.77489">
        <ele>206.34</ele>
        <time>2012-11-19T14:38:24Z</time>
      </trkpt>
      <trkpt lat="43.32748" lon="2.77489">
        <ele>206.34</ele>
        <time>2012-11-19T14:38:38Z</time>
      </trkpt>
      <trkpt lat="43.32749" lon="2.77488">
        <ele>206.82</ele>
        <time>2012-11-19T14:38:39Z</time>
      </trkpt>
      <trkpt lat="43.32751" lon="2.77487">
        <ele>206.82</ele>
        <time>2012-11-19T14:38:41Z</time>
      </trkpt>
      <trkpt lat="43.32757" lon="2.77479">
        <ele>206.82</ele>
        <time>2012-11-19T14:38:52Z</time>
      </trkpt>
      <trkpt lat="43.32767" lon="2.77468">
        <ele>208.74</ele>
        <time>2012-11-19T14:39:05Z</time>
      </trkpt>
      <trkpt lat="43.32773" lon="2.77462">
        <ele>208.74</ele>
        <time>2012-11-19T14:39:13Z</time>
      </trkpt>
      <trkpt lat="43.3278" lon="2.77456">
        <ele>210.19</ele>
        <time>2012-11-19T14:39:23Z</time>
      </trkpt>
      <trkpt lat="43.32782" lon="2.77455">
        <ele>209.7</ele>
        <time>2012-11-19T14:39:25Z</time>
      </trkpt>
      <trkpt lat="43.32788" lon="2.77455">
        <ele>209.7</ele>
        <time>2012-11-19T14:39:36Z</time>
      </trkpt>
      <trkpt lat="43.32796" lon="2.77456">
        <ele>210.67</ele>
        <time>2012-11-19T14:39:48Z</time>
      </trkpt>
      <trkpt lat="43.32803" lon="2.77458">
        <ele>210.67</ele>
        <time>2012-11-19T14:39:56Z</time>
      </trkpt>
      <trkpt lat="43.32806" lon="2.77457">
        <ele>210.67</ele>
        <time>2012-11-19T14:39:58Z</time>
      </trkpt>
      <trkpt lat="43.32809" lon="2.77457">
        <ele>210.19</ele>
        <time>2012-11-19T14:40:02Z</time>
      </trkpt>
      <trkpt lat="43.32816" lon="2.77455">
        <ele>210.19</ele>
        <time>2012-11-19T14:40:10Z</time>
      </trkpt>
      <trkpt lat="43.32825" lon="2.77455">
        <ele>210.19</ele>
        <time>2012-11-19T14:40:19Z</time>
      </trkpt>
      <trkpt lat="43.32837" lon="2.77449">
        <ele>210.67</ele>
        <time>2012-11-19T14:40:33Z</time>
      </trkpt>
      <trkpt lat="43.32841" lon="2.77447">
        <ele>210.67</ele>
        <time>2012-11-19T14:40:39Z</time>
      </trkpt>
      <trkpt lat="43.32843" lon="2.77445">
        <ele>210.67</ele>
        <time>2012-11-19T14:40:41Z</time>
      </trkpt>
      <trkpt lat="43.3285" lon="2.77446">
        <ele>210.67</ele>
        <time>2012-11-19T14:40:48Z</time>
      </trkpt>
      <trkpt lat="43.32853" lon="2.77444">
        <ele>211.15</ele>
        <time>2012-11-19T14:40:51Z</time>
      </trkpt>
      <trkpt lat="43.32855" lon="2.77444">
        <ele>210.67</ele>
        <time>2012-11-19T14:40:53Z</time>
      </trkpt>
      <trkpt lat="43.32858" lon="2.77444">
        <ele>211.15</ele>
        <time>2012-11-19T14:40:56Z</time>
      </trkpt>
      <trkpt lat="43.3287" lon="2.77439">
        <ele>210.67</ele>
        <time>2012-11-19T14:41:08Z</time>
      </trkpt>
      <trkpt lat="43.32882" lon="2.77433">
        <ele>210.67</ele>
        <time>2012-11-19T14:41:21Z</time>
      </trkpt>
      <trkpt lat="43.32882" lon="2.77435">
        <ele>210.67</ele>
        <time>2012-11-19T14:41:27Z</time>
      </trkpt>
      <trkpt lat="43.3288" lon="2.77431">
        <ele>211.15</ele>
        <time>2012-11-19T14:41:37Z</time>
      </trkpt>
      <trkpt lat="43.32884" lon="2.7742">
        <ele>211.63</ele>
        <time>2012-11-19T14:41:44Z</time>
      </trkpt>
      <trkpt lat="43.32886" lon="2.77417">
        <ele>211.63</ele>
        <time>2012-11-19T14:41:47Z</time>
      </trkpt>
      <trkpt lat="43.32887" lon="2.77414">
        <ele>212.11</ele>
        <time>2012-11-19T14:41:50Z</time>
      </trkpt>
      <trkpt lat="43.32886" lon="2.77412">
        <ele>212.59</ele>
        <time>2012-11-19T14:41:52Z</time>
      </trkpt>
      <trkpt lat="43.32884" lon="2.77397">
        <ele>213.07</ele>
        <time>2012-11-19T14:42:04Z</time>
      </trkpt>
      <trkpt lat="43.32885" lon="2.77392">
        <ele>213.07</ele>
        <time>2012-11-19T14:42:13Z</time>
      </trkpt>
      <trkpt lat="43.32885" lon="2.77379">
        <ele>213.07</ele>
        <time>2012-11-19T14:42:25Z</time>
      </trkpt>
      <trkpt lat="43.32885" lon="2.77375">
        <ele>213.55</ele>
        <time>2012-11-19T14:42:28Z</time>
      </trkpt>
      <trkpt lat="43.32885" lon="2.77372">
        <ele>213.07</ele>
        <time>2012-11-19T14:42:30Z</time>
      </trkpt>
      <trkpt lat="43.32887" lon="2.77364">
        <ele>213.55</ele>
        <time>2012-11-19T14:42:35Z</time>
      </trkpt>
      <trkpt lat="43.32887" lon="2.77359">
        <ele>213.07</ele>
        <time>2012-11-19T14:42:38Z</time>
      </trkpt>
      <trkpt lat="43.3289" lon="2.77339">
        <ele>214.03</ele>
        <time>2012-11-19T14:42:50Z</time>
      </trkpt>
      <trkpt lat="43.32893" lon="2.77333">
        <ele>214.03</ele>
        <time>2012-11-19T14:42:55Z</time>
      </trkpt>
      <trkpt lat="43.32896" lon="2.7732">
        <ele>214.51</ele>
        <time>2012-11-19T14:43:05Z</time>
      </trkpt>
      <trkpt lat="43.32895" lon="2.77318">
        <ele>214.51</ele>
        <time>2012-11-19T14:43:22Z</time>
      </trkpt>
      <trkpt lat="43.32896" lon="2.77318">
        <ele>214.51</ele>
        <time>2012-11-19T14:43:36Z</time>
      </trkpt>
      <trkpt lat="43.32896" lon="2.77314">
        <ele>214.51</ele>
        <time>2012-11-19T14:43:55Z</time>
      </trkpt>
      <trkpt lat="43.32896" lon="2.77314">
        <ele>214.99</ele>
        <time>2012-11-19T14:43:56Z</time>
      </trkpt>
      <trkpt lat="43.32898" lon="2.7731">
        <ele>214.51</ele>
        <time>2012-11-19T14:44:00Z</time>
      </trkpt>
      <trkpt lat="43.32899" lon="2.77305">
        <ele>214.99</ele>
        <time>2012-11-19T14:44:04Z</time>
      </trkpt>
      <trkpt lat="43.329" lon="2.77302">
        <ele>214.99</ele>
        <time>2012-11-19T14:44:06Z</time>
      </trkpt>
      <trkpt lat="43.32901" lon="2.77292">
        <ele>215.47</ele>
        <time>2012-11-19T14:44:19Z</time>
      </trkpt>
      <trkpt lat="43.32902" lon="2.77293">
        <ele>215.47</ele>
        <time>2012-11-19T14:44:37Z</time>
      </trkpt>
      <trkpt lat="43.32902" lon="2.77293">
        <ele>214.99</ele>
        <time>2012-11-19T14:45:00Z</time>
      </trkpt>
      <trkpt lat="43.32903" lon="2.77293">
        <ele>215.47</ele>
        <time>2012-11-19T14:45:16Z</time>
      </trkpt>
      <trkpt lat="43.32903" lon="2.77293">
        <ele>215.47</ele>
        <time>2012-11-19T14:45:34Z</time>
      </trkpt>
      <trkpt lat="43.32904" lon="2.77292">
        <ele>215.47</ele>
        <time>2012-11-19T14:45:50Z</time>
      </trkpt>
      <trkpt lat="43.32907" lon="2.77287">
        <ele>215.95</ele>
        <time>2012-11-19T14:46:02Z</time>
      </trkpt>
      <trkpt lat="43.32907" lon="2.77286">
        <ele>216.43</ele>
        <time>2012-11-19T14:46:14Z</time>
      </trkpt>
      <trkpt lat="43.32907" lon="2.77286">
        <ele>215.95</ele>
        <time>2012-11-19T14:46:34Z</time>
      </trkpt>
      <trkpt lat="43.32907" lon="2.77285">
        <ele>215.47</ele>
        <time>2012-11-19T14:46:56Z</time>
      </trkpt>
      <trkpt lat="43.32908" lon="2.77285">
        <ele>215.47</ele>
        <time>2012-11-19T14:47:22Z</time>
      </trkpt>
      <trkpt lat="43.32908" lon="2.77285">
        <ele>215.47</ele>
        <time>2012-11-19T14:47:44Z</time>
      </trkpt>
      <trkpt lat="43.32908" lon="2.77285">
        <ele>215.47</ele>
        <time>2012-11-19T14:48:07Z</time>
      </trkpt>
      <trkpt lat="43.32908" lon="2.77286">
        <ele>215.47</ele>
        <time>2012-11-19T14:48:32Z</time>
      </trkpt>
      <trkpt lat="43.32908" lon="2.77286">
        <ele>215.47</ele>
        <time>2012-11-19T14:48:49Z</time>
      </trkpt>
      <trkpt lat="43.32908" lon="2.77286">
        <ele>215.47</ele>
        <time>2012-11-19T14:49:15Z</time>
      </trkpt>
      <trkpt lat="43.32908" lon="2.77286">
        <ele>214.99</ele>
        <time>2012-11-19T14:49:39Z</time>
      </trkpt>
      <trkpt lat="43.32908" lon="2.77286">
        <ele>215.47</ele>
        <time>2012-11-19T14:49:59Z</time>
      </trkpt>
      <trkpt lat="43.32908" lon="2.77285">
        <ele>214.99</ele>
        <time>2012-11-19T14:50:20Z</time>
      </trkpt>
      <trkpt lat="43.32908" lon="2.77285">
        <ele>214.99</ele>
        <time>2012-11-19T14:50:38Z</time>
      </trkpt>
      <trkpt lat="43.32908" lon="2.77286">
        <ele>214.99</ele>
        <time>2012-11-19T14:51:00Z</time>
      </trkpt>
      <trkpt lat="43.32908" lon="2.77286">
        <ele>214.99</ele>
        <time>2012-11-19T14:51:26Z</time>
      </trkpt>
      <trkpt lat="43.32908" lon="2.77285">
        <ele>214.99</ele>
        <time>2012-11-19T14:51:45Z</time>
      </trkpt>
      <trkpt lat="43.32908" lon="2.77286">
        <ele>214.51</ele>
        <time>2012-11-19T14:52:09Z</time>
      </trkpt>
      <trkpt lat="43.32908" lon="2.77287">
        <ele>214.99</ele>
        <time>2012-11-19T14:52:29Z</time>
      </trkpt>
      <trkpt lat="43.32908" lon="2.77288">
        <ele>214.51</ele>
        <time>2012-11-19T14:52:52Z</time>
      </trkpt>
      <trkpt lat="43.32907" lon="2.77288">
        <ele>214.99</ele>
        <time>2012-11-19T14:53:08Z</time>
      </trkpt>
      <trkpt lat="43.32907" lon="2.77287">
        <ele>214.99</ele>
        <time>2012-11-19T14:53:26Z</time>
      </trkpt>
      <trkpt lat="43.32904" lon="2.77279">
        <ele>214.51</ele>
        <time>2012-11-19T14:53:39Z</time>
      </trkpt>
      <trkpt lat="43.32903" lon="2.77277">
        <ele>214.51</ele>
        <time>2012-11-19T14:53:41Z</time>
      </trkpt>
      <trkpt lat="43.32903" lon="2.77274">
        <ele>214.51</ele>
        <time>2012-11-19T14:53:43Z</time>
      </trkpt>
      <trkpt lat="43.32902" lon="2.77269">
        <ele>214.99</ele>
        <time>2012-11-19T14:53:48Z</time>
      </trkpt>
      <trkpt lat="43.32902" lon="2.77267">
        <ele>214.99</ele>
        <time>2012-11-19T14:53:50Z</time>
      </trkpt>
      <trkpt lat="43.329" lon="2.77258">
        <ele>214.99</ele>
        <time>2012-11-19T14:53:58Z</time>
      </trkpt>
      <trkpt lat="43.32899" lon="2.77253">
        <ele>215.47</ele>
        <time>2012-11-19T14:54:02Z</time>
      </trkpt>
      <trkpt lat="43.32902" lon="2.77241">
        <ele>216.43</ele>
        <time>2012-11-19T14:54:16Z</time>
      </trkpt>
      <trkpt lat="43.32903" lon="2.7724">
        <ele>215.95</ele>
        <time>2012-11-19T14:54:20Z</time>
      </trkpt>
      <trkpt lat="43.32907" lon="2.77233">
        <ele>216.43</ele>
        <time>2012-11-19T14:54:28Z</time>
      </trkpt>
      <trkpt lat="43.32913" lon="2.77226">
        <ele>216.91</ele>
        <time>2012-11-19T14:54:36Z</time>
      </trkpt>
      <trkpt lat="43.32923" lon="2.77218">
        <ele>216.91</ele>
        <time>2012-11-19T14:54:49Z</time>
      </trkpt>
      <trkpt lat="43.32926" lon="2.77217">
        <ele>216.91</ele>
        <time>2012-11-19T14:54:52Z</time>
      </trkpt>
      <trkpt lat="43.32932" lon="2.77214">
        <ele>216.91</ele>
        <time>2012-11-19T14:54:58Z</time>
      </trkpt>
      <trkpt lat="43.32943" lon="2.77207">
        <ele>216.91</ele>
        <time>2012-11-19T14:55:10Z</time>
      </trkpt>
      <trkpt lat="43.32948" lon="2.77204">
        <ele>217.4</ele>
        <time>2012-11-19T14:55:15Z</time>
      </trkpt>
      <trkpt lat="43.3295" lon="2.77201">
        <ele>216.91</ele>
        <time>2012-11-19T14:55:19Z</time>
      </trkpt>
      <trkpt lat="43.32954" lon="2.77198">
        <ele>216.91</ele>
        <time>2012-11-19T14:55:23Z</time>
      </trkpt>
      <trkpt lat="43.32955" lon="2.77196">
        <ele>217.4</ele>
        <time>2012-11-19T14:55:25Z</time>
      </trkpt>
      <trkpt lat="43.32957" lon="2.77192">
        <ele>216.91</ele>
        <time>2012-11-19T14:55:29Z</time>
      </trkpt>
      <trkpt lat="43.32958" lon="2.77186">
        <ele>217.4</ele>
        <time>2012-11-19T14:55:33Z</time>
      </trkpt>
      <trkpt lat="43.32958" lon="2.77184">
        <ele>217.88</ele>
        <time>2012-11-19T14:55:35Z</time>
      </trkpt>
      <trkpt lat="43.32961" lon="2.77167">
        <ele>216.91</ele>
        <time>2012-11-19T14:55:47Z</time>
      </trkpt>
      <trkpt lat="43.32962" lon="2.77162">
        <ele>216.91</ele>
        <time>2012-11-19T14:55:52Z</time>
      </trkpt>
      <trkpt lat="43.32965" lon="2.77156">
        <ele>216.91</ele>
        <time>2012-11-19T14:55:56Z</time>
      </trkpt>
      <trkpt lat="43.32965" lon="2.77153">
        <ele>216.91</ele>
        <time>2012-11-19T14:55:58Z</time>
      </trkpt>
      <trkpt lat="43.32968" lon="2.77149">
        <ele>217.4</ele>
        <time>2012-11-19T14:56:02Z</time>
      </trkpt>
      <trkpt lat="43.32973" lon="2.7714">
        <ele>217.4</ele>
        <time>2012-11-19T14:56:09Z</time>
      </trkpt>
      <trkpt lat="43.32977" lon="2.77137">
        <ele>217.88</ele>
        <time>2012-11-19T14:56:13Z</time>
      </trkpt>
      <trkpt lat="43.3298" lon="2.77133">
        <ele>217.88</ele>
        <time>2012-11-19T14:56:17Z</time>
      </trkpt>
      <trkpt lat="43.32984" lon="2.77131">
        <ele>217.88</ele>
        <time>2012-11-19T14:56:21Z</time>
      </trkpt>
      <trkpt lat="43.32994" lon="2.77125">
        <ele>217.4</ele>
        <time>2012-11-19T14:56:32Z</time>
      </trkpt>
      <trkpt lat="43.32999" lon="2.7712">
        <ele>218.36</ele>
        <time>2012-11-19T14:56:38Z</time>
      </trkpt>
      <trkpt lat="43.33001" lon="2.77117">
        <ele>218.36</ele>
        <time>2012-11-19T14:56:41Z</time>
      </trkpt>
      <trkpt lat="43.33006" lon="2.77112">
        <ele>218.84</ele>
        <time>2012-11-19T14:56:47Z</time>
      </trkpt>
      <trkpt lat="43.33013" lon="2.77105">
        <ele>219.32</ele>
        <time>2012-11-19T14:56:56Z</time>
      </trkpt>
      <trkpt lat="43.33015" lon="2.77101">
        <ele>219.32</ele>
        <time>2012-11-19T14:57:08Z</time>
      </trkpt>
      <trkpt lat="43.33017" lon="2.771">
        <ele>219.8</ele>
        <time>2012-11-19T14:57:12Z</time>
      </trkpt>
      <trkpt lat="43.33023" lon="2.7709">
        <ele>219.8</ele>
        <time>2012-11-19T14:57:20Z</time>
      </trkpt>
      <trkpt lat="43.33026" lon="2.77083">
        <ele>220.28</ele>
        <time>2012-11-19T14:57:25Z</time>
      </trkpt>
      <trkpt lat="43.33029" lon="2.7708">
        <ele>220.76</ele>
        <time>2012-11-19T14:57:28Z</time>
      </trkpt>
      <trkpt lat="43.3303" lon="2.77075">
        <ele>220.76</ele>
        <time>2012-11-19T14:57:31Z</time>
      </trkpt>
      <trkpt lat="43.33033" lon="2.77071">
        <ele>221.24</ele>
        <time>2012-11-19T14:57:35Z</time>
      </trkpt>
      <trkpt lat="43.33034" lon="2.77069">
        <ele>221.24</ele>
        <time>2012-11-19T14:57:37Z</time>
      </trkpt>
      <trkpt lat="43.3304" lon="2.77056">
        <ele>222.2</ele>
        <time>2012-11-19T14:57:47Z</time>
      </trkpt>
      <trkpt lat="43.33044" lon="2.77046">
        <ele>222.68</ele>
        <time>2012-11-19T14:57:54Z</time>
      </trkpt>
      <trkpt lat="43.33046" lon="2.77042">
        <ele>222.68</ele>
        <time>2012-11-19T14:57:57Z</time>
      </trkpt>
      <trkpt lat="43.33049" lon="2.77037">
        <ele>223.16</ele>
        <time>2012-11-19T14:58:01Z</time>
      </trkpt>
      <trkpt lat="43.3305" lon="2.77035">
        <ele>223.16</ele>
        <time>2012-11-19T14:58:03Z</time>
      </trkpt>
      <trkpt lat="43.33051" lon="2.77032">
        <ele>223.64</ele>
        <time>2012-11-19T14:58:05Z</time>
      </trkpt>
      <trkpt lat="43.33055" lon="2.77027">
        <ele>223.16</ele>
        <time>2012-11-19T14:58:09Z</time>
      </trkpt>
      <trkpt lat="43.33058" lon="2.77023">
        <ele>224.12</ele>
        <time>2012-11-19T14:58:13Z</time>
      </trkpt>
      <trkpt lat="43.33066" lon="2.77002">
        <ele>224.12</ele>
        <time>2012-11-19T14:58:27Z</time>
      </trkpt>
      <trkpt lat="43.3307" lon="2.76993">
        <ele>225.09</ele>
        <time>2012-11-19T14:58:34Z</time>
      </trkpt>
      <trkpt lat="43.33073" lon="2.76972">
        <ele>225.57</ele>
        <time>2012-11-19T14:58:47Z</time>
      </trkpt>
      <trkpt lat="43.33074" lon="2.76966">
        <ele>226.05</ele>
        <time>2012-11-19T14:58:51Z</time>
      </trkpt>
      <trkpt lat="43.3308" lon="2.76951">
        <ele>227.97</ele>
        <time>2012-11-19T14:59:03Z</time>
      </trkpt>
      <trkpt lat="43.33083" lon="2.76944">
        <ele>228.45</ele>
        <time>2012-11-19T14:59:09Z</time>
      </trkpt>
      <trkpt lat="43.33088" lon="2.76938">
        <ele>229.41</ele>
        <time>2012-11-19T14:59:16Z</time>
      </trkpt>
      <trkpt lat="43.33093" lon="2.76933">
        <ele>229.41</ele>
        <time>2012-11-19T14:59:21Z</time>
      </trkpt>
      <trkpt lat="43.33097" lon="2.76926">
        <ele>229.41</ele>
        <time>2012-11-19T14:59:28Z</time>
      </trkpt>
      <trkpt lat="43.33101" lon="2.76916">
        <ele>230.37</ele>
        <time>2012-11-19T14:59:39Z</time>
      </trkpt>
      <trkpt lat="43.33103" lon="2.76913">
        <ele>229.89</ele>
        <time>2012-11-19T14:59:43Z</time>
      </trkpt>
      <trkpt lat="43.33104" lon="2.76911">
        <ele>229.89</ele>
        <time>2012-11-19T14:59:45Z</time>
      </trkpt>
      <trkpt lat="43.33109" lon="2.76904">
        <ele>230.85</ele>
        <time>2012-11-19T14:59:52Z</time>
      </trkpt>
      <trkpt lat="43.33111" lon="2.76901">
        <ele>230.37</ele>
        <time>2012-11-19T14:59:55Z</time>
      </trkpt>
      <trkpt lat="43.33113" lon="2.76898">
        <ele>231.33</ele>
        <time>2012-11-19T14:59:59Z</time>
      </trkpt>
      <trkpt lat="43.33114" lon="2.76896">
        <ele>231.33</ele>
        <time>2012-11-19T15:00:03Z</time>
      </trkpt>
      <trkpt lat="43.33113" lon="2.76899">
        <ele>231.33</ele>
        <time>2012-11-19T15:00:14Z</time>
      </trkpt>
      <trkpt lat="43.33113" lon="2.76899">
        <ele>230.85</ele>
        <time>2012-11-19T15:00:34Z</time>
      </trkpt>
      <trkpt lat="43.33115" lon="2.76896">
        <ele>231.33</ele>
        <time>2012-11-19T15:00:38Z</time>
      </trkpt>
      <trkpt lat="43.3312" lon="2.76891">
        <ele>231.81</ele>
        <time>2012-11-19T15:00:50Z</time>
      </trkpt>
      <trkpt lat="43.3312" lon="2.7689">
        <ele>231.81</ele>
        <time>2012-11-19T15:01:02Z</time>
      </trkpt>
      <trkpt lat="43.33121" lon="2.76888">
        <ele>231.81</ele>
        <time>2012-11-19T15:01:05Z</time>
      </trkpt>
      <trkpt lat="43.33123" lon="2.76887">
        <ele>232.3</ele>
        <time>2012-11-19T15:01:08Z</time>
      </trkpt>
      <trkpt lat="43.33126" lon="2.76884">
        <ele>232.3</ele>
        <time>2012-11-19T15:01:13Z</time>
      </trkpt>
      <trkpt lat="43.33129" lon="2.76881">
        <ele>231.81</ele>
        <time>2012-11-19T15:01:17Z</time>
      </trkpt>
      <trkpt lat="43.33132" lon="2.76879">
        <ele>232.78</ele>
        <time>2012-11-19T15:01:20Z</time>
      </trkpt>
      <trkpt lat="43.33135" lon="2.76877">
        <ele>233.26</ele>
        <time>2012-11-19T15:01:23Z</time>
      </trkpt>
      <trkpt lat="43.33136" lon="2.76874">
        <ele>233.26</ele>
        <time>2012-11-19T15:01:25Z</time>
      </trkpt>
      <trkpt lat="43.33139" lon="2.76872">
        <ele>234.22</ele>
        <time>2012-11-19T15:01:28Z</time>
      </trkpt>
      <trkpt lat="43.33141" lon="2.76868">
        <ele>234.22</ele>
        <time>2012-11-19T15:01:32Z</time>
      </trkpt>
      <trkpt lat="43.33147" lon="2.76861">
        <ele>235.18</ele>
        <time>2012-11-19T15:01:43Z</time>
      </trkpt>
      <trkpt lat="43.33147" lon="2.7686">
        <ele>235.18</ele>
        <time>2012-11-19T15:01:44Z</time>
      </trkpt>
      <trkpt lat="43.33155" lon="2.76849">
        <ele>235.18</ele>
        <time>2012-11-19T15:01:54Z</time>
      </trkpt>
      <trkpt lat="43.33157" lon="2.76845">
        <ele>235.66</ele>
        <time>2012-11-19T15:02:07Z</time>
      </trkpt>
      <trkpt lat="43.33158" lon="2.76844">
        <ele>236.14</ele>
        <time>2012-11-19T15:02:18Z</time>
      </trkpt>
      <trkpt lat="43.3316" lon="2.76838">
        <ele>235.66</ele>
        <time>2012-11-19T15:02:32Z</time>
      </trkpt>
      <trkpt lat="43.33163" lon="2.76836">
        <ele>236.14</ele>
        <time>2012-11-19T15:02:48Z</time>
      </trkpt>
      <trkpt lat="43.33164" lon="2.76829">
        <ele>235.66</ele>
        <time>2012-11-19T15:02:59Z</time>
      </trkpt>
      <trkpt lat="43.33165" lon="2.76827">
        <ele>235.18</ele>
        <time>2012-11-19T15:03:12Z</time>
      </trkpt>
      <trkpt lat="43.33166" lon="2.76824">
        <ele>235.18</ele>
        <time>2012-11-19T15:03:14Z</time>
      </trkpt>
      <trkpt lat="43.33167" lon="2.76822">
        <ele>235.18</ele>
        <time>2012-11-19T15:03:21Z</time>
      </trkpt>
      <trkpt lat="43.33169" lon="2.76816">
        <ele>235.18</ele>
        <time>2012-11-19T15:03:25Z</time>
      </trkpt>
      <trkpt lat="43.3317" lon="2.76811">
        <ele>235.18</ele>
        <time>2012-11-19T15:03:29Z</time>
      </trkpt>
      <trkpt lat="43.33173" lon="2.76799">
        <ele>233.74</ele>
        <time>2012-11-19T15:03:37Z</time>
      </trkpt>
      <trkpt lat="43.33172" lon="2.76792">
        <ele>234.22</ele>
        <time>2012-11-19T15:03:41Z</time>
      </trkpt>
      <trkpt lat="43.33172" lon="2.7679">
        <ele>234.22</ele>
        <time>2012-11-19T15:03:43Z</time>
      </trkpt>
      <trkpt lat="43.33173" lon="2.76786">
        <ele>233.74</ele>
        <time>2012-11-19T15:03:46Z</time>
      </trkpt>
      <trkpt lat="43.33175" lon="2.76776">
        <ele>233.74</ele>
        <time>2012-11-19T15:03:53Z</time>
      </trkpt>
      <trkpt lat="43.33178" lon="2.76767">
        <ele>232.78</ele>
        <time>2012-11-19T15:03:59Z</time>
      </trkpt>
      <trkpt lat="43.33184" lon="2.76757">
        <ele>233.26</ele>
        <time>2012-11-19T15:04:13Z</time>
      </trkpt>
      <trkpt lat="43.33184" lon="2.76757">
        <ele>233.26</ele>
        <time>2012-11-19T15:04:33Z</time>
      </trkpt>
      <trkpt lat="43.33184" lon="2.76756">
        <ele>233.74</ele>
        <time>2012-11-19T15:04:49Z</time>
      </trkpt>
      <trkpt lat="43.33184" lon="2.76753">
        <ele>233.26</ele>
        <time>2012-11-19T15:05:10Z</time>
      </trkpt>
      <trkpt lat="43.33184" lon="2.76745">
        <ele>233.26</ele>
        <time>2012-11-19T15:05:18Z</time>
      </trkpt>
      <trkpt lat="43.33186" lon="2.76733">
        <ele>233.26</ele>
        <time>2012-11-19T15:05:29Z</time>
      </trkpt>
      <trkpt lat="43.33188" lon="2.76729">
        <ele>233.26</ele>
        <time>2012-11-19T15:05:32Z</time>
      </trkpt>
      <trkpt lat="43.33191" lon="2.76716">
        <ele>233.74</ele>
        <time>2012-11-19T15:05:44Z</time>
      </trkpt>
      <trkpt lat="43.33194" lon="2.76707">
        <ele>233.74</ele>
        <time>2012-11-19T15:05:52Z</time>
      </trkpt>
      <trkpt lat="43.33196" lon="2.76704">
        <ele>234.22</ele>
        <time>2012-11-19T15:05:56Z</time>
      </trkpt>
      <trkpt lat="43.33198" lon="2.76702">
        <ele>234.22</ele>
        <time>2012-11-19T15:05:58Z</time>
      </trkpt>
      <trkpt lat="43.33199" lon="2.767">
        <ele>234.22</ele>
        <time>2012-11-19T15:06:01Z</time>
      </trkpt>
      <trkpt lat="43.33203" lon="2.76696">
        <ele>234.7</ele>
        <time>2012-11-19T15:06:06Z</time>
      </trkpt>
      <trkpt lat="43.33206" lon="2.76693">
        <ele>234.22</ele>
        <time>2012-11-19T15:06:10Z</time>
      </trkpt>
      <trkpt lat="43.33214" lon="2.76681">
        <ele>234.7</ele>
        <time>2012-11-19T15:06:22Z</time>
      </trkpt>
      <trkpt lat="43.33219" lon="2.76674">
        <ele>235.18</ele>
        <time>2012-11-19T15:06:31Z</time>
      </trkpt>
      <trkpt lat="43.3322" lon="2.76672">
        <ele>235.18</ele>
        <time>2012-11-19T15:06:34Z</time>
      </trkpt>
      <trkpt lat="43.33221" lon="2.7667">
        <ele>235.66</ele>
        <time>2012-11-19T15:06:36Z</time>
      </trkpt>
      <trkpt lat="43.33222" lon="2.76668">
        <ele>235.66</ele>
        <time>2012-11-19T15:06:38Z</time>
      </trkpt>
      <trkpt lat="43.3323" lon="2.76657">
        <ele>237.1</ele>
        <time>2012-11-19T15:06:50Z</time>
      </trkpt>
      <trkpt lat="43.33234" lon="2.76647">
        <ele>237.1</ele>
        <time>2012-11-19T15:06:59Z</time>
      </trkpt>
      <trkpt lat="43.33237" lon="2.76639">
        <ele>237.58</ele>
        <time>2012-11-19T15:07:07Z</time>
      </trkpt>
      <trkpt lat="43.3324" lon="2.76632">
        <ele>237.58</ele>
        <time>2012-11-19T15:07:14Z</time>
      </trkpt>
      <trkpt lat="43.33243" lon="2.76624">
        <ele>238.06</ele>
        <time>2012-11-19T15:07:21Z</time>
      </trkpt>
      <trkpt lat="43.33245" lon="2.76617">
        <ele>238.54</ele>
        <time>2012-11-19T15:07:27Z</time>
      </trkpt>
      <trkpt lat="43.33247" lon="2.7661">
        <ele>239.02</ele>
        <time>2012-11-19T15:07:40Z</time>
      </trkpt>
      <trkpt lat="43.33247" lon="2.7661">
        <ele>239.02</ele>
        <time>2012-11-19T15:07:47Z</time>
      </trkpt>
      <trkpt lat="43.33252" lon="2.76607">
        <ele>239.51</ele>
        <time>2012-11-19T15:07:53Z</time>
      </trkpt>
      <trkpt lat="43.33255" lon="2.76602">
        <ele>240.95</ele>
        <time>2012-11-19T15:08:07Z</time>
      </trkpt>
      <trkpt lat="43.3326" lon="2.76598">
        <ele>241.43</ele>
        <time>2012-11-19T15:08:15Z</time>
      </trkpt>
      <trkpt lat="43.33261" lon="2.76598">
        <ele>241.43</ele>
        <time>2012-11-19T15:08:18Z</time>
      </trkpt>
      <trkpt lat="43.3327" lon="2.76595">
        <ele>242.39</ele>
        <time>2012-11-19T15:08:26Z</time>
      </trkpt>
      <trkpt lat="43.3328" lon="2.76589">
        <ele>243.35</ele>
        <time>2012-11-19T15:08:36Z</time>
      </trkpt>
      <trkpt lat="43.33283" lon="2.76589">
        <ele>243.83</ele>
        <time>2012-11-19T15:08:40Z</time>
      </trkpt>
      <trkpt lat="43.33291" lon="2.76582">
        <ele>245.27</ele>
        <time>2012-11-19T15:08:50Z</time>
      </trkpt>
      <trkpt lat="43.33295" lon="2.76573">
        <ele>245.75</ele>
        <time>2012-11-19T15:08:57Z</time>
      </trkpt>
      <trkpt lat="43.33296" lon="2.76572">
        <ele>245.75</ele>
        <time>2012-11-19T15:08:59Z</time>
      </trkpt>
      <trkpt lat="43.33303" lon="2.76563">
        <ele>246.72</ele>
        <time>2012-11-19T15:09:08Z</time>
      </trkpt>
      <trkpt lat="43.33308" lon="2.76556">
        <ele>247.2</ele>
        <time>2012-11-19T15:09:15Z</time>
      </trkpt>
      <trkpt lat="43.33309" lon="2.76553">
        <ele>247.2</ele>
        <time>2012-11-19T15:09:17Z</time>
      </trkpt>
      <trkpt lat="43.3331" lon="2.76551">
        <ele>247.2</ele>
        <time>2012-11-19T15:09:19Z</time>
      </trkpt>
      <trkpt lat="43.33312" lon="2.76547">
        <ele>247.2</ele>
        <time>2012-11-19T15:09:22Z</time>
      </trkpt>
      <trkpt lat="43.33317" lon="2.76543">
        <ele>247.2</ele>
        <time>2012-11-19T15:09:27Z</time>
      </trkpt>
      <trkpt lat="43.33322" lon="2.76536">
        <ele>247.2</ele>
        <time>2012-11-19T15:09:37Z</time>
      </trkpt>
      <trkpt lat="43.33328" lon="2.76524">
        <ele>247.2</ele>
        <time>2012-11-19T15:09:49Z</time>
      </trkpt>
      <trkpt lat="43.33332" lon="2.76516">
        <ele>247.2</ele>
        <time>2012-11-19T15:09:55Z</time>
      </trkpt>
      <trkpt lat="43.33335" lon="2.76509">
        <ele>247.68</ele>
        <time>2012-11-19T15:10:01Z</time>
      </trkpt>
      <trkpt lat="43.3334" lon="2.76495">
        <ele>247.68</ele>
        <time>2012-11-19T15:10:13Z</time>
      </trkpt>
      <trkpt lat="43.33342" lon="2.76492">
        <ele>247.68</ele>
        <time>2012-11-19T15:10:15Z</time>
      </trkpt>
      <trkpt lat="43.33344" lon="2.76487">
        <ele>247.68</ele>
        <time>2012-11-19T15:10:19Z</time>
      </trkpt>
      <trkpt lat="43.33348" lon="2.76478">
        <ele>248.64</ele>
        <time>2012-11-19T15:10:28Z</time>
      </trkpt>
      <trkpt lat="43.3335" lon="2.76476">
        <ele>248.64</ele>
        <time>2012-11-19T15:10:31Z</time>
      </trkpt>
      <trkpt lat="43.33358" lon="2.76461">
        <ele>249.12</ele>
        <time>2012-11-19T15:10:43Z</time>
      </trkpt>
      <trkpt lat="43.33364" lon="2.7645">
        <ele>250.56</ele>
        <time>2012-11-19T15:10:55Z</time>
      </trkpt>
      <trkpt lat="43.33371" lon="2.76438">
        <ele>250.56</ele>
        <time>2012-11-19T15:11:06Z</time>
      </trkpt>
      <trkpt lat="43.33373" lon="2.76433">
        <ele>250.56</ele>
        <time>2012-11-19T15:11:10Z</time>
      </trkpt>
      <trkpt lat="43.33375" lon="2.7643">
        <ele>251.04</ele>
        <time>2012-11-19T15:11:13Z</time>
      </trkpt>
      <trkpt lat="43.33385" lon="2.76412">
        <ele>251.52</ele>
        <time>2012-11-19T15:11:27Z</time>
      </trkpt>
      <trkpt lat="43.33393" lon="2.764">
        <ele>251.52</ele>
        <time>2012-11-19T15:11:38Z</time>
      </trkpt>
      <trkpt lat="43.33393" lon="2.76399">
        <ele>251.52</ele>
        <time>2012-11-19T15:11:39Z</time>
      </trkpt>
      <trkpt lat="43.33394" lon="2.76397">
        <ele>251.52</ele>
        <time>2012-11-19T15:11:41Z</time>
      </trkpt>
      <trkpt lat="43.33397" lon="2.76393">
        <ele>252</ele>
        <time>2012-11-19T15:11:45Z</time>
      </trkpt>
      <trkpt lat="43.33401" lon="2.76389">
        <ele>252.48</ele>
        <time>2012-11-19T15:11:50Z</time>
      </trkpt>
      <trkpt lat="43.33407" lon="2.76384">
        <ele>252.96</ele>
        <time>2012-11-19T15:11:58Z</time>
      </trkpt>
      <trkpt lat="43.33411" lon="2.7638">
        <ele>252.96</ele>
        <time>2012-11-19T15:12:02Z</time>
      </trkpt>
      <trkpt lat="43.33418" lon="2.76371">
        <ele>254.41</ele>
        <time>2012-11-19T15:12:14Z</time>
      </trkpt>
      <trkpt lat="43.33421" lon="2.76365">
        <ele>254.89</ele>
        <time>2012-11-19T15:12:21Z</time>
      </trkpt>
      <trkpt lat="43.33427" lon="2.76361">
        <ele>255.85</ele>
        <time>2012-11-19T15:12:28Z</time>
      </trkpt>
      <trkpt lat="43.33439" lon="2.76356">
        <ele>256.81</ele>
        <time>2012-11-19T15:12:41Z</time>
      </trkpt>
      <trkpt lat="43.33444" lon="2.76355">
        <ele>256.81</ele>
        <time>2012-11-19T15:12:47Z</time>
      </trkpt>
      <trkpt lat="43.33446" lon="2.76353">
        <ele>257.29</ele>
        <time>2012-11-19T15:12:49Z</time>
      </trkpt>
      <trkpt lat="43.33448" lon="2.76353">
        <ele>257.29</ele>
        <time>2012-11-19T15:12:52Z</time>
      </trkpt>
      <trkpt lat="43.3345" lon="2.76352">
        <ele>256.81</ele>
        <time>2012-11-19T15:12:54Z</time>
      </trkpt>
      <trkpt lat="43.33456" lon="2.76352">
        <ele>257.77</ele>
        <time>2012-11-19T15:13:05Z</time>
      </trkpt>
      <trkpt lat="43.33458" lon="2.76351">
        <ele>257.77</ele>
        <time>2012-11-19T15:13:07Z</time>
      </trkpt>
      <trkpt lat="43.33462" lon="2.76349">
        <ele>258.25</ele>
        <time>2012-11-19T15:13:11Z</time>
      </trkpt>
      <trkpt lat="43.33472" lon="2.76345">
        <ele>259.21</ele>
        <time>2012-11-19T15:13:22Z</time>
      </trkpt>
      <trkpt lat="43.33474" lon="2.76345">
        <ele>259.21</ele>
        <time>2012-11-19T15:13:24Z</time>
      </trkpt>
      <trkpt lat="43.33482" lon="2.76342">
        <ele>259.69</ele>
        <time>2012-11-19T15:13:34Z</time>
      </trkpt>
      <trkpt lat="43.33492" lon="2.76338">
        <ele>261.14</ele>
        <time>2012-11-19T15:13:48Z</time>
      </trkpt>
      <trkpt lat="43.33493" lon="2.76337">
        <ele>261.62</ele>
        <time>2012-11-19T15:14:00Z</time>
      </trkpt>
      <trkpt lat="43.33494" lon="2.76337">
        <ele>262.1</ele>
        <time>2012-11-19T15:14:20Z</time>
      </trkpt>
      <trkpt lat="43.33493" lon="2.76337">
        <ele>261.62</ele>
        <time>2012-11-19T15:14:49Z</time>
      </trkpt>
      <trkpt lat="43.33494" lon="2.76336">
        <ele>262.1</ele>
        <time>2012-11-19T15:15:12Z</time>
      </trkpt>
      <trkpt lat="43.33496" lon="2.76335">
        <ele>262.1</ele>
        <time>2012-11-19T15:15:32Z</time>
      </trkpt>
      <trkpt lat="43.33498" lon="2.76334">
        <ele>262.1</ele>
        <time>2012-11-19T15:15:34Z</time>
      </trkpt>
      <trkpt lat="43.33505" lon="2.7632">
        <ele>262.58</ele>
        <time>2012-11-19T15:15:46Z</time>
      </trkpt>
      <trkpt lat="43.33507" lon="2.76316">
        <ele>262.58</ele>
        <time>2012-11-19T15:15:52Z</time>
      </trkpt>
      <trkpt lat="43.33508" lon="2.76314">
        <ele>261.62</ele>
        <time>2012-11-19T15:15:54Z</time>
      </trkpt>
      <trkpt lat="43.33509" lon="2.76312">
        <ele>261.62</ele>
        <time>2012-11-19T15:15:56Z</time>
      </trkpt>
      <trkpt lat="43.3351" lon="2.7631">
        <ele>262.1</ele>
        <time>2012-11-19T15:15:58Z</time>
      </trkpt>
      <trkpt lat="43.33511" lon="2.76307">
        <ele>262.1</ele>
        <time>2012-11-19T15:16:00Z</time>
      </trkpt>
      <trkpt lat="43.33515" lon="2.76304">
        <ele>261.14</ele>
        <time>2012-11-19T15:16:14Z</time>
      </trkpt>
      <trkpt lat="43.33516" lon="2.76303">
        <ele>261.14</ele>
        <time>2012-11-19T15:16:15Z</time>
      </trkpt>
      <trkpt lat="43.33519" lon="2.76299">
        <ele>261.14</ele>
        <time>2012-11-19T15:16:20Z</time>
      </trkpt>
      <trkpt lat="43.33521" lon="2.76297">
        <ele>261.14</ele>
        <time>2012-11-19T15:16:22Z</time>
      </trkpt>
      <trkpt lat="43.33528" lon="2.76289">
        <ele>260.65</ele>
        <time>2012-11-19T15:16:33Z</time>
      </trkpt>
      <trkpt lat="43.33532" lon="2.76286">
        <ele>261.14</ele>
        <time>2012-11-19T15:16:39Z</time>
      </trkpt>
      <trkpt lat="43.33538" lon="2.76278">
        <ele>261.14</ele>
        <time>2012-11-19T15:16:50Z</time>
      </trkpt>
      <trkpt lat="43.33538" lon="2.76278">
        <ele>260.65</ele>
        <time>2012-11-19T15:16:53Z</time>
      </trkpt>
      <trkpt lat="43.33544" lon="2.76273">
        <ele>261.62</ele>
        <time>2012-11-19T15:17:04Z</time>
      </trkpt>
      <trkpt lat="43.33544" lon="2.76273">
        <ele>261.14</ele>
        <time>2012-11-19T15:17:05Z</time>
      </trkpt>
      <trkpt lat="43.33543" lon="2.76274">
        <ele>260.65</ele>
        <time>2012-11-19T15:17:10Z</time>
      </trkpt>
      <trkpt lat="43.3355" lon="2.76265">
        <ele>261.14</ele>
        <time>2012-11-19T15:17:19Z</time>
      </trkpt>
      <trkpt lat="43.33552" lon="2.76262">
        <ele>261.14</ele>
        <time>2012-11-19T15:17:22Z</time>
      </trkpt>
      <trkpt lat="43.33561" lon="2.76248">
        <ele>261.14</ele>
        <time>2012-11-19T15:17:34Z</time>
      </trkpt>
      <trkpt lat="43.3357" lon="2.76235">
        <ele>262.1</ele>
        <time>2012-11-19T15:17:45Z</time>
      </trkpt>
      <trkpt lat="43.33582" lon="2.7622">
        <ele>262.1</ele>
        <time>2012-11-19T15:17:58Z</time>
      </trkpt>
      <trkpt lat="43.33591" lon="2.7621">
        <ele>262.58</ele>
        <time>2012-11-19T15:18:09Z</time>
      </trkpt>
      <trkpt lat="43.33601" lon="2.76199">
        <ele>263.54</ele>
        <time>2012-11-19T15:18:21Z</time>
      </trkpt>
      <trkpt lat="43.33604" lon="2.76193">
        <ele>263.06</ele>
        <time>2012-11-19T15:18:27Z</time>
      </trkpt>
      <trkpt lat="43.33609" lon="2.76185">
        <ele>263.06</ele>
        <time>2012-11-19T15:18:37Z</time>
      </trkpt>
      <trkpt lat="43.33619" lon="2.7617">
        <ele>263.54</ele>
        <time>2012-11-19T15:18:51Z</time>
      </trkpt>
      <trkpt lat="43.3362" lon="2.76166">
        <ele>263.54</ele>
        <time>2012-11-19T15:19:02Z</time>
      </trkpt>
      <trkpt lat="43.33621" lon="2.76165">
        <ele>263.06</ele>
        <time>2012-11-19T15:19:05Z</time>
      </trkpt>
      <trkpt lat="43.33623" lon="2.76163">
        <ele>263.54</ele>
        <time>2012-11-19T15:19:07Z</time>
      </trkpt>
      <trkpt lat="43.33625" lon="2.76156">
        <ele>263.06</ele>
        <time>2012-11-19T15:19:11Z</time>
      </trkpt>
      <trkpt lat="43.33629" lon="2.76148">
        <ele>263.06</ele>
        <time>2012-11-19T15:19:16Z</time>
      </trkpt>
      <trkpt lat="43.3364" lon="2.76134">
        <ele>264.5</ele>
        <time>2012-11-19T15:19:29Z</time>
      </trkpt>
      <trkpt lat="43.33641" lon="2.76133">
        <ele>264.02</ele>
        <time>2012-11-19T15:19:32Z</time>
      </trkpt>
      <trkpt lat="43.33644" lon="2.76132">
        <ele>264.5</ele>
        <time>2012-11-19T15:19:35Z</time>
      </trkpt>
      <trkpt lat="43.33648" lon="2.7613">
        <ele>264.98</ele>
        <time>2012-11-19T15:19:39Z</time>
      </trkpt>
      <trkpt lat="43.33651" lon="2.76127">
        <ele>265.46</ele>
        <time>2012-11-19T15:19:43Z</time>
      </trkpt>
      <trkpt lat="43.33653" lon="2.76126">
        <ele>264.98</ele>
        <time>2012-11-19T15:19:45Z</time>
      </trkpt>
      <trkpt lat="43.33655" lon="2.76125">
        <ele>265.46</ele>
        <time>2012-11-19T15:19:48Z</time>
      </trkpt>
      <trkpt lat="43.33659" lon="2.76121">
        <ele>265.94</ele>
        <time>2012-11-19T15:19:53Z</time>
      </trkpt>
      <trkpt lat="43.33661" lon="2.76119">
        <ele>266.42</ele>
        <time>2012-11-19T15:19:55Z</time>
      </trkpt>
      <trkpt lat="43.33666" lon="2.76112">
        <ele>265.94</ele>
        <time>2012-11-19T15:20:02Z</time>
      </trkpt>
      <trkpt lat="43.33667" lon="2.76106">
        <ele>264.98</ele>
        <time>2012-11-19T15:20:06Z</time>
      </trkpt>
      <trkpt lat="43.33661" lon="2.76093">
        <ele>264.5</ele>
        <time>2012-11-19T15:20:17Z</time>
      </trkpt>
      <trkpt lat="43.33655" lon="2.76078">
        <ele>263.06</ele>
        <time>2012-11-19T15:20:28Z</time>
      </trkpt>
      <trkpt lat="43.33655" lon="2.7607">
        <ele>262.1</ele>
        <time>2012-11-19T15:20:34Z</time>
      </trkpt>
      <trkpt lat="43.33656" lon="2.76057">
        <ele>260.65</ele>
        <time>2012-11-19T15:20:41Z</time>
      </trkpt>
      <trkpt lat="43.33657" lon="2.76052">
        <ele>260.17</ele>
        <time>2012-11-19T15:20:45Z</time>
      </trkpt>
      <trkpt lat="43.33658" lon="2.76044">
        <ele>260.17</ele>
        <time>2012-11-19T15:20:49Z</time>
      </trkpt>
      <trkpt lat="43.3366" lon="2.76025">
        <ele>258.73</ele>
        <time>2012-11-19T15:21:01Z</time>
      </trkpt>
      <trkpt lat="43.3366" lon="2.76023">
        <ele>259.21</ele>
        <time>2012-11-19T15:21:05Z</time>
      </trkpt>
      <trkpt lat="43.33659" lon="2.76021">
        <ele>259.21</ele>
        <time>2012-11-19T15:21:07Z</time>
      </trkpt>
      <trkpt lat="43.33656" lon="2.76015">
        <ele>258.73</ele>
        <time>2012-11-19T15:21:12Z</time>
      </trkpt>
      <trkpt lat="43.33653" lon="2.76011">
        <ele>259.21</ele>
        <time>2012-11-19T15:21:16Z</time>
      </trkpt>
      <trkpt lat="43.33651" lon="2.7601">
        <ele>259.21</ele>
        <time>2012-11-19T15:21:18Z</time>
      </trkpt>
      <trkpt lat="43.33644" lon="2.7601">
        <ele>259.21</ele>
        <time>2012-11-19T15:21:24Z</time>
      </trkpt>
      <trkpt lat="43.33639" lon="2.76009">
        <ele>259.69</ele>
        <time>2012-11-19T15:21:28Z</time>
      </trkpt>
      <trkpt lat="43.33636" lon="2.76009">
        <ele>260.17</ele>
        <time>2012-11-19T15:21:32Z</time>
      </trkpt>
      <trkpt lat="43.33634" lon="2.76009">
        <ele>260.65</ele>
        <time>2012-11-19T15:21:34Z</time>
      </trkpt>
      <trkpt lat="43.33632" lon="2.76009">
        <ele>260.65</ele>
        <time>2012-11-19T15:21:36Z</time>
      </trkpt>
      <trkpt lat="43.3362" lon="2.7601">
        <ele>261.14</ele>
        <time>2012-11-19T15:21:48Z</time>
      </trkpt>
      <trkpt lat="43.33611" lon="2.7601">
        <ele>261.62</ele>
        <time>2012-11-19T15:22:00Z</time>
      </trkpt>
      <trkpt lat="43.33611" lon="2.76009">
        <ele>262.1</ele>
        <time>2012-11-19T15:22:04Z</time>
      </trkpt>
      <trkpt lat="43.33603" lon="2.76011">
        <ele>262.1</ele>
        <time>2012-11-19T15:22:14Z</time>
      </trkpt>
      <trkpt lat="43.33597" lon="2.76009">
        <ele>262.1</ele>
        <time>2012-11-19T15:22:25Z</time>
      </trkpt>
      <trkpt lat="43.33597" lon="2.76009">
        <ele>262.58</ele>
        <time>2012-11-19T15:22:26Z</time>
      </trkpt>
      <trkpt lat="43.33593" lon="2.76011">
        <ele>262.1</ele>
        <time>2012-11-19T15:22:30Z</time>
      </trkpt>
      <trkpt lat="43.33581" lon="2.76012">
        <ele>262.1</ele>
        <time>2012-11-19T15:22:38Z</time>
      </trkpt>
      <trkpt lat="43.33577" lon="2.76012">
        <ele>261.62</ele>
        <time>2012-11-19T15:22:42Z</time>
      </trkpt>
      <trkpt lat="43.33566" lon="2.76015">
        <ele>261.14</ele>
        <time>2012-11-19T15:22:49Z</time>
      </trkpt>
      <trkpt lat="43.33562" lon="2.76017">
        <ele>261.14</ele>
        <time>2012-11-19T15:22:53Z</time>
      </trkpt>
      <trkpt lat="43.33547" lon="2.76023">
        <ele>259.69</ele>
        <time>2012-11-19T15:23:04Z</time>
      </trkpt>
      <trkpt lat="43.33546" lon="2.76024">
        <ele>259.69</ele>
        <time>2012-11-19T15:23:06Z</time>
      </trkpt>
      <trkpt lat="43.33537" lon="2.76028">
        <ele>259.21</ele>
        <time>2012-11-19T15:23:12Z</time>
      </trkpt>
      <trkpt lat="43.33525" lon="2.76031">
        <ele>258.25</ele>
        <time>2012-11-19T15:23:22Z</time>
      </trkpt>
      <trkpt lat="43.33509" lon="2.76036">
        <ele>257.77</ele>
        <time>2012-11-19T15:23:34Z</time>
      </trkpt>
      <trkpt lat="43.33508" lon="2.76037">
        <ele>257.29</ele>
        <time>2012-11-19T15:23:35Z</time>
      </trkpt>
      <trkpt lat="43.33502" lon="2.76037">
        <ele>256.33</ele>
        <time>2012-11-19T15:23:40Z</time>
      </trkpt>
      <trkpt lat="43.33493" lon="2.76038">
        <ele>256.33</ele>
        <time>2012-11-19T15:23:48Z</time>
      </trkpt>
      <trkpt lat="43.33491" lon="2.76039">
        <ele>255.85</ele>
        <time>2012-11-19T15:23:50Z</time>
      </trkpt>
      <trkpt lat="43.33487" lon="2.76039">
        <ele>255.37</ele>
        <time>2012-11-19T15:23:54Z</time>
      </trkpt>
      <trkpt lat="43.33473" lon="2.76042">
        <ele>254.89</ele>
        <time>2012-11-19T15:24:06Z</time>
      </trkpt>
      <trkpt lat="43.33466" lon="2.76044">
        <ele>253.93</ele>
        <time>2012-11-19T15:24:12Z</time>
      </trkpt>
      <trkpt lat="43.33452" lon="2.76048">
        <ele>253.93</ele>
        <time>2012-11-19T15:24:24Z</time>
      </trkpt>
      <trkpt lat="43.33437" lon="2.76051">
        <ele>252.48</ele>
        <time>2012-11-19T15:24:37Z</time>
      </trkpt>
      <trkpt lat="43.33433" lon="2.76052">
        <ele>252.96</ele>
        <time>2012-11-19T15:24:40Z</time>
      </trkpt>
      <trkpt lat="43.3342" lon="2.76056">
        <ele>252.96</ele>
        <time>2012-11-19T15:24:51Z</time>
      </trkpt>
      <trkpt lat="43.33419" lon="2.76056">
        <ele>252.48</ele>
        <time>2012-11-19T15:24:52Z</time>
      </trkpt>
      <trkpt lat="43.33414" lon="2.76058">
        <ele>252</ele>
        <time>2012-11-19T15:25:05Z</time>
      </trkpt>
      <trkpt lat="43.3341" lon="2.76059">
        <ele>252</ele>
        <time>2012-11-19T15:25:13Z</time>
      </trkpt>
      <trkpt lat="43.33405" lon="2.76058">
        <ele>252</ele>
        <time>2012-11-19T15:25:19Z</time>
      </trkpt>
      <trkpt lat="43.33402" lon="2.76057">
        <ele>252.48</ele>
        <time>2012-11-19T15:25:31Z</time>
      </trkpt>
      <trkpt lat="43.334" lon="2.7606">
        <ele>251.52</ele>
        <time>2012-11-19T15:25:38Z</time>
      </trkpt>
      <trkpt lat="43.33399" lon="2.76062">
        <ele>251.52</ele>
        <time>2012-11-19T15:25:40Z</time>
      </trkpt>
      <trkpt lat="43.33395" lon="2.76066">
        <ele>250.56</ele>
        <time>2012-11-19T15:25:55Z</time>
      </trkpt>
      <trkpt lat="43.33392" lon="2.76068">
        <ele>250.08</ele>
        <time>2012-11-19T15:26:05Z</time>
      </trkpt>
      <trkpt lat="43.33389" lon="2.76076">
        <ele>249.12</ele>
        <time>2012-11-19T15:26:11Z</time>
      </trkpt>
      <trkpt lat="43.33387" lon="2.76078">
        <ele>248.64</ele>
        <time>2012-11-19T15:26:14Z</time>
      </trkpt>
      <trkpt lat="43.33386" lon="2.76087">
        <ele>248.64</ele>
        <time>2012-11-19T15:26:20Z</time>
      </trkpt>
      <trkpt lat="43.33382" lon="2.76091">
        <ele>248.64</ele>
        <time>2012-11-19T15:26:24Z</time>
      </trkpt>
      <trkpt lat="43.33367" lon="2.76103">
        <ele>247.2</ele>
        <time>2012-11-19T15:26:37Z</time>
      </trkpt>
      <trkpt lat="43.33354" lon="2.76111">
        <ele>246.23</ele>
        <time>2012-11-19T15:26:48Z</time>
      </trkpt>
      <trkpt lat="43.33348" lon="2.76113">
        <ele>245.75</ele>
        <time>2012-11-19T15:26:54Z</time>
      </trkpt>
      <trkpt lat="43.33338" lon="2.7612">
        <ele>244.31</ele>
        <time>2012-11-19T15:27:03Z</time>
      </trkpt>
      <trkpt lat="43.33337" lon="2.76122">
        <ele>244.31</ele>
        <time>2012-11-19T15:27:05Z</time>
      </trkpt>
      <trkpt lat="43.33332" lon="2.76127">
        <ele>243.35</ele>
        <time>2012-11-19T15:27:09Z</time>
      </trkpt>
      <trkpt lat="43.33318" lon="2.7614">
        <ele>242.39</ele>
        <time>2012-11-19T15:27:21Z</time>
      </trkpt>
      <trkpt lat="43.33305" lon="2.76153">
        <ele>240.47</ele>
        <time>2012-11-19T15:27:33Z</time>
      </trkpt>
      <trkpt lat="43.33293" lon="2.76164">
        <ele>239.02</ele>
        <time>2012-11-19T15:27:46Z</time>
      </trkpt>
      <trkpt lat="43.33292" lon="2.76166">
        <ele>239.51</ele>
        <time>2012-11-19T15:27:54Z</time>
      </trkpt>
      <trkpt lat="43.33284" lon="2.76175">
        <ele>238.54</ele>
        <time>2012-11-19T15:28:04Z</time>
      </trkpt>
      <trkpt lat="43.33277" lon="2.76183">
        <ele>237.1</ele>
        <time>2012-11-19T15:28:15Z</time>
      </trkpt>
      <trkpt lat="43.33267" lon="2.76194">
        <ele>236.62</ele>
        <time>2012-11-19T15:28:27Z</time>
      </trkpt>
      <trkpt lat="43.33256" lon="2.76206">
        <ele>235.66</ele>
        <time>2012-11-19T15:28:40Z</time>
      </trkpt>
      <trkpt lat="43.33244" lon="2.76218">
        <ele>234.7</ele>
        <time>2012-11-19T15:28:53Z</time>
      </trkpt>
      <trkpt lat="43.33231" lon="2.76227">
        <ele>233.74</ele>
        <time>2012-11-19T15:29:05Z</time>
      </trkpt>
      <trkpt lat="43.33217" lon="2.76232">
        <ele>232.78</ele>
        <time>2012-11-19T15:29:17Z</time>
      </trkpt>
      <trkpt lat="43.33207" lon="2.76233">
        <ele>231.81</ele>
        <time>2012-11-19T15:29:27Z</time>
      </trkpt>
      <trkpt lat="43.33199" lon="2.76236">
        <ele>231.33</ele>
        <time>2012-11-19T15:29:36Z</time>
      </trkpt>
      <trkpt lat="43.33184" lon="2.76239">
        <ele>229.41</ele>
        <time>2012-11-19T15:29:47Z</time>
      </trkpt>
      <trkpt lat="43.33173" lon="2.76238">
        <ele>227.49</ele>
        <time>2012-11-19T15:29:57Z</time>
      </trkpt>
      <trkpt lat="43.33165" lon="2.76237">
        <ele>226.53</ele>
        <time>2012-11-19T15:30:04Z</time>
      </trkpt>
      <trkpt lat="43.33157" lon="2.76242">
        <ele>225.09</ele>
        <time>2012-11-19T15:30:11Z</time>
      </trkpt>
      <trkpt lat="43.33144" lon="2.7625">
        <ele>224.12</ele>
        <time>2012-11-19T15:30:22Z</time>
      </trkpt>
      <trkpt lat="43.33132" lon="2.76259">
        <ele>222.2</ele>
        <time>2012-11-19T15:30:34Z</time>
      </trkpt>
      <trkpt lat="43.33131" lon="2.76259">
        <ele>221.72</ele>
        <time>2012-11-19T15:30:47Z</time>
      </trkpt>
      <trkpt lat="43.33125" lon="2.76263">
        <ele>221.24</ele>
        <time>2012-11-19T15:30:53Z</time>
      </trkpt>
      <trkpt lat="43.33122" lon="2.76267">
        <ele>220.76</ele>
        <time>2012-11-19T15:30:57Z</time>
      </trkpt>
      <trkpt lat="43.33108" lon="2.7628">
        <ele>217.88</ele>
        <time>2012-11-19T15:31:11Z</time>
      </trkpt>
      <trkpt lat="43.33099" lon="2.76302">
        <ele>216.91</ele>
        <time>2012-11-19T15:31:22Z</time>
      </trkpt>
      <trkpt lat="43.3308" lon="2.76306">
        <ele>214.99</ele>
        <time>2012-11-19T15:31:36Z</time>
      </trkpt>
      <trkpt lat="43.3307" lon="2.76308">
        <ele>213.07</ele>
        <time>2012-11-19T15:31:44Z</time>
      </trkpt>
      <trkpt lat="43.33066" lon="2.76311">
        <ele>212.11</ele>
        <time>2012-11-19T15:31:48Z</time>
      </trkpt>
      <trkpt lat="43.33054" lon="2.76324">
        <ele>210.67</ele>
        <time>2012-11-19T15:31:59Z</time>
      </trkpt>
      <trkpt lat="43.33051" lon="2.76336">
        <ele>210.19</ele>
        <time>2012-11-19T15:32:08Z</time>
      </trkpt>
      <trkpt lat="43.3305" lon="2.76355">
        <ele>210.19</ele>
        <time>2012-11-19T15:32:20Z</time>
      </trkpt>
      <trkpt lat="43.3305" lon="2.76357">
        <ele>210.19</ele>
        <time>2012-11-19T15:32:22Z</time>
      </trkpt>
      <trkpt lat="43.33048" lon="2.76358">
        <ele>210.19</ele>
        <time>2012-11-19T15:32:37Z</time>
      </trkpt>
      <trkpt lat="43.33048" lon="2.76358">
        <ele>210.19</ele>
        <time>2012-11-19T15:32:51Z</time>
      </trkpt>
      <trkpt lat="43.33048" lon="2.76356">
        <ele>210.19</ele>
        <time>2012-11-19T15:32:53Z</time>
      </trkpt>
      <trkpt lat="43.3305" lon="2.76355">
        <ele>210.67</ele>
        <time>2012-11-19T15:32:56Z</time>
      </trkpt>
      <trkpt lat="43.33052" lon="2.76349">
        <ele>210.67</ele>
        <time>2012-11-19T15:33:06Z</time>
      </trkpt>
      <trkpt lat="43.33053" lon="2.76348">
        <ele>210.67</ele>
        <time>2012-11-19T15:33:34Z</time>
      </trkpt>
      <trkpt lat="43.33051" lon="2.76352">
        <ele>210.67</ele>
        <time>2012-11-19T15:33:37Z</time>
      </trkpt>
      <trkpt lat="43.33051" lon="2.76364">
        <ele>209.7</ele>
        <time>2012-11-19T15:33:44Z</time>
      </trkpt>
      <trkpt lat="43.33054" lon="2.76381">
        <ele>210.19</ele>
        <time>2012-11-19T15:33:54Z</time>
      </trkpt>
      <trkpt lat="43.33053" lon="2.76387">
        <ele>210.19</ele>
        <time>2012-11-19T15:33:58Z</time>
      </trkpt>
      <trkpt lat="43.33052" lon="2.76392">
        <ele>210.19</ele>
        <time>2012-11-19T15:34:01Z</time>
      </trkpt>
      <trkpt lat="43.3305" lon="2.76401">
        <ele>209.7</ele>
        <time>2012-11-19T15:34:07Z</time>
      </trkpt>
      <trkpt lat="43.33047" lon="2.76403">
        <ele>209.22</ele>
        <time>2012-11-19T15:34:10Z</time>
      </trkpt>
      <trkpt lat="43.3304" lon="2.76403">
        <ele>207.78</ele>
        <time>2012-11-19T15:34:20Z</time>
      </trkpt>
      <trkpt lat="43.3304" lon="2.76402">
        <ele>207.3</ele>
        <time>2012-11-19T15:34:51Z</time>
      </trkpt>
      <trkpt lat="43.33034" lon="2.76407">
        <ele>206.82</ele>
        <time>2012-11-19T15:34:55Z</time>
      </trkpt>
      <trkpt lat="43.3303" lon="2.76407">
        <ele>206.34</ele>
        <time>2012-11-19T15:34:58Z</time>
      </trkpt>
      <trkpt lat="43.33024" lon="2.76406">
        <ele>204.9</ele>
        <time>2012-11-19T15:35:04Z</time>
      </trkpt>
      <trkpt lat="43.33005" lon="2.764">
        <ele>202.01</ele>
        <time>2012-11-19T15:35:16Z</time>
      </trkpt>
      <trkpt lat="43.33005" lon="2.76399">
        <ele>202.01</ele>
        <time>2012-11-19T15:35:17Z</time>
      </trkpt>
      <trkpt lat="43.33" lon="2.76384">
        <ele>201.05</ele>
        <time>2012-11-19T15:35:27Z</time>
      </trkpt>
      <trkpt lat="43.32993" lon="2.7638">
        <ele>200.09</ele>
        <time>2012-11-19T15:35:33Z</time>
      </trkpt>
      <trkpt lat="43.32986" lon="2.76379">
        <ele>198.65</ele>
        <time>2012-11-19T15:35:38Z</time>
      </trkpt>
      <trkpt lat="43.32978" lon="2.76377">
        <ele>196.25</ele>
        <time>2012-11-19T15:35:46Z</time>
      </trkpt>
      <trkpt lat="43.32966" lon="2.76376">
        <ele>193.36</ele>
        <time>2012-11-19T15:35:55Z</time>
      </trkpt>
      <trkpt lat="43.32953" lon="2.76373">
        <ele>191.92</ele>
        <time>2012-11-19T15:36:02Z</time>
      </trkpt>
      <trkpt lat="43.32941" lon="2.76372">
        <ele>188.56</ele>
        <time>2012-11-19T15:36:09Z</time>
      </trkpt>
      <trkpt lat="43.32933" lon="2.76371">
        <ele>186.63</ele>
        <time>2012-11-19T15:36:13Z</time>
      </trkpt>
      <trkpt lat="43.32921" lon="2.76366">
        <ele>184.23</ele>
        <time>2012-11-19T15:36:20Z</time>
      </trkpt>
      <trkpt lat="43.32915" lon="2.76366">
        <ele>182.79</ele>
        <time>2012-11-19T15:36:25Z</time>
      </trkpt>
      <trkpt lat="43.32913" lon="2.76369">
        <ele>182.31</ele>
        <time>2012-11-19T15:36:28Z</time>
      </trkpt>
      <trkpt lat="43.32913" lon="2.76378">
        <ele>181.35</ele>
        <time>2012-11-19T15:36:41Z</time>
      </trkpt>
      <trkpt lat="43.32914" lon="2.76378">
        <ele>180.87</ele>
        <time>2012-11-19T15:36:47Z</time>
      </trkpt>
      <trkpt lat="43.32915" lon="2.76388">
        <ele>180.38</ele>
        <time>2012-11-19T15:36:54Z</time>
      </trkpt>
      <trkpt lat="43.32914" lon="2.76407">
        <ele>178.94</ele>
        <time>2012-11-19T15:37:04Z</time>
      </trkpt>
      <trkpt lat="43.32913" lon="2.76411">
        <ele>178.46</ele>
        <time>2012-11-19T15:37:07Z</time>
      </trkpt>
      <trkpt lat="43.3291" lon="2.76426">
        <ele>177.02</ele>
        <time>2012-11-19T15:37:17Z</time>
      </trkpt>
      <trkpt lat="43.32909" lon="2.76426">
        <ele>177.02</ele>
        <time>2012-11-19T15:37:21Z</time>
      </trkpt>
      <trkpt lat="43.32908" lon="2.76431">
        <ele>176.54</ele>
        <time>2012-11-19T15:37:24Z</time>
      </trkpt>
      <trkpt lat="43.32904" lon="2.76438">
        <ele>175.58</ele>
        <time>2012-11-19T15:37:30Z</time>
      </trkpt>
      <trkpt lat="43.329" lon="2.76447">
        <ele>173.17</ele>
        <time>2012-11-19T15:37:36Z</time>
      </trkpt>
      <trkpt lat="43.32898" lon="2.76451">
        <ele>172.69</ele>
        <time>2012-11-19T15:37:39Z</time>
      </trkpt>
      <trkpt lat="43.32889" lon="2.76451">
        <ele>171.25</ele>
        <time>2012-11-19T15:37:45Z</time>
      </trkpt>
      <trkpt lat="43.32869" lon="2.76447">
        <ele>167.89</ele>
        <time>2012-11-19T15:37:58Z</time>
      </trkpt>
      <trkpt lat="43.32865" lon="2.76446">
        <ele>166.45</ele>
        <time>2012-11-19T15:38:02Z</time>
      </trkpt>
      <trkpt lat="43.32861" lon="2.76444">
        <ele>165.48</ele>
        <time>2012-11-19T15:38:05Z</time>
      </trkpt>
      <trkpt lat="43.32846" lon="2.76438">
        <ele>162.6</ele>
        <time>2012-11-19T15:38:16Z</time>
      </trkpt>
      <trkpt lat="43.32842" lon="2.7643">
        <ele>160.68</ele>
        <time>2012-11-19T15:38:22Z</time>
      </trkpt>
      <trkpt lat="43.32836" lon="2.76425">
        <ele>159.72</ele>
        <time>2012-11-19T15:38:27Z</time>
      </trkpt>
      <trkpt lat="43.32824" lon="2.76423">
        <ele>160.68</ele>
        <time>2012-11-19T15:38:37Z</time>
      </trkpt>
      <trkpt lat="43.32812" lon="2.76412">
        <ele>160.68</ele>
        <time>2012-11-19T15:38:47Z</time>
      </trkpt>
      <trkpt lat="43.3281" lon="2.76409">
        <ele>160.68</ele>
        <time>2012-11-19T15:38:49Z</time>
      </trkpt>
      <trkpt lat="43.32809" lon="2.76399">
        <ele>160.2</ele>
        <time>2012-11-19T15:38:55Z</time>
      </trkpt>
      <trkpt lat="43.32807" lon="2.76391">
        <ele>159.72</ele>
        <time>2012-11-19T15:39:00Z</time>
      </trkpt>
      <trkpt lat="43.32806" lon="2.76386">
        <ele>159.24</ele>
        <time>2012-11-19T15:39:04Z</time>
      </trkpt>
      <trkpt lat="43.32803" lon="2.76381">
        <ele>159.24</ele>
        <time>2012-11-19T15:39:08Z</time>
      </trkpt>
      <trkpt lat="43.32801" lon="2.76371">
        <ele>158.75</ele>
        <time>2012-11-19T15:39:15Z</time>
      </trkpt>
      <trkpt lat="43.328" lon="2.76368">
        <ele>158.27</ele>
        <time>2012-11-19T15:39:17Z</time>
      </trkpt>
      <trkpt lat="43.32795" lon="2.76356">
        <ele>157.79</ele>
        <time>2012-11-19T15:39:25Z</time>
      </trkpt>
      <trkpt lat="43.32788" lon="2.76342">
        <ele>156.83</ele>
        <time>2012-11-19T15:39:34Z</time>
      </trkpt>
      <trkpt lat="43.32787" lon="2.76341">
        <ele>156.35</ele>
        <time>2012-11-19T15:39:35Z</time>
      </trkpt>
      <trkpt lat="43.32786" lon="2.76338">
        <ele>156.35</ele>
        <time>2012-11-19T15:39:37Z</time>
      </trkpt>
      <trkpt lat="43.32777" lon="2.76331">
        <ele>155.87</ele>
        <time>2012-11-19T15:39:46Z</time>
      </trkpt>
      <trkpt lat="43.32775" lon="2.7633">
        <ele>155.39</ele>
        <time>2012-11-19T15:39:48Z</time>
      </trkpt>
      <trkpt lat="43.32769" lon="2.76324">
        <ele>154.43</ele>
        <time>2012-11-19T15:39:55Z</time>
      </trkpt>
      <trkpt lat="43.32759" lon="2.76313">
        <ele>153.47</ele>
        <time>2012-11-19T15:40:05Z</time>
      </trkpt>
      <trkpt lat="43.32752" lon="2.76297">
        <ele>152.99</ele>
        <time>2012-11-19T15:40:16Z</time>
      </trkpt>
      <trkpt lat="43.32748" lon="2.76277">
        <ele>152.03</ele>
        <time>2012-11-19T15:40:28Z</time>
      </trkpt>
      <trkpt lat="43.32748" lon="2.76267">
        <ele>151.54</ele>
        <time>2012-11-19T15:40:34Z</time>
      </trkpt>
      <trkpt lat="43.32749" lon="2.7626">
        <ele>151.54</ele>
        <time>2012-11-19T15:40:38Z</time>
      </trkpt>
      <trkpt lat="43.32748" lon="2.76236">
        <ele>150.58</ele>
        <time>2012-11-19T15:40:52Z</time>
      </trkpt>
      <trkpt lat="43.32746" lon="2.7623">
        <ele>150.1</ele>
        <time>2012-11-19T15:40:56Z</time>
      </trkpt>
      <trkpt lat="43.32735" lon="2.76214">
        <ele>149.14</ele>
        <time>2012-11-19T15:41:07Z</time>
      </trkpt>
      <trkpt lat="43.32733" lon="2.76212">
        <ele>148.66</ele>
        <time>2012-11-19T15:41:11Z</time>
      </trkpt>
      <trkpt lat="43.32729" lon="2.76207">
        <ele>148.66</ele>
        <time>2012-11-19T15:41:15Z</time>
      </trkpt>
      <trkpt lat="43.32719" lon="2.76199">
        <ele>147.7</ele>
        <time>2012-11-19T15:41:23Z</time>
      </trkpt>
      <trkpt lat="43.32719" lon="2.76199">
        <ele>147.7</ele>
        <time>2012-11-19T15:41:24Z</time>
      </trkpt>
      <trkpt lat="43.32715" lon="2.76195">
        <ele>147.22</ele>
        <time>2012-11-19T15:41:28Z</time>
      </trkpt>
      <trkpt lat="43.32705" lon="2.76179">
        <ele>146.26</ele>
        <time>2012-11-19T15:41:40Z</time>
      </trkpt>
      <trkpt lat="43.32701" lon="2.76173">
        <ele>146.26</ele>
        <time>2012-11-19T15:41:45Z</time>
      </trkpt>
      <trkpt lat="43.32699" lon="2.76168">
        <ele>145.78</ele>
        <time>2012-11-19T15:41:48Z</time>
      </trkpt>
      <trkpt lat="43.32695" lon="2.76157">
        <ele>144.82</ele>
        <time>2012-11-19T15:41:56Z</time>
      </trkpt>
      <trkpt lat="43.32691" lon="2.76149">
        <ele>144.82</ele>
        <time>2012-11-19T15:42:01Z</time>
      </trkpt>
      <trkpt lat="43.32686" lon="2.76135">
        <ele>144.34</ele>
        <time>2012-11-19T15:42:10Z</time>
      </trkpt>
      <trkpt lat="43.32684" lon="2.76132">
        <ele>144.34</ele>
        <time>2012-11-19T15:42:13Z</time>
      </trkpt>
      <trkpt lat="43.32676" lon="2.76111">
        <ele>143.37</ele>
        <time>2012-11-19T15:42:26Z</time>
      </trkpt>
      <trkpt lat="43.32674" lon="2.76106">
        <ele>143.37</ele>
        <time>2012-11-19T15:42:30Z</time>
      </trkpt>
      <trkpt lat="43.3267" lon="2.76088">
        <ele>142.41</ele>
        <time>2012-11-19T15:42:41Z</time>
      </trkpt>
      <trkpt lat="43.32665" lon="2.76068">
        <ele>141.93</ele>
        <time>2012-11-19T15:42:53Z</time>
      </trkpt>
      <trkpt lat="43.32663" lon="2.76055">
        <ele>141.45</ele>
        <time>2012-11-19T15:43:01Z</time>
      </trkpt>
      <trkpt lat="43.3266" lon="2.76044">
        <ele>140.49</ele>
        <time>2012-11-19T15:43:07Z</time>
      </trkpt>
      <trkpt lat="43.32657" lon="2.76038">
        <ele>140.49</ele>
        <time>2012-11-19T15:43:11Z</time>
      </trkpt>
      <trkpt lat="43.32656" lon="2.76032">
        <ele>140.01</ele>
        <time>2012-11-19T15:43:15Z</time>
      </trkpt>
      <trkpt lat="43.32653" lon="2.76024">
        <ele>140.01</ele>
        <time>2012-11-19T15:43:22Z</time>
      </trkpt>
      <trkpt lat="43.32652" lon="2.76021">
        <ele>139.53</ele>
        <time>2012-11-19T15:43:24Z</time>
      </trkpt>
      <trkpt lat="43.32645" lon="2.76002">
        <ele>139.05</ele>
        <time>2012-11-19T15:43:36Z</time>
      </trkpt>
      <trkpt lat="43.32644" lon="2.75997">
        <ele>139.05</ele>
        <time>2012-11-19T15:43:40Z</time>
      </trkpt>
      <trkpt lat="43.32637" lon="2.7598">
        <ele>138.57</ele>
        <time>2012-11-19T15:43:51Z</time>
      </trkpt>
      <trkpt lat="43.32635" lon="2.75974">
        <ele>138.09</ele>
        <time>2012-11-19T15:43:55Z</time>
      </trkpt>
      <trkpt lat="43.32632" lon="2.75966">
        <ele>138.57</ele>
        <time>2012-11-19T15:44:00Z</time>
      </trkpt>
      <trkpt lat="43.3263" lon="2.75961">
        <ele>138.09</ele>
        <time>2012-11-19T15:44:04Z</time>
      </trkpt>
      <trkpt lat="43.32624" lon="2.75943">
        <ele>138.09</ele>
        <time>2012-11-19T15:44:16Z</time>
      </trkpt>
      <trkpt lat="43.32623" lon="2.75942">
        <ele>137.61</ele>
        <time>2012-11-19T15:44:18Z</time>
      </trkpt>
      <trkpt lat="43.32621" lon="2.7593">
        <ele>138.09</ele>
        <time>2012-11-19T15:44:24Z</time>
      </trkpt>
      <trkpt lat="43.3262" lon="2.75927">
        <ele>138.09</ele>
        <time>2012-11-19T15:44:27Z</time>
      </trkpt>
      <trkpt lat="43.32618" lon="2.75921">
        <ele>137.61</ele>
        <time>2012-11-19T15:44:31Z</time>
      </trkpt>
      <trkpt lat="43.32611" lon="2.75903">
        <ele>137.13</ele>
        <time>2012-11-19T15:44:44Z</time>
      </trkpt>
      <trkpt lat="43.32606" lon="2.75891">
        <ele>138.09</ele>
        <time>2012-11-19T15:44:54Z</time>
      </trkpt>
      <trkpt lat="43.32604" lon="2.75883">
        <ele>145.3</ele>
        <time>2012-11-19T15:44:59Z</time>
      </trkpt>
      <trkpt lat="43.32603" lon="2.75882">
        <ele>135.68</ele>
        <time>2012-11-19T15:45:00Z</time>
      </trkpt>
      <trkpt lat="43.32603" lon="2.75881">
        <ele>140.49</ele>
        <time>2012-11-19T15:45:01Z</time>
      </trkpt>
      <trkpt lat="43.32602" lon="2.75879">
        <ele>145.78</ele>
        <time>2012-11-19T15:45:02Z</time>
      </trkpt>
      <trkpt lat="43.32602" lon="2.75878">
        <ele>144.34</ele>
        <time>2012-11-19T15:45:03Z</time>
      </trkpt>
      <trkpt lat="43.32602" lon="2.75877">
        <ele>148.66</ele>
        <time>2012-11-19T15:45:04Z</time>
      </trkpt>
      <trkpt lat="43.32601" lon="2.75875">
        <ele>138.09</ele>
        <time>2012-11-19T15:45:05Z</time>
      </trkpt>
      <trkpt lat="43.32601" lon="2.75873">
        <ele>146.74</ele>
        <time>2012-11-19T15:45:07Z</time>
      </trkpt>
      <trkpt lat="43.32601" lon="2.75872">
        <ele>137.61</ele>
        <time>2012-11-19T15:45:08Z</time>
      </trkpt>
      <trkpt lat="43.326" lon="2.75873">
        <ele>123.67</ele>
        <time>2012-11-19T15:45:23Z</time>
      </trkpt>
      <trkpt lat="43.326" lon="2.75873">
        <ele>139.05</ele>
        <time>2012-11-19T15:45:24Z</time>
      </trkpt>
      <trkpt lat="43.326" lon="2.75873">
        <ele>127.99</ele>
        <time>2012-11-19T15:45:27Z</time>
      </trkpt>
      <trkpt lat="43.326" lon="2.75873">
        <ele>144.34</ele>
        <time>2012-11-19T15:45:29Z</time>
      </trkpt>
      <trkpt lat="43.326" lon="2.75873">
        <ele>149.14</ele>
        <time>2012-11-19T15:45:30Z</time>
      </trkpt>
      <trkpt lat="43.326" lon="2.75873">
        <ele>130.88</ele>
        <time>2012-11-19T15:45:31Z</time>
      </trkpt>
      <trkpt lat="43.326" lon="2.75873">
        <ele>136.64</ele>
        <time>2012-11-19T15:45:32Z</time>
      </trkpt>
      <trkpt lat="43.32599" lon="2.75872">
        <ele>141.93</ele>
        <time>2012-11-19T15:45:37Z</time>
      </trkpt>
      <trkpt lat="43.32599" lon="2.75871">
        <ele>146.74</ele>
        <time>2012-11-19T15:45:38Z</time>
      </trkpt>
      <trkpt lat="43.32598" lon="2.7587">
        <ele>138.09</ele>
        <time>2012-11-19T15:45:39Z</time>
      </trkpt>
      <trkpt lat="43.32598" lon="2.75869">
        <ele>130.4</ele>
        <time>2012-11-19T15:45:40Z</time>
      </trkpt>
      <trkpt lat="43.32598" lon="2.75868">
        <ele>134.24</ele>
        <time>2012-11-19T15:45:41Z</time>
      </trkpt>
      <trkpt lat="43.32597" lon="2.75865">
        <ele>138.57</ele>
        <time>2012-11-19T15:45:43Z</time>
      </trkpt>
      <trkpt lat="43.32596" lon="2.75864">
        <ele>128.95</ele>
        <time>2012-11-19T15:45:44Z</time>
      </trkpt>
      <trkpt lat="43.32596" lon="2.75862">
        <ele>135.68</ele>
        <time>2012-11-19T15:45:45Z</time>
      </trkpt>
      <trkpt lat="43.32595" lon="2.75859">
        <ele>139.53</ele>
        <time>2012-11-19T15:45:47Z</time>
      </trkpt>
      <trkpt lat="43.32594" lon="2.75858">
        <ele>130.4</ele>
        <time>2012-11-19T15:45:48Z</time>
      </trkpt>
      <trkpt lat="43.32594" lon="2.75856">
        <ele>136.16</ele>
        <time>2012-11-19T15:45:49Z</time>
      </trkpt>
      <trkpt lat="43.32592" lon="2.75852">
        <ele>140.01</ele>
        <time>2012-11-19T15:45:52Z</time>
      </trkpt>
      <trkpt lat="43.32591" lon="2.75851">
        <ele>125.59</ele>
        <time>2012-11-19T15:45:53Z</time>
      </trkpt>
      <trkpt lat="43.32591" lon="2.7585">
        <ele>126.55</ele>
        <time>2012-11-19T15:45:54Z</time>
      </trkpt>
      <trkpt lat="43.32591" lon="2.7585">
        <ele>130.88</ele>
        <time>2012-11-19T15:45:55Z</time>
      </trkpt>
      <trkpt lat="43.32591" lon="2.7585">
        <ele>139.53</ele>
        <time>2012-11-19T15:45:56Z</time>
      </trkpt>
      <trkpt lat="43.32591" lon="2.7585">
        <ele>135.68</ele>
        <time>2012-11-19T15:45:57Z</time>
      </trkpt>
      <trkpt lat="43.32591" lon="2.7585">
        <ele>147.22</ele>
        <time>2012-11-19T15:45:58Z</time>
      </trkpt>
      <trkpt lat="43.32591" lon="2.7585">
        <ele>138.57</ele>
        <time>2012-11-19T15:45:59Z</time>
      </trkpt>
      <trkpt lat="43.32591" lon="2.7585">
        <ele>137.61</ele>
        <time>2012-11-19T15:46:01Z</time>
      </trkpt>
      <trkpt lat="43.32591" lon="2.75849">
        <ele>146.26</ele>
        <time>2012-11-19T15:46:08Z</time>
      </trkpt>
      <trkpt lat="43.32591" lon="2.75849">
        <ele>137.61</ele>
        <time>2012-11-19T15:46:09Z</time>
      </trkpt>
      <trkpt lat="43.32591" lon="2.75849">
        <ele>141.45</ele>
        <time>2012-11-19T15:46:16Z</time>
      </trkpt>
      <trkpt lat="43.32591" lon="2.75849">
        <ele>136.64</ele>
        <time>2012-11-19T15:46:17Z</time>
      </trkpt>
      <trkpt lat="43.32591" lon="2.75849">
        <ele>126.55</ele>
        <time>2012-11-19T15:46:19Z</time>
      </trkpt>
      <trkpt lat="43.32591" lon="2.75849">
        <ele>152.03</ele>
        <time>2012-11-19T15:46:20Z</time>
      </trkpt>
      <trkpt lat="43.32591" lon="2.75849">
        <ele>141.93</ele>
        <time>2012-11-19T15:46:21Z</time>
      </trkpt>
      <trkpt lat="43.32591" lon="2.75849">
        <ele>127.99</ele>
        <time>2012-11-19T15:46:22Z</time>
      </trkpt>
      <trkpt lat="43.32591" lon="2.75849">
        <ele>141.93</ele>
        <time>2012-11-19T15:46:23Z</time>
      </trkpt>
      <trkpt lat="43.32591" lon="2.75849">
        <ele>136.64</ele>
        <time>2012-11-19T15:46:24Z</time>
      </trkpt>
      <trkpt lat="43.32591" lon="2.75849">
        <ele>133.28</ele>
        <time>2012-11-19T15:46:25Z</time>
      </trkpt>
      <trkpt lat="43.32591" lon="2.75849">
        <ele>150.58</ele>
        <time>2012-11-19T15:46:27Z</time>
      </trkpt>
      <trkpt lat="43.32591" lon="2.75849">
        <ele>122.71</ele>
        <time>2012-11-19T15:46:28Z</time>
      </trkpt>
      <trkpt lat="43.32591" lon="2.75849">
        <ele>147.22</ele>
        <time>2012-11-19T15:46:29Z</time>
      </trkpt>
      <trkpt lat="43.32591" lon="2.75849">
        <ele>126.55</ele>
        <time>2012-11-19T15:46:30Z</time>
      </trkpt>
      <trkpt lat="43.32591" lon="2.75849">
        <ele>140.01</ele>
        <time>2012-11-19T15:46:31Z</time>
      </trkpt>
      <trkpt lat="43.32591" lon="2.75849">
        <ele>125.59</ele>
        <time>2012-11-19T15:46:32Z</time>
      </trkpt>
      <trkpt lat="43.32591" lon="2.75849">
        <ele>138.57</ele>
        <time>2012-11-19T15:46:33Z</time>
      </trkpt>
      <trkpt lat="43.32591" lon="2.75849">
        <ele>147.22</ele>
        <time>2012-11-19T15:46:37Z</time>
      </trkpt>
      <trkpt lat="43.32591" lon="2.75849">
        <ele>129.92</ele>
        <time>2012-11-19T15:46:38Z</time>
      </trkpt>
      <trkpt lat="43.32591" lon="2.75849">
        <ele>145.3</ele>
        <time>2012-11-19T15:46:39Z</time>
      </trkpt>
      <trkpt lat="43.32591" lon="2.75849">
        <ele>138.09</ele>
        <time>2012-11-19T15:46:40Z</time>
      </trkpt>
      <trkpt lat="43.32591" lon="2.75849">
        <ele>144.82</ele>
        <time>2012-11-19T15:46:41Z</time>
      </trkpt>
      <trkpt lat="43.32591" lon="2.75849">
        <ele>140.01</ele>
        <time>2012-11-19T15:46:43Z</time>
      </trkpt>
      <trkpt lat="43.32591" lon="2.75849">
        <ele>132.32</ele>
        <time>2012-11-19T15:46:46Z</time>
      </trkpt>
      <trkpt lat="43.32591" lon="2.75849">
        <ele>135.68</ele>
        <time>2012-11-19T15:46:47Z</time>
      </trkpt>
      <trkpt lat="43.32591" lon="2.75849">
        <ele>131.84</ele>
        <time>2012-11-19T15:46:48Z</time>
      </trkpt>
      <trkpt lat="43.32591" lon="2.75849">
        <ele>137.61</ele>
        <time>2012-11-19T15:46:49Z</time>
      </trkpt>
      <trkpt lat="43.3259" lon="2.75849">
        <ele>143.85</ele>
        <time>2012-11-19T15:46:50Z</time>
      </trkpt>
      <trkpt lat="43.3259" lon="2.75849">
        <ele>134.72</ele>
        <time>2012-11-19T15:46:51Z</time>
      </trkpt>
      <trkpt lat="43.3259" lon="2.75849">
        <ele>140.49</ele>
        <time>2012-11-19T15:46:52Z</time>
      </trkpt>
      <trkpt lat="43.3259" lon="2.75849">
        <ele>134.72</ele>
        <time>2012-11-19T15:46:53Z</time>
      </trkpt>
      <trkpt lat="43.3259" lon="2.75849">
        <ele>139.53</ele>
        <time>2012-11-19T15:46:54Z</time>
      </trkpt>
      <trkpt lat="43.3259" lon="2.75849">
        <ele>124.15</ele>
        <time>2012-11-19T15:46:56Z</time>
      </trkpt>
      <trkpt lat="43.3259" lon="2.75849">
        <ele>138.57</ele>
        <time>2012-11-19T15:46:57Z</time>
      </trkpt>
      <trkpt lat="43.3259" lon="2.75849">
        <ele>144.82</ele>
        <time>2012-11-19T15:46:58Z</time>
      </trkpt>
      <trkpt lat="43.3259" lon="2.75849">
        <ele>142.89</ele>
        <time>2012-11-19T15:46:59Z</time>
      </trkpt>
      <trkpt lat="43.3259" lon="2.75849">
        <ele>138.57</ele>
        <time>2012-11-19T15:47:00Z</time>
      </trkpt>
      <trkpt lat="43.3259" lon="2.75848">
        <ele>135.68</ele>
        <time>2012-11-19T15:47:15Z</time>
      </trkpt>
      <trkpt lat="43.3259" lon="2.75848">
        <ele>140.97</ele>
        <time>2012-11-19T15:47:17Z</time>
      </trkpt>
      <trkpt lat="43.3259" lon="2.75847">
        <ele>129.92</ele>
        <time>2012-11-19T15:47:19Z</time>
      </trkpt>
      <trkpt lat="43.3259" lon="2.75847">
        <ele>140.01</ele>
        <time>2012-11-19T15:47:20Z</time>
      </trkpt>
      <trkpt lat="43.3259" lon="2.75847">
        <ele>128.47</ele>
        <time>2012-11-19T15:47:24Z</time>
      </trkpt>
      <trkpt lat="43.3259" lon="2.75847">
        <ele>139.05</ele>
        <time>2012-11-19T15:47:25Z</time>
      </trkpt>
      <trkpt lat="43.3259" lon="2.75847">
        <ele>135.68</ele>
        <time>2012-11-19T15:47:29Z</time>
      </trkpt>
      <trkpt lat="43.3259" lon="2.75847">
        <ele>139.53</ele>
        <time>2012-11-19T15:47:41Z</time>
      </trkpt>
      <trkpt lat="43.3259" lon="2.75847">
        <ele>136.64</ele>
        <time>2012-11-19T15:47:42Z</time>
      </trkpt>
      <trkpt lat="43.3259" lon="2.75848">
        <ele>140.01</ele>
        <time>2012-11-19T15:47:45Z</time>
      </trkpt>
      <trkpt lat="43.3259" lon="2.75848">
        <ele>142.89</ele>
        <time>2012-11-19T15:47:46Z</time>
      </trkpt>
      <trkpt lat="43.3259" lon="2.75848">
        <ele>137.61</ele>
        <time>2012-11-19T15:47:48Z</time>
      </trkpt>
      <trkpt lat="43.3259" lon="2.75847">
        <ele>137.61</ele>
        <time>2012-11-19T15:47:49Z</time>
      </trkpt>
      <trkpt lat="43.3259" lon="2.75847">
        <ele>123.19</ele>
        <time>2012-11-19T15:47:56Z</time>
      </trkpt>
      <trkpt lat="43.3259" lon="2.75846">
        <ele>139.05</ele>
        <time>2012-11-19T15:47:57Z</time>
      </trkpt>
      <trkpt lat="43.32583" lon="2.75824">
        <ele>138.57</ele>
        <time>2012-11-19T15:48:11Z</time>
      </trkpt>
      <trkpt lat="43.32581" lon="2.75821">
        <ele>140.49</ele>
        <time>2012-11-19T15:48:13Z</time>
      </trkpt>
      <trkpt lat="43.32576" lon="2.75808">
        <ele>134.72</ele>
        <time>2012-11-19T15:48:22Z</time>
      </trkpt>
      <trkpt lat="43.32576" lon="2.75806">
        <ele>139.05</ele>
        <time>2012-11-19T15:48:23Z</time>
      </trkpt>
      <trkpt lat="43.32574" lon="2.75803">
        <ele>134.24</ele>
        <time>2012-11-19T15:48:25Z</time>
      </trkpt>
      <trkpt lat="43.32574" lon="2.75802">
        <ele>139.05</ele>
        <time>2012-11-19T15:48:26Z</time>
      </trkpt>
      <trkpt lat="43.32566" lon="2.75778">
        <ele>139.05</ele>
        <time>2012-11-19T15:48:41Z</time>
      </trkpt>
      <trkpt lat="43.32566" lon="2.75772">
        <ele>149.14</ele>
        <time>2012-11-19T15:48:46Z</time>
      </trkpt>
      <trkpt lat="43.32566" lon="2.75772">
        <ele>148.66</ele>
        <time>2012-11-19T15:48:47Z</time>
      </trkpt>
      <trkpt lat="43.32566" lon="2.75772">
        <ele>139.53</ele>
        <time>2012-11-19T15:48:48Z</time>
      </trkpt>
      <trkpt lat="43.32563" lon="2.75758">
        <ele>127.51</ele>
        <time>2012-11-19T15:48:57Z</time>
      </trkpt>
      <trkpt lat="43.32562" lon="2.75756">
        <ele>143.85</ele>
        <time>2012-11-19T15:48:58Z</time>
      </trkpt>
      <trkpt lat="43.32562" lon="2.75755">
        <ele>139.53</ele>
        <time>2012-11-19T15:48:59Z</time>
      </trkpt>
      <trkpt lat="43.32562" lon="2.75751">
        <ele>144.82</ele>
        <time>2012-11-19T15:49:01Z</time>
      </trkpt>
      <trkpt lat="43.32562" lon="2.75749">
        <ele>140.01</ele>
        <time>2012-11-19T15:49:02Z</time>
      </trkpt>
      <trkpt lat="43.32562" lon="2.75748">
        <ele>133.76</ele>
        <time>2012-11-19T15:49:03Z</time>
      </trkpt>
      <trkpt lat="43.32561" lon="2.75746">
        <ele>140.01</ele>
        <time>2012-11-19T15:49:04Z</time>
      </trkpt>
      <trkpt lat="43.32561" lon="2.75739">
        <ele>135.2</ele>
        <time>2012-11-19T15:49:09Z</time>
      </trkpt>
      <trkpt lat="43.32561" lon="2.75737">
        <ele>140.49</ele>
        <time>2012-11-19T15:49:10Z</time>
      </trkpt>
      <trkpt lat="43.3256" lon="2.75734">
        <ele>129.43</ele>
        <time>2012-11-19T15:49:12Z</time>
      </trkpt>
      <trkpt lat="43.3256" lon="2.75732">
        <ele>140.49</ele>
        <time>2012-11-19T15:49:13Z</time>
      </trkpt>
      <trkpt lat="43.32559" lon="2.75727">
        <ele>151.06</ele>
        <time>2012-11-19T15:49:17Z</time>
      </trkpt>
      <trkpt lat="43.32559" lon="2.75726">
        <ele>140.49</ele>
        <time>2012-11-19T15:49:18Z</time>
      </trkpt>
      <trkpt lat="43.32559" lon="2.75722">
        <ele>128.95</ele>
        <time>2012-11-19T15:49:23Z</time>
      </trkpt>
      <trkpt lat="43.32559" lon="2.75722">
        <ele>165.96</ele>
        <time>2012-11-19T15:49:24Z</time>
      </trkpt>
      <trkpt lat="43.32559" lon="2.75722">
        <ele>137.61</ele>
        <time>2012-11-19T15:49:25Z</time>
      </trkpt>
      <trkpt lat="43.32559" lon="2.75722">
        <ele>140.97</ele>
        <time>2012-11-19T15:49:26Z</time>
      </trkpt>
      <trkpt lat="43.32559" lon="2.75722">
        <ele>146.26</ele>
        <time>2012-11-19T15:49:27Z</time>
      </trkpt>
      <trkpt lat="43.32559" lon="2.75722">
        <ele>140.01</ele>
        <time>2012-11-19T15:49:28Z</time>
      </trkpt>
      <trkpt lat="43.32559" lon="2.75722">
        <ele>146.74</ele>
        <time>2012-11-19T15:49:29Z</time>
      </trkpt>
      <trkpt lat="43.32559" lon="2.75722">
        <ele>140.01</ele>
        <time>2012-11-19T15:49:30Z</time>
      </trkpt>
      <trkpt lat="43.32559" lon="2.75722">
        <ele>136.64</ele>
        <time>2012-11-19T15:49:31Z</time>
      </trkpt>
      <trkpt lat="43.32559" lon="2.75722">
        <ele>137.61</ele>
        <time>2012-11-19T15:49:32Z</time>
      </trkpt>
      <trkpt lat="43.32559" lon="2.75722">
        <ele>140.97</ele>
        <time>2012-11-19T15:49:34Z</time>
      </trkpt>
      <trkpt lat="43.32558" lon="2.75712">
        <ele>146.26</ele>
        <time>2012-11-19T15:49:43Z</time>
      </trkpt>
      <trkpt lat="43.32558" lon="2.7571">
        <ele>140.01</ele>
        <time>2012-11-19T15:49:44Z</time>
      </trkpt>
      <trkpt lat="43.32557" lon="2.75705">
        <ele>143.37</ele>
        <time>2012-11-19T15:49:47Z</time>
      </trkpt>
      <trkpt lat="43.32557" lon="2.75703">
        <ele>132.8</ele>
        <time>2012-11-19T15:49:48Z</time>
      </trkpt>
      <trkpt lat="43.32557" lon="2.75702">
        <ele>133.28</ele>
        <time>2012-11-19T15:49:49Z</time>
      </trkpt>
      <trkpt lat="43.32556" lon="2.757">
        <ele>152.03</ele>
        <time>2012-11-19T15:49:50Z</time>
      </trkpt>
      <trkpt lat="43.32556" lon="2.75697">
        <ele>141.45</ele>
        <time>2012-11-19T15:49:52Z</time>
      </trkpt>
      <trkpt lat="43.32556" lon="2.75693">
        <ele>136.16</ele>
        <time>2012-11-19T15:49:54Z</time>
      </trkpt>
      <trkpt lat="43.32556" lon="2.75692">
        <ele>141.93</ele>
        <time>2012-11-19T15:49:55Z</time>
      </trkpt>
      <trkpt lat="43.32556" lon="2.75689">
        <ele>147.22</ele>
        <time>2012-11-19T15:49:59Z</time>
      </trkpt>
      <trkpt lat="43.32556" lon="2.75688">
        <ele>125.59</ele>
        <time>2012-11-19T15:50:00Z</time>
      </trkpt>
      <trkpt lat="43.32556" lon="2.75686">
        <ele>140.97</ele>
        <time>2012-11-19T15:50:01Z</time>
      </trkpt>
      <trkpt lat="43.32556" lon="2.75682">
        <ele>140.49</ele>
        <time>2012-11-19T15:50:03Z</time>
      </trkpt>
      <trkpt lat="43.32556" lon="2.75678">
        <ele>124.15</ele>
        <time>2012-11-19T15:50:05Z</time>
      </trkpt>
      <trkpt lat="43.32556" lon="2.75676">
        <ele>140.97</ele>
        <time>2012-11-19T15:50:06Z</time>
      </trkpt>
      <trkpt lat="43.32556" lon="2.75675">
        <ele>147.7</ele>
        <time>2012-11-19T15:50:07Z</time>
      </trkpt>
      <trkpt lat="43.32556" lon="2.75673">
        <ele>156.35</ele>
        <time>2012-11-19T15:50:08Z</time>
      </trkpt>
      <trkpt lat="43.32556" lon="2.75672">
        <ele>135.2</ele>
        <time>2012-11-19T15:50:09Z</time>
      </trkpt>
      <trkpt lat="43.32556" lon="2.7567">
        <ele>141.45</ele>
        <time>2012-11-19T15:50:10Z</time>
      </trkpt>
      <trkpt lat="43.32556" lon="2.75665">
        <ele>132.8</ele>
        <time>2012-11-19T15:50:15Z</time>
      </trkpt>
      <trkpt lat="43.32556" lon="2.75664">
        <ele>145.3</ele>
        <time>2012-11-19T15:50:16Z</time>
      </trkpt>
      <trkpt lat="43.32556" lon="2.75664">
        <ele>140.97</ele>
        <time>2012-11-19T15:50:17Z</time>
      </trkpt>
      <trkpt lat="43.32556" lon="2.75664">
        <ele>149.14</ele>
        <time>2012-11-19T15:50:18Z</time>
      </trkpt>
      <trkpt lat="43.32556" lon="2.75664">
        <ele>141.45</ele>
        <time>2012-11-19T15:50:19Z</time>
      </trkpt>
      <trkpt lat="43.32556" lon="2.75664">
        <ele>151.06</ele>
        <time>2012-11-19T15:50:20Z</time>
      </trkpt>
      <trkpt lat="43.32556" lon="2.75664">
        <ele>117.9</ele>
        <time>2012-11-19T15:50:21Z</time>
      </trkpt>
      <trkpt lat="43.32556" lon="2.75664">
        <ele>159.24</ele>
        <time>2012-11-19T15:50:22Z</time>
      </trkpt>
      <trkpt lat="43.32556" lon="2.75664">
        <ele>126.55</ele>
        <time>2012-11-19T15:50:23Z</time>
      </trkpt>
      <trkpt lat="43.32556" lon="2.75664">
        <ele>141.45</ele>
        <time>2012-11-19T15:50:24Z</time>
      </trkpt>
      <trkpt lat="43.32556" lon="2.75664">
        <ele>124.15</ele>
        <time>2012-11-19T15:50:25Z</time>
      </trkpt>
      <trkpt lat="43.32556" lon="2.75662">
        <ele>141.93</ele>
        <time>2012-11-19T15:50:26Z</time>
      </trkpt>
      <trkpt lat="43.32556" lon="2.75661">
        <ele>140.97</ele>
        <time>2012-11-19T15:50:27Z</time>
      </trkpt>
      <trkpt lat="43.32554" lon="2.75652">
        <ele>152.03</ele>
        <time>2012-11-19T15:50:32Z</time>
      </trkpt>
      <trkpt lat="43.32554" lon="2.7565">
        <ele>154.91</ele>
        <time>2012-11-19T15:50:33Z</time>
      </trkpt>
      <trkpt lat="43.32554" lon="2.75648">
        <ele>140.49</ele>
        <time>2012-11-19T15:50:34Z</time>
      </trkpt>
      <trkpt lat="43.32553" lon="2.75643">
        <ele>136.16</ele>
        <time>2012-11-19T15:50:37Z</time>
      </trkpt>
      <trkpt lat="43.32552" lon="2.75641">
        <ele>140.49</ele>
        <time>2012-11-19T15:50:38Z</time>
      </trkpt>
      <trkpt lat="43.3255" lon="2.75633">
        <ele>139.05</ele>
        <time>2012-11-19T15:50:46Z</time>
      </trkpt>
      <trkpt lat="43.32542" lon="2.75608">
        <ele>138.57</ele>
        <time>2012-11-19T15:51:01Z</time>
      </trkpt>
      <trkpt lat="43.32541" lon="2.75603">
        <ele>138.09</ele>
        <time>2012-11-19T15:51:04Z</time>
      </trkpt>
      <trkpt lat="43.32539" lon="2.75599">
        <ele>137.61</ele>
        <time>2012-11-19T15:51:11Z</time>
      </trkpt>
      <trkpt lat="43.32537" lon="2.75593">
        <ele>130.88</ele>
        <time>2012-11-19T15:51:15Z</time>
      </trkpt>
      <trkpt lat="43.32537" lon="2.75591">
        <ele>137.61</ele>
        <time>2012-11-19T15:51:16Z</time>
      </trkpt>
      <trkpt lat="43.32537" lon="2.75589">
        <ele>137.61</ele>
        <time>2012-11-19T15:51:17Z</time>
      </trkpt>
      <trkpt lat="43.32537" lon="2.75584">
        <ele>126.07</ele>
        <time>2012-11-19T15:51:21Z</time>
      </trkpt>
      <trkpt lat="43.32537" lon="2.75582">
        <ele>138.57</ele>
        <time>2012-11-19T15:51:22Z</time>
      </trkpt>
      <trkpt lat="43.32537" lon="2.75574">
        <ele>136.16</ele>
        <time>2012-11-19T15:51:26Z</time>
      </trkpt>
      <trkpt lat="43.32535" lon="2.75548">
        <ele>135.2</ele>
        <time>2012-11-19T15:51:41Z</time>
      </trkpt>
      <trkpt lat="43.32532" lon="2.75521">
        <ele>134.24</ele>
        <time>2012-11-19T15:51:58Z</time>
      </trkpt>
      <trkpt lat="43.32528" lon="2.75505">
        <ele>128.47</ele>
        <time>2012-11-19T15:52:08Z</time>
      </trkpt>
      <trkpt lat="43.32527" lon="2.75502">
        <ele>134.24</ele>
        <time>2012-11-19T15:52:10Z</time>
      </trkpt>
      <trkpt lat="43.32525" lon="2.75493">
        <ele>129.92</ele>
        <time>2012-11-19T15:52:18Z</time>
      </trkpt>
      <trkpt lat="43.32525" lon="2.75493">
        <ele>133.28</ele>
        <time>2012-11-19T15:52:19Z</time>
      </trkpt>
      <trkpt lat="43.32524" lon="2.75493">
        <ele>129.92</ele>
        <time>2012-11-19T15:52:23Z</time>
      </trkpt>
      <trkpt lat="43.32524" lon="2.75493">
        <ele>130.4</ele>
        <time>2012-11-19T15:52:24Z</time>
      </trkpt>
      <trkpt lat="43.32524" lon="2.75492">
        <ele>135.68</ele>
        <time>2012-11-19T15:52:25Z</time>
      </trkpt>
      <trkpt lat="43.32524" lon="2.75491">
        <ele>133.28</ele>
        <time>2012-11-19T15:52:26Z</time>
      </trkpt>
      <trkpt lat="43.32524" lon="2.7549">
        <ele>127.99</ele>
        <time>2012-11-19T15:52:27Z</time>
      </trkpt>
      <trkpt lat="43.32524" lon="2.75488">
        <ele>128.95</ele>
        <time>2012-11-19T15:52:28Z</time>
      </trkpt>
      <trkpt lat="43.32523" lon="2.75487">
        <ele>134.24</ele>
        <time>2012-11-19T15:52:29Z</time>
      </trkpt>
      <trkpt lat="43.32523" lon="2.75485">
        <ele>127.51</ele>
        <time>2012-11-19T15:52:30Z</time>
      </trkpt>
      <trkpt lat="43.32523" lon="2.75483">
        <ele>132.8</ele>
        <time>2012-11-19T15:52:31Z</time>
      </trkpt>
      <trkpt lat="43.32521" lon="2.75475">
        <ele>128.95</ele>
        <time>2012-11-19T15:52:36Z</time>
      </trkpt>
      <trkpt lat="43.3252" lon="2.75473">
        <ele>132.32</ele>
        <time>2012-11-19T15:52:37Z</time>
      </trkpt>
      <trkpt lat="43.32518" lon="2.75465">
        <ele>123.67</ele>
        <time>2012-11-19T15:52:42Z</time>
      </trkpt>
      <trkpt lat="43.32518" lon="2.75464">
        <ele>143.37</ele>
        <time>2012-11-19T15:52:43Z</time>
      </trkpt>
      <trkpt lat="43.32518" lon="2.75462">
        <ele>131.36</ele>
        <time>2012-11-19T15:52:44Z</time>
      </trkpt>
      <trkpt lat="43.32516" lon="2.75458">
        <ele>135.2</ele>
        <time>2012-11-19T15:52:47Z</time>
      </trkpt>
      <trkpt lat="43.32515" lon="2.75456">
        <ele>118.86</ele>
        <time>2012-11-19T15:52:48Z</time>
      </trkpt>
      <trkpt lat="43.32515" lon="2.75455">
        <ele>152.51</ele>
        <time>2012-11-19T15:52:49Z</time>
      </trkpt>
      <trkpt lat="43.32514" lon="2.75454">
        <ele>123.67</ele>
        <time>2012-11-19T15:52:50Z</time>
      </trkpt>
      <trkpt lat="43.32514" lon="2.75454">
        <ele>133.28</ele>
        <time>2012-11-19T15:52:51Z</time>
      </trkpt>
      <trkpt lat="43.32515" lon="2.75453">
        <ele>134.24</ele>
        <time>2012-11-19T15:52:53Z</time>
      </trkpt>
      <trkpt lat="43.32514" lon="2.7545">
        <ele>132.8</ele>
        <time>2012-11-19T15:52:55Z</time>
      </trkpt>
      <trkpt lat="43.32514" lon="2.75448">
        <ele>126.07</ele>
        <time>2012-11-19T15:52:56Z</time>
      </trkpt>
      <trkpt lat="43.32514" lon="2.75447">
        <ele>132.32</ele>
        <time>2012-11-19T15:52:57Z</time>
      </trkpt>
      <trkpt lat="43.32513" lon="2.75444">
        <ele>129.43</ele>
        <time>2012-11-19T15:52:59Z</time>
      </trkpt>
      <trkpt lat="43.32509" lon="2.75416">
        <ele>127.99</ele>
        <time>2012-11-19T15:53:13Z</time>
      </trkpt>
      <trkpt lat="43.32503" lon="2.75389">
        <ele>127.03</ele>
        <time>2012-11-19T15:53:29Z</time>
      </trkpt>
      <trkpt lat="43.32502" lon="2.75361">
        <ele>126.07</ele>
        <time>2012-11-19T15:53:42Z</time>
      </trkpt>
      <trkpt lat="43.32499" lon="2.75341">
        <ele>125.11</ele>
        <time>2012-11-19T15:53:55Z</time>
      </trkpt>
      <trkpt lat="43.32498" lon="2.75334">
        <ele>124.15</ele>
        <time>2012-11-19T15:53:59Z</time>
      </trkpt>
      <trkpt lat="43.32498" lon="2.75326">
        <ele>124.63</ele>
        <time>2012-11-19T15:54:03Z</time>
      </trkpt>
      <trkpt lat="43.32495" lon="2.75293">
        <ele>122.71</ele>
        <time>2012-11-19T15:54:13Z</time>
      </trkpt>
      <trkpt lat="43.32493" lon="2.75272">
        <ele>121.26</ele>
        <time>2012-11-19T15:54:24Z</time>
      </trkpt>
      <trkpt lat="43.3249" lon="2.75249">
        <ele>119.82</ele>
        <time>2012-11-19T15:54:36Z</time>
      </trkpt>
      <trkpt lat="43.3249" lon="2.75222">
        <ele>119.34</ele>
        <time>2012-11-19T15:54:48Z</time>
      </trkpt>
      <trkpt lat="43.32492" lon="2.75201">
        <ele>117.9</ele>
        <time>2012-11-19T15:54:58Z</time>
      </trkpt>
      <trkpt lat="43.32497" lon="2.75177">
        <ele>116.94</ele>
        <time>2012-11-19T15:55:11Z</time>
      </trkpt>
      <trkpt lat="43.32501" lon="2.75158">
        <ele>115.98</ele>
        <time>2012-11-19T15:55:21Z</time>
      </trkpt>
      <trkpt lat="43.32502" lon="2.75148">
        <ele>115.5</ele>
        <time>2012-11-19T15:55:28Z</time>
      </trkpt>
      <trkpt lat="43.32504" lon="2.75139">
        <ele>115.01</ele>
        <time>2012-11-19T15:55:33Z</time>
      </trkpt>
      <trkpt lat="43.32504" lon="2.75137">
        <ele>115.01</ele>
        <time>2012-11-19T15:55:35Z</time>
      </trkpt>
      <trkpt lat="43.32506" lon="2.75125">
        <ele>114.53</ele>
        <time>2012-11-19T15:55:42Z</time>
      </trkpt>
      <trkpt lat="43.32509" lon="2.751">
        <ele>113.09</ele>
        <time>2012-11-19T15:55:55Z</time>
      </trkpt>
      <trkpt lat="43.32509" lon="2.7509">
        <ele>113.09</ele>
        <time>2012-11-19T15:55:59Z</time>
      </trkpt>
      <trkpt lat="43.32511" lon="2.75073">
        <ele>111.65</ele>
        <time>2012-11-19T15:56:09Z</time>
      </trkpt>
      <trkpt lat="43.32511" lon="2.7507">
        <ele>111.65</ele>
        <time>2012-11-19T15:56:11Z</time>
      </trkpt>
      <trkpt lat="43.32513" lon="2.75046">
        <ele>111.17</ele>
        <time>2012-11-19T15:56:24Z</time>
      </trkpt>
      <trkpt lat="43.32513" lon="2.75033">
        <ele>110.69</ele>
        <time>2012-11-19T15:56:32Z</time>
      </trkpt>
      <trkpt lat="43.32515" lon="2.7501">
        <ele>109.25</ele>
        <time>2012-11-19T15:56:44Z</time>
      </trkpt>
      <trkpt lat="43.32516" lon="2.7499">
        <ele>108.77</ele>
        <time>2012-11-19T15:56:54Z</time>
      </trkpt>
      <trkpt lat="43.32517" lon="2.74963">
        <ele>107.81</ele>
        <time>2012-11-19T15:57:07Z</time>
      </trkpt>
      <trkpt lat="43.32517" lon="2.74958">
        <ele>108.29</ele>
        <time>2012-11-19T15:57:09Z</time>
      </trkpt>
      <trkpt lat="43.32517" lon="2.74937">
        <ele>107.32</ele>
        <time>2012-11-19T15:57:21Z</time>
      </trkpt>
      <trkpt lat="43.32517" lon="2.74933">
        <ele>106.84</ele>
        <time>2012-11-19T15:57:24Z</time>
      </trkpt>
      <trkpt lat="43.32515" lon="2.74925">
        <ele>106.36</ele>
        <time>2012-11-19T15:57:28Z</time>
      </trkpt>
      <trkpt lat="43.32508" lon="2.74902">
        <ele>104.92</ele>
        <time>2012-11-19T15:57:40Z</time>
      </trkpt>
      <trkpt lat="43.32507" lon="2.74897">
        <ele>105.4</ele>
        <time>2012-11-19T15:57:44Z</time>
      </trkpt>
      <trkpt lat="43.325" lon="2.74882">
        <ele>104.44</ele>
        <time>2012-11-19T15:57:55Z</time>
      </trkpt>
      <trkpt lat="43.32493" lon="2.74868">
        <ele>103.48</ele>
        <time>2012-11-19T15:58:04Z</time>
      </trkpt>
      <trkpt lat="43.32491" lon="2.74866">
        <ele>103.48</ele>
        <time>2012-11-19T15:58:06Z</time>
      </trkpt>
      <trkpt lat="43.3249" lon="2.74865">
        <ele>103.48</ele>
        <time>2012-11-19T15:58:08Z</time>
      </trkpt>
      <trkpt lat="43.32482" lon="2.74853">
        <ele>103.48</ele>
        <time>2012-11-19T15:58:16Z</time>
      </trkpt>
      <trkpt lat="43.32479" lon="2.74846">
        <ele>103</ele>
        <time>2012-11-19T15:58:26Z</time>
      </trkpt>
      <trkpt lat="43.32477" lon="2.7484">
        <ele>103</ele>
        <time>2012-11-19T15:58:29Z</time>
      </trkpt>
      <trkpt lat="43.32472" lon="2.74831">
        <ele>103</ele>
        <time>2012-11-19T15:58:37Z</time>
      </trkpt>
      <trkpt lat="43.3247" lon="2.74827">
        <ele>103</ele>
        <time>2012-11-19T15:58:39Z</time>
      </trkpt>
      <trkpt lat="43.32464" lon="2.74815">
        <ele>103</ele>
        <time>2012-11-19T15:58:46Z</time>
      </trkpt>
      <trkpt lat="43.32461" lon="2.74812">
        <ele>103</ele>
        <time>2012-11-19T15:58:49Z</time>
      </trkpt>
      <trkpt lat="43.32454" lon="2.74799">
        <ele>103.48</ele>
        <time>2012-11-19T15:58:59Z</time>
      </trkpt>
      <trkpt lat="43.32451" lon="2.74791">
        <ele>103.96</ele>
        <time>2012-11-19T15:59:07Z</time>
      </trkpt>
      <trkpt lat="43.32447" lon="2.74783">
        <ele>103.48</ele>
        <time>2012-11-19T15:59:15Z</time>
      </trkpt>
      <trkpt lat="43.32441" lon="2.74771">
        <ele>103.96</ele>
        <time>2012-11-19T15:59:24Z</time>
      </trkpt>
      <trkpt lat="43.32439" lon="2.7476">
        <ele>104.44</ele>
        <time>2012-11-19T15:59:36Z</time>
      </trkpt>
      <trkpt lat="43.32435" lon="2.74753">
        <ele>104.44</ele>
        <time>2012-11-19T15:59:46Z</time>
      </trkpt>
      <trkpt lat="43.32434" lon="2.7475">
        <ele>104.92</ele>
        <time>2012-11-19T15:59:51Z</time>
      </trkpt>
      <trkpt lat="43.32433" lon="2.74743">
        <ele>105.88</ele>
        <time>2012-11-19T16:00:05Z</time>
      </trkpt>
      <trkpt lat="43.32433" lon="2.74742">
        <ele>104.92</ele>
        <time>2012-11-19T16:00:24Z</time>
      </trkpt>
      <trkpt lat="43.32429" lon="2.74752">
        <ele>104.92</ele>
        <time>2012-11-19T16:00:33Z</time>
      </trkpt>
      <trkpt lat="43.32424" lon="2.74762">
        <ele>103.96</ele>
        <time>2012-11-19T16:00:44Z</time>
      </trkpt>
      <trkpt lat="43.32423" lon="2.74764">
        <ele>103.96</ele>
        <time>2012-11-19T16:00:46Z</time>
      </trkpt>
      <trkpt lat="43.32422" lon="2.74768">
        <ele>103.96</ele>
        <time>2012-11-19T16:00:49Z</time>
      </trkpt>
      <trkpt lat="43.3242" lon="2.74771">
        <ele>103</ele>
        <time>2012-11-19T16:00:54Z</time>
      </trkpt>
      <trkpt lat="43.32417" lon="2.74775">
        <ele>103</ele>
        <time>2012-11-19T16:00:58Z</time>
      </trkpt>
      <trkpt lat="43.3241" lon="2.74784">
        <ele>102.52</ele>
        <time>2012-11-19T16:01:08Z</time>
      </trkpt>
      <trkpt lat="43.32407" lon="2.74788">
        <ele>101.08</ele>
        <time>2012-11-19T16:01:12Z</time>
      </trkpt>
      <trkpt lat="43.32398" lon="2.74797">
        <ele>102.04</ele>
        <time>2012-11-19T16:01:25Z</time>
      </trkpt>
      <trkpt lat="43.32392" lon="2.74801">
        <ele>102.04</ele>
        <time>2012-11-19T16:01:31Z</time>
      </trkpt>
      <trkpt lat="43.32388" lon="2.74802">
        <ele>102.04</ele>
        <time>2012-11-19T16:01:35Z</time>
      </trkpt>
      <trkpt lat="43.32382" lon="2.74804">
        <ele>102.52</ele>
        <time>2012-11-19T16:01:45Z</time>
      </trkpt>
      <trkpt lat="43.32374" lon="2.74804">
        <ele>103.48</ele>
        <time>2012-11-19T16:01:54Z</time>
      </trkpt>
      <trkpt lat="43.3237" lon="2.74803">
        <ele>103.48</ele>
        <time>2012-11-19T16:01:58Z</time>
      </trkpt>
      <trkpt lat="43.32365" lon="2.74798">
        <ele>103.48</ele>
        <time>2012-11-19T16:02:05Z</time>
      </trkpt>
      <trkpt lat="43.32354" lon="2.74792">
        <ele>104.92</ele>
        <time>2012-11-19T16:02:17Z</time>
      </trkpt>
      <trkpt lat="43.32353" lon="2.74792">
        <ele>104.92</ele>
        <time>2012-11-19T16:02:18Z</time>
      </trkpt>
      <trkpt lat="43.32349" lon="2.74789">
        <ele>105.4</ele>
        <time>2012-11-19T16:02:22Z</time>
      </trkpt>
      <trkpt lat="43.32343" lon="2.74787">
        <ele>105.4</ele>
        <time>2012-11-19T16:02:27Z</time>
      </trkpt>
      <trkpt lat="43.32339" lon="2.74783">
        <ele>105.4</ele>
        <time>2012-11-19T16:02:31Z</time>
      </trkpt>
      <trkpt lat="43.32336" lon="2.74778">
        <ele>105.88</ele>
        <time>2012-11-19T16:02:34Z</time>
      </trkpt>
      <trkpt lat="43.32334" lon="2.7477">
        <ele>106.84</ele>
        <time>2012-11-19T16:02:44Z</time>
      </trkpt>
      <trkpt lat="43.32329" lon="2.74764">
        <ele>106.84</ele>
        <time>2012-11-19T16:02:50Z</time>
      </trkpt>
      <trkpt lat="43.32322" lon="2.74757">
        <ele>107.81</ele>
        <time>2012-11-19T16:03:01Z</time>
      </trkpt>
      <trkpt lat="43.3232" lon="2.74756">
        <ele>107.32</ele>
        <time>2012-11-19T16:03:04Z</time>
      </trkpt>
      <trkpt lat="43.32313" lon="2.74747">
        <ele>105.88</ele>
        <time>2012-11-19T16:03:14Z</time>
      </trkpt>
      <trkpt lat="43.32305" lon="2.74737">
        <ele>105.4</ele>
        <time>2012-11-19T16:03:25Z</time>
      </trkpt>
      <trkpt lat="43.32304" lon="2.74735">
        <ele>104.92</ele>
        <time>2012-11-19T16:03:28Z</time>
      </trkpt>
      <trkpt lat="43.323" lon="2.74733">
        <ele>104.92</ele>
        <time>2012-11-19T16:03:32Z</time>
      </trkpt>
      <trkpt lat="43.32295" lon="2.74727">
        <ele>103</ele>
        <time>2012-11-19T16:03:43Z</time>
      </trkpt>
      <trkpt lat="43.32288" lon="2.74719">
        <ele>102.04</ele>
        <time>2012-11-19T16:03:55Z</time>
      </trkpt>
      <trkpt lat="43.32283" lon="2.74709">
        <ele>101.08</ele>
        <time>2012-11-19T16:04:08Z</time>
      </trkpt>
      <trkpt lat="43.3228" lon="2.74705">
        <ele>100.11</ele>
        <time>2012-11-19T16:04:12Z</time>
      </trkpt>
      <trkpt lat="43.32276" lon="2.74703">
        <ele>100.11</ele>
        <time>2012-11-19T16:04:17Z</time>
      </trkpt>
      <trkpt lat="43.32273" lon="2.747">
        <ele>100.11</ele>
        <time>2012-11-19T16:04:20Z</time>
      </trkpt>
      <trkpt lat="43.32271" lon="2.74697">
        <ele>100.11</ele>
        <time>2012-11-19T16:04:23Z</time>
      </trkpt>
      <trkpt lat="43.32266" lon="2.74682">
        <ele>99.15</ele>
        <time>2012-11-19T16:04:35Z</time>
      </trkpt>
      <trkpt lat="43.32265" lon="2.74681">
        <ele>98.67</ele>
        <time>2012-11-19T16:04:36Z</time>
      </trkpt>
      <trkpt lat="43.32264" lon="2.74677">
        <ele>98.67</ele>
        <time>2012-11-19T16:04:39Z</time>
      </trkpt>
      <trkpt lat="43.32259" lon="2.74675">
        <ele>98.19</ele>
        <time>2012-11-19T16:04:45Z</time>
      </trkpt>
      <trkpt lat="43.32253" lon="2.74665">
        <ele>97.23</ele>
        <time>2012-11-19T16:04:54Z</time>
      </trkpt>
      <trkpt lat="43.3225" lon="2.7465">
        <ele>95.79</ele>
        <time>2012-11-19T16:05:06Z</time>
      </trkpt>
      <trkpt lat="43.3225" lon="2.74645">
        <ele>96.27</ele>
        <time>2012-11-19T16:05:09Z</time>
      </trkpt>
      <trkpt lat="43.32249" lon="2.74641">
        <ele>96.27</ele>
        <time>2012-11-19T16:05:12Z</time>
      </trkpt>
      <trkpt lat="43.32249" lon="2.74638">
        <ele>95.79</ele>
        <time>2012-11-19T16:05:15Z</time>
      </trkpt>
      <trkpt lat="43.32247" lon="2.74626">
        <ele>95.79</ele>
        <time>2012-11-19T16:05:23Z</time>
      </trkpt>
      <trkpt lat="43.32247" lon="2.74612">
        <ele>94.83</ele>
        <time>2012-11-19T16:05:33Z</time>
      </trkpt>
      <trkpt lat="43.32245" lon="2.74601">
        <ele>94.83</ele>
        <time>2012-11-19T16:05:41Z</time>
      </trkpt>
      <trkpt lat="43.32243" lon="2.74592">
        <ele>94.35</ele>
        <time>2012-11-19T16:05:47Z</time>
      </trkpt>
      <trkpt lat="43.32242" lon="2.74587">
        <ele>94.35</ele>
        <time>2012-11-19T16:05:51Z</time>
      </trkpt>
      <trkpt lat="43.32241" lon="2.74577">
        <ele>94.35</ele>
        <time>2012-11-19T16:05:58Z</time>
      </trkpt>
      <trkpt lat="43.3224" lon="2.7457">
        <ele>93.87</ele>
        <time>2012-11-19T16:06:04Z</time>
      </trkpt>
      <trkpt lat="43.32239" lon="2.74561">
        <ele>93.39</ele>
        <time>2012-11-19T16:06:11Z</time>
      </trkpt>
      <trkpt lat="43.32237" lon="2.7455">
        <ele>93.39</ele>
        <time>2012-11-19T16:06:22Z</time>
      </trkpt>
      <trkpt lat="43.32236" lon="2.7454">
        <ele>93.39</ele>
        <time>2012-11-19T16:06:29Z</time>
      </trkpt>
      <trkpt lat="43.32235" lon="2.74533">
        <ele>93.39</ele>
        <time>2012-11-19T16:06:34Z</time>
      </trkpt>
      <trkpt lat="43.32234" lon="2.74525">
        <ele>93.39</ele>
        <time>2012-11-19T16:06:40Z</time>
      </trkpt>
      <trkpt lat="43.32233" lon="2.74517">
        <ele>93.39</ele>
        <time>2012-11-19T16:06:45Z</time>
      </trkpt>
      <trkpt lat="43.3223" lon="2.74505">
        <ele>93.39</ele>
        <time>2012-11-19T16:06:53Z</time>
      </trkpt>
      <trkpt lat="43.32228" lon="2.74495">
        <ele>92.9</ele>
        <time>2012-11-19T16:06:59Z</time>
      </trkpt>
      <trkpt lat="43.32227" lon="2.7448">
        <ele>92.42</ele>
        <time>2012-11-19T16:07:09Z</time>
      </trkpt>
      <trkpt lat="43.32226" lon="2.74478">
        <ele>92.9</ele>
        <time>2012-11-19T16:07:11Z</time>
      </trkpt>
      <trkpt lat="43.32225" lon="2.74474">
        <ele>92.42</ele>
        <time>2012-11-19T16:07:14Z</time>
      </trkpt>
      <trkpt lat="43.32223" lon="2.74456">
        <ele>92.42</ele>
        <time>2012-11-19T16:07:25Z</time>
      </trkpt>
      <trkpt lat="43.32221" lon="2.7445">
        <ele>92.42</ele>
        <time>2012-11-19T16:07:29Z</time>
      </trkpt>
      <trkpt lat="43.32221" lon="2.74445">
        <ele>92.42</ele>
        <time>2012-11-19T16:07:32Z</time>
      </trkpt>
      <trkpt lat="43.32221" lon="2.74435">
        <ele>91.46</ele>
        <time>2012-11-19T16:07:39Z</time>
      </trkpt>
      <trkpt lat="43.32221" lon="2.74431">
        <ele>91.94</ele>
        <time>2012-11-19T16:07:42Z</time>
      </trkpt>
      <trkpt lat="43.3222" lon="2.74423">
        <ele>91.46</ele>
        <time>2012-11-19T16:07:47Z</time>
      </trkpt>
      <trkpt lat="43.32219" lon="2.74418">
        <ele>91.46</ele>
        <time>2012-11-19T16:07:50Z</time>
      </trkpt>
      <trkpt lat="43.32216" lon="2.74409">
        <ele>91.46</ele>
        <time>2012-11-19T16:07:57Z</time>
      </trkpt>
      <trkpt lat="43.32211" lon="2.744">
        <ele>90.98</ele>
        <time>2012-11-19T16:08:06Z</time>
      </trkpt>
      <trkpt lat="43.3221" lon="2.74395">
        <ele>90.98</ele>
        <time>2012-11-19T16:08:11Z</time>
      </trkpt>
      <trkpt lat="43.32208" lon="2.74394">
        <ele>90.98</ele>
        <time>2012-11-19T16:08:13Z</time>
      </trkpt>
      <trkpt lat="43.32206" lon="2.74387">
        <ele>90.5</ele>
        <time>2012-11-19T16:08:19Z</time>
      </trkpt>
      <trkpt lat="43.32206" lon="2.74385">
        <ele>90.5</ele>
        <time>2012-11-19T16:08:21Z</time>
      </trkpt>
      <trkpt lat="43.32206" lon="2.74379">
        <ele>90.5</ele>
        <time>2012-11-19T16:08:25Z</time>
      </trkpt>
      <trkpt lat="43.32209" lon="2.74376">
        <ele>90.5</ele>
        <time>2012-11-19T16:08:29Z</time>
      </trkpt>
      <trkpt lat="43.32219" lon="2.74361">
        <ele>91.46</ele>
        <time>2012-11-19T16:08:40Z</time>
      </trkpt>
      <trkpt lat="43.32219" lon="2.74359">
        <ele>91.46</ele>
        <time>2012-11-19T16:08:41Z</time>
      </trkpt>
      <trkpt lat="43.32229" lon="2.74338">
        <ele>91.94</ele>
        <time>2012-11-19T16:08:54Z</time>
      </trkpt>
      <trkpt lat="43.3223" lon="2.74337">
        <ele>91.94</ele>
        <time>2012-11-19T16:08:55Z</time>
      </trkpt>
      <trkpt lat="43.32233" lon="2.74324">
        <ele>92.42</ele>
        <time>2012-11-19T16:09:03Z</time>
      </trkpt>
      <trkpt lat="43.32236" lon="2.74316">
        <ele>92.9</ele>
        <time>2012-11-19T16:09:08Z</time>
      </trkpt>
      <trkpt lat="43.32241" lon="2.74295">
        <ele>93.39</ele>
        <time>2012-11-19T16:09:22Z</time>
      </trkpt>
      <trkpt lat="43.32242" lon="2.7429">
        <ele>93.39</ele>
        <time>2012-11-19T16:09:25Z</time>
      </trkpt>
      <trkpt lat="43.32245" lon="2.74276">
        <ele>93.87</ele>
        <time>2012-11-19T16:09:34Z</time>
      </trkpt>
      <trkpt lat="43.32246" lon="2.74272">
        <ele>94.35</ele>
        <time>2012-11-19T16:09:37Z</time>
      </trkpt>
      <trkpt lat="43.32248" lon="2.74267">
        <ele>94.35</ele>
        <time>2012-11-19T16:09:40Z</time>
      </trkpt>
      <trkpt lat="43.32251" lon="2.74253">
        <ele>95.31</ele>
        <time>2012-11-19T16:09:49Z</time>
      </trkpt>
      <trkpt lat="43.32252" lon="2.74247">
        <ele>96.27</ele>
        <time>2012-11-19T16:09:53Z</time>
      </trkpt>
      <trkpt lat="43.32257" lon="2.7424">
        <ele>96.75</ele>
        <time>2012-11-19T16:09:59Z</time>
      </trkpt>
      <trkpt lat="43.32263" lon="2.74235">
        <ele>97.23</ele>
        <time>2012-11-19T16:10:06Z</time>
      </trkpt>
      <trkpt lat="43.32265" lon="2.74233">
        <ele>97.71</ele>
        <time>2012-11-19T16:10:09Z</time>
      </trkpt>
      <trkpt lat="43.32267" lon="2.74231">
        <ele>97.71</ele>
        <time>2012-11-19T16:10:13Z</time>
      </trkpt>
      <trkpt lat="43.32273" lon="2.74228">
        <ele>98.67</ele>
        <time>2012-11-19T16:10:21Z</time>
      </trkpt>
      <trkpt lat="43.32279" lon="2.74224">
        <ele>98.67</ele>
        <time>2012-11-19T16:10:27Z</time>
      </trkpt>
      <trkpt lat="43.32289" lon="2.74214">
        <ele>99.63</ele>
        <time>2012-11-19T16:10:39Z</time>
      </trkpt>
      <trkpt lat="43.32291" lon="2.74214">
        <ele>99.63</ele>
        <time>2012-11-19T16:10:45Z</time>
      </trkpt>
      <trkpt lat="43.32295" lon="2.74211">
        <ele>99.63</ele>
        <time>2012-11-19T16:10:50Z</time>
      </trkpt>
      <trkpt lat="43.32305" lon="2.742">
        <ele>100.6</ele>
        <time>2012-11-19T16:11:01Z</time>
      </trkpt>
      <trkpt lat="43.32306" lon="2.74197">
        <ele>100.11</ele>
        <time>2012-11-19T16:11:03Z</time>
      </trkpt>
      <trkpt lat="43.32307" lon="2.74193">
        <ele>100.6</ele>
        <time>2012-11-19T16:11:09Z</time>
      </trkpt>
      <trkpt lat="43.3231" lon="2.74188">
        <ele>100.6</ele>
        <time>2012-11-19T16:11:13Z</time>
      </trkpt>
      <trkpt lat="43.32311" lon="2.74185">
        <ele>101.08</ele>
        <time>2012-11-19T16:11:15Z</time>
      </trkpt>
      <trkpt lat="43.32314" lon="2.7418">
        <ele>101.08</ele>
        <time>2012-11-19T16:11:19Z</time>
      </trkpt>
      <trkpt lat="43.32319" lon="2.74166">
        <ele>102.04</ele>
        <time>2012-11-19T16:11:29Z</time>
      </trkpt>
      <trkpt lat="43.3232" lon="2.74163">
        <ele>102.04</ele>
        <time>2012-11-19T16:11:31Z</time>
      </trkpt>
      <trkpt lat="43.32324" lon="2.74154">
        <ele>102.04</ele>
        <time>2012-11-19T16:11:37Z</time>
      </trkpt>
      <trkpt lat="43.32325" lon="2.7415">
        <ele>102.04</ele>
        <time>2012-11-19T16:11:40Z</time>
      </trkpt>
      <trkpt lat="43.32326" lon="2.74146">
        <ele>102.52</ele>
        <time>2012-11-19T16:11:43Z</time>
      </trkpt>
      <trkpt lat="43.3233" lon="2.74141">
        <ele>102.52</ele>
        <time>2012-11-19T16:11:49Z</time>
      </trkpt>
      <trkpt lat="43.32334" lon="2.74134">
        <ele>102.52</ele>
        <time>2012-11-19T16:11:56Z</time>
      </trkpt>
      <trkpt lat="43.3234" lon="2.74124">
        <ele>103</ele>
        <time>2012-11-19T16:12:04Z</time>
      </trkpt>
      <trkpt lat="43.32346" lon="2.74112">
        <ele>103</ele>
        <time>2012-11-19T16:12:13Z</time>
      </trkpt>
      <trkpt lat="43.32348" lon="2.7411">
        <ele>103</ele>
        <time>2012-11-19T16:12:15Z</time>
      </trkpt>
      <trkpt lat="43.32353" lon="2.74099">
        <ele>102.52</ele>
        <time>2012-11-19T16:12:26Z</time>
      </trkpt>
      <trkpt lat="43.32355" lon="2.74097">
        <ele>102.52</ele>
        <time>2012-11-19T16:12:29Z</time>
      </trkpt>
      <trkpt lat="43.32357" lon="2.74095">
        <ele>102.04</ele>
        <time>2012-11-19T16:12:32Z</time>
      </trkpt>
      <trkpt lat="43.32359" lon="2.74092">
        <ele>102.52</ele>
        <time>2012-11-19T16:12:35Z</time>
      </trkpt>
      <trkpt lat="43.32362" lon="2.7409">
        <ele>102.04</ele>
        <time>2012-11-19T16:12:38Z</time>
      </trkpt>
      <trkpt lat="43.32365" lon="2.74086">
        <ele>102.52</ele>
        <time>2012-11-19T16:12:42Z</time>
      </trkpt>
      <trkpt lat="43.32372" lon="2.74077">
        <ele>101.56</ele>
        <time>2012-11-19T16:12:51Z</time>
      </trkpt>
      <trkpt lat="43.32375" lon="2.74076">
        <ele>101.56</ele>
        <time>2012-11-19T16:12:54Z</time>
      </trkpt>
      <trkpt lat="43.32377" lon="2.74072">
        <ele>101.56</ele>
        <time>2012-11-19T16:12:57Z</time>
      </trkpt>
      <trkpt lat="43.32381" lon="2.74069">
        <ele>101.08</ele>
        <time>2012-11-19T16:13:02Z</time>
      </trkpt>
      <trkpt lat="43.32388" lon="2.7406">
        <ele>101.08</ele>
        <time>2012-11-19T16:13:10Z</time>
      </trkpt>
      <trkpt lat="43.32391" lon="2.74059">
        <ele>101.08</ele>
        <time>2012-11-19T16:13:13Z</time>
      </trkpt>
      <trkpt lat="43.32394" lon="2.74056">
        <ele>101.08</ele>
        <time>2012-11-19T16:13:16Z</time>
      </trkpt>
      <trkpt lat="43.32399" lon="2.74051">
        <ele>101.08</ele>
        <time>2012-11-19T16:13:25Z</time>
      </trkpt>
      <trkpt lat="43.32402" lon="2.74048">
        <ele>101.08</ele>
        <time>2012-11-19T16:13:29Z</time>
      </trkpt>
      <trkpt lat="43.32408" lon="2.74041">
        <ele>101.08</ele>
        <time>2012-11-19T16:13:35Z</time>
      </trkpt>
      <trkpt lat="43.3241" lon="2.74038">
        <ele>101.08</ele>
        <time>2012-11-19T16:13:38Z</time>
      </trkpt>
      <trkpt lat="43.32418" lon="2.74024">
        <ele>101.08</ele>
        <time>2012-11-19T16:13:49Z</time>
      </trkpt>
      <trkpt lat="43.3242" lon="2.74017">
        <ele>101.08</ele>
        <time>2012-11-19T16:13:54Z</time>
      </trkpt>
      <trkpt lat="43.32421" lon="2.74013">
        <ele>101.08</ele>
        <time>2012-11-19T16:13:57Z</time>
      </trkpt>
      <trkpt lat="43.32423" lon="2.74007">
        <ele>101.08</ele>
        <time>2012-11-19T16:14:01Z</time>
      </trkpt>
      <trkpt lat="43.32424" lon="2.74004">
        <ele>101.56</ele>
        <time>2012-11-19T16:14:03Z</time>
      </trkpt>
      <trkpt lat="43.32426" lon="2.73994">
        <ele>101.56</ele>
        <time>2012-11-19T16:14:10Z</time>
      </trkpt>
      <trkpt lat="43.32433" lon="2.73977">
        <ele>102.04</ele>
        <time>2012-11-19T16:14:23Z</time>
      </trkpt>
      <trkpt lat="43.32433" lon="2.73975">
        <ele>102.04</ele>
        <time>2012-11-19T16:14:25Z</time>
      </trkpt>
      <trkpt lat="43.32433" lon="2.73972">
        <ele>102.04</ele>
        <time>2012-11-19T16:14:27Z</time>
      </trkpt>
      <trkpt lat="43.32434" lon="2.73967">
        <ele>101.56</ele>
        <time>2012-11-19T16:14:31Z</time>
      </trkpt>
      <trkpt lat="43.32434" lon="2.73953">
        <ele>101.08</ele>
        <time>2012-11-19T16:14:41Z</time>
      </trkpt>
      <trkpt lat="43.32437" lon="2.73936">
        <ele>100.6</ele>
        <time>2012-11-19T16:14:55Z</time>
      </trkpt>
      <trkpt lat="43.32438" lon="2.73933">
        <ele>100.11</ele>
        <time>2012-11-19T16:15:09Z</time>
      </trkpt>
      <trkpt lat="43.32442" lon="2.73926">
        <ele>99.63</ele>
        <time>2012-11-19T16:15:14Z</time>
      </trkpt>
      <trkpt lat="43.32444" lon="2.73922">
        <ele>99.15</ele>
        <time>2012-11-19T16:15:17Z</time>
      </trkpt>
      <trkpt lat="43.32446" lon="2.73921">
        <ele>99.15</ele>
        <time>2012-11-19T16:15:31Z</time>
      </trkpt>
      <trkpt lat="43.32446" lon="2.73922">
        <ele>99.63</ele>
        <time>2012-11-19T16:15:47Z</time>
      </trkpt>
      <trkpt lat="43.32447" lon="2.73919">
        <ele>99.15</ele>
        <time>2012-11-19T16:15:51Z</time>
      </trkpt>
      <trkpt lat="43.32448" lon="2.73907">
        <ele>98.67</ele>
        <time>2012-11-19T16:16:01Z</time>
      </trkpt>
      <trkpt lat="43.32447" lon="2.73904">
        <ele>99.15</ele>
        <time>2012-11-19T16:16:17Z</time>
      </trkpt>
      <trkpt lat="43.32448" lon="2.73902">
        <ele>102.04</ele>
        <time>2012-11-19T16:16:36Z</time>
      </trkpt>
      <trkpt lat="43.32448" lon="2.73902">
        <ele>98.19</ele>
        <time>2012-11-19T16:16:37Z</time>
      </trkpt>
      <trkpt lat="43.32448" lon="2.73902">
        <ele>102.52</ele>
        <time>2012-11-19T16:16:38Z</time>
      </trkpt>
      <trkpt lat="43.32448" lon="2.73903">
        <ele>99.15</ele>
        <time>2012-11-19T16:16:40Z</time>
      </trkpt>
      <trkpt lat="43.32448" lon="2.73903">
        <ele>115.5</ele>
        <time>2012-11-19T16:16:41Z</time>
      </trkpt>
      <trkpt lat="43.32447" lon="2.73903">
        <ele>100.11</ele>
        <time>2012-11-19T16:16:42Z</time>
      </trkpt>
      <trkpt lat="43.32447" lon="2.73903">
        <ele>90.98</ele>
        <time>2012-11-19T16:16:46Z</time>
      </trkpt>
      <trkpt lat="43.32447" lon="2.73903">
        <ele>100.6</ele>
        <time>2012-11-19T16:16:47Z</time>
      </trkpt>
      <trkpt lat="43.32447" lon="2.73901">
        <ele>96.27</ele>
        <time>2012-11-19T16:16:54Z</time>
      </trkpt>
      <trkpt lat="43.32447" lon="2.73901">
        <ele>102.04</ele>
        <time>2012-11-19T16:16:56Z</time>
      </trkpt>
      <trkpt lat="43.32447" lon="2.73901">
        <ele>95.79</ele>
        <time>2012-11-19T16:16:57Z</time>
      </trkpt>
      <trkpt lat="43.32447" lon="2.73901">
        <ele>102.52</ele>
        <time>2012-11-19T16:16:58Z</time>
      </trkpt>
      <trkpt lat="43.32448" lon="2.73901">
        <ele>99.15</ele>
        <time>2012-11-19T16:16:59Z</time>
      </trkpt>
    </trkseg>
  </trk>
</gpx>